[[{"header":{"parameterUnit":"m.s-1","parameterCategory":1,"la1":30.6,"la2":28.766,"lo1":-90.7593,"lo2":-88.6598,"dy":0.0162,"dx":0.0183,"nx":116,"ny":114,"refTime":"2023-05-05T18:00:00:Z","depth":0,"parameterNumber":2,"parameterNumberName":"U-component_of_WINDS"},"data":[0.0,0.0,0.0,0.0,0.0,0.0,0.0,0.0,0.0,0.0,0.0,0.0,0.0,0.0,0.0,0.0,0.0,0.0,0.0,0.0,0.0,0.0,0.0,0.0,0.0,0.0,0.0,0.0,0.0,0.0,0.0,0.0,0.0,0.0,0.0,0.0,0.0,0.0,0.0,0.0,0.0,0.0,0.0,0.0,0.0,0.0,0.0,0.0,0.0,0.0,0.0,0.0,0.0,0.0,0.0,0.0,0.0,0.0,0.0,0.0,0.0,0.0,0.0,0.0,0.0,0.0,0.0,0.0,0.0,0.0,0.0,0.0,0.0,0.0,0.0,0.0,0.0,0.0,0.0,0.0,0.0,0.0,0.0,0.0,0.0,0.0,0.0,0.0,0.0,0.0,0.0,0.0,0.0,0.0,0.0,0.0,0.0,0.0,0.0,0.0,0.0,0.0,0.0,0.0,0.0,0.0,0.0,0.0,0.0,0.0,0.0,0.0,0.0,0.0,0.0,0.0,0.0,0.0,0.0,0.0,0.0,0.0,0.0,0.0,0.0,0.0,0.0,0.0,0.0,0.0,0.0,0.0,0.0,0.0,0.0,0.0,0.0,0.0,0.0,0.0,0.0,0.0,0.0,0.0,0.0,0.0,0.0,0.0,0.0,0.0,0.0,0.0,0.0,0.0,0.0,0.0,0.0,0.0,0.0,0.0,0.0,0.0,0.0,0.0,0.0,0.0,0.0,0.0,0.0,0.0,0.0,0.0,0.0,0.0,0.0,0.0,0.0,0.0,0.0,0.0,0.0,0.0,0.0,0.0,0.0,0.0,0.0,0.0,0.0,0.0,0.0,0.0,0.0,0.0,0.0,0.0,0.0,0.0,0.0,0.0,0.0,0.0,0.0,0.0,0.0,0.0,0.0,0.0,0.0,0.0,0.0,0.0,0.0,0.0,0.0,0.0,0.0,0.0,0.0,0.0,0.0,0.0,0.0,0.0,0.0,0.0,0.0,0.0,0.0,0.0,0.0,0.0,0.0,0.0,0.0,0.0,0.0,0.0,0.0,0.0,0.0,0.0,0.0,0.0,0.0,0.0,0.0,0.0,0.0,0.0,0.0,0.0,0.0,0.0,0.0,0.0,0.0,0.0,0.0,0.0,0.0,0.0,0.0,0.0,0.0,0.0,0.0,0.0,0.0,0.0,0.0,0.0,0.0,0.0,0.0,0.0,0.0,0.0,0.0,0.0,0.0,0.0,0.0,0.0,0.0,0.0,0.0,0.0,0.0,0.0,0.0,0.0,0.0,0.0,0.0,0.0,0.0,0.0,0.0,0.0,0.0,0.0,0.0,0.0,0.0,0.0,0.0,0.0,0.0,0.0,0.0,0.0,0.0,0.0,0.0,0.0,0.0,0.0,0.0,0.0,0.0,0.0,0.0,0.0,0.0,0.0,0.0,0.0,0.0,0.0,0.0,0.0,0.0,0.0,0.0,0.0,0.0,0.0,0.0,0.0,0.0,0.0,0.0,0.0,0.0,0.0,0.0,0.0,0.0,0.0,0.0,0.0,0.0,0.0,0.0,0.0,0.0,0.0,0.0,0.0,0.0,0.0,0.0,0.0,0.0,0.0,0.0,0.0,0.0,0.0,0.0,0.0,0.0,0.0,0.0,0.0,0.0,0.0,0.0,0.0,0.0,0.0,0.0,0.0,0.0,0.0,0.0,0.0,0.0,0.0,0.0,0.0,0.0,0.0,0.0,0.0,0.0,0.0,0.0,0.0,0.0,0.0,0.0,0.0,0.0,0.0,0.0,0.0,0.0,0.0,0.0,0.0,0.0,0.0,0.0,0.0,0.0,0.0,0.0,0.0,0.0,0.0,0.0,0.0,0.0,0.0,0.0,0.0,0.0,0.0,0.0,0.0,0.0,0.0,0.0,0.0,0.0,0.0,0.0,0.0,0.0,0.0,0.0,0.0,0.0,0.0,0.0,0.0,0.0,0.0,0.0,0.0,0.0,0.0,0.0,0.0,0.0,0.0,0.0,0.0,0.0,0.0,0.0,0.0,0.0,0.0,0.0,0.0,0.0,0.0,0.0,0.0,0.0,0.0,0.0,0.0,0.0,0.0,0.0,0.0,0.0,0.0,0.0,0.0,0.0,0.0,0.0,0.0,0.0,0.0,0.0,0.0,0.0,0.0,0.0,0.0,0.0,0.0,0.0,0.0,0.0,0.0,0.0,0.0,0.0,0.0,0.0,0.0,0.0,0.0,0.0,0.0,0.0,0.0,0.0,0.0,0.0,0.0,0.0,0.0,0.0,0.0,0.0,0.0,0.0,0.0,0.0,0.0,0.0,0.0,0.0,0.0,0.0,0.0,0.0,0.0,0.0,0.0,0.0,0.0,0.0,0.0,0.0,0.0,0.0,0.0,0.0,0.0,0.0,0.0,0.0,0.0,0.0,0.0,0.0,0.0,0.0,0.0,0.0,0.0,0.0,0.0,0.0,0.0,0.0,0.0,0.0,0.0,0.0,0.0,0.0,0.0,0.0,0.0,0.0,0.0,0.0,0.0,0.0,0.0,0.0,0.0,0.0,0.0,0.0,0.0,0.0,0.0,0.0,0.0,0.0,0.0,0.0,0.0,0.0,0.0,0.0,0.0,0.0,0.0,0.0,0.0,0.0,0.0,0.0,0.0,0.0,0.0,0.0,0.0,0.0,0.0,0.0,0.0,0.0,0.0,0.0,0.0,0.0,0.0,0.0,0.0,0.0,0.0,0.0,0.0,0.0,0.0,0.0,0.0,0.0,0.0,0.0,0.0,0.0,0.0,0.0,0.0,0.0,0.0,0.0,0.0,0.0,0.0,0.0,0.0,0.0,0.0,0.0,0.0,0.0,0.0,0.0,0.0,0.0,0.0,0.0,0.0,0.0,0.0,0.0,0.0,0.0,0.0,0.0,0.0,0.0,0.0,0.0,0.0,0.0,0.0,0.0,0.0,0.0,0.0,0.0,0.0,0.0,0.0,0.0,0.0,0.0,0.0,0.0,0.0,0.0,0.0,0.0,0.0,0.0,0.0,0.0,0.0,0.0,0.0,0.0,0.0,0.0,0.0,0.0,0.0,0.0,0.0,0.0,0.0,0.0,0.0,0.0,0.0,0.0,0.0,0.0,0.0,0.0,0.0,0.0,0.0,0.0,0.0,0.0,0.0,0.0,0.0,0.0,0.0,0.0,0.0,0.0,0.0,0.0,0.0,0.0,0.0,0.0,0.0,0.0,0.0,0.0,0.0,0.0,0.0,0.0,0.0,0.0,0.0,0.0,0.0,0.0,0.0,0.0,0.0,0.0,0.0,0.0,0.0,0.0,0.0,0.0,0.0,0.0,0.0,0.0,0.0,0.0,0.0,0.0,0.0,0.0,0.0,0.0,0.0,0.0,0.0,0.0,0.0,0.0,0.0,0.0,0.0,0.0,0.0,0.0,0.0,0.0,0.0,0.0,0.0,0.0,0.0,0.0,0.0,0.0,0.0,0.0,0.0,0.0,0.0,0.0,0.0,0.0,0.0,0.0,0.0,0.0,0.0,0.0,0.0,0.0,0.0,0.0,0.0,0.0,0.0,0.0,0.0,0.0,0.0,0.0,0.0,0.0,0.0,0.0,0.0,0.0,0.0,0.0,0.0,0.0,0.0,0.0,0.0,0.0,0.0,0.0,0.0,0.0,0.0,0.0,0.0,0.0,0.0,0.0,0.0,0.0,0.0,0.0,0.0,0.0,0.0,0.0,0.0,0.0,0.0,0.0,0.0,0.0,0.0,0.0,0.0,0.0,0.0,0.0,0.0,0.0,0.0,0.0,0.0,0.0,0.0,0.0,0.0,0.0,0.0,0.0,0.0,0.0,0.0,0.0,0.0,0.0,0.0,0.0,0.0,0.0,0.0,0.0,0.0,0.0,0.0,0.0,0.0,0.0,0.0,0.0,0.0,0.0,0.0,0.0,0.0,0.0,0.0,0.0,0.0,0.0,0.0,0.0,0.0,0.0,0.0,0.0,0.0,0.0,0.0,0.0,0.0,0.0,0.0,0.0,0.0,0.0,0.0,0.0,0.0,0.0,0.0,0.0,0.0,0.0,0.0,0.0,0.0,0.0,0.0,0.0,0.0,0.0,0.0,0.0,0.0,0.0,0.0,0.0,0.0,0.0,0.0,0.0,0.0,0.0,0.0,0.0,0.0,0.0,0.0,0.0,0.0,0.0,0.0,0.0,0.0,0.0,0.0,0.0,0.0,0.0,0.0,0.0,0.0,0.0,0.0,0.0,0.0,0.0,0.0,0.0,0.0,0.0,0.0,0.0,0.0,0.0,0.0,0.0,0.0,0.0,0.0,0.0,0.0,0.0,0.0,0.0,0.0,0.0,0.0,0.0,0.0,0.0,0.0,0.0,0.0,0.0,0.0,0.0,0.0,0.0,0.0,0.0,0.0,0.0,0.0,0.0,0.0,0.0,0.0,0.0,0.0,0.0,0.0,0.0,0.0,0.0,0.0,0.0,0.0,0.0,0.0,0.0,0.0,0.0,0.0,0.0,0.0,0.0,0.0,0.0,0.0,0.0,0.0,0.0,0.0,0.0,0.0,0.0,0.0,0.0,0.0,0.0,0.0,0.0,0.0,0.0,0.0,0.0,0.0,0.0,0.0,0.0,0.0,0.0,0.0,0.0,0.0,0.0,0.0,0.0,0.0,0.0,0.0,0.0,0.0,0.0,0.0,0.0,0.0,0.0,0.0,0.0,0.0,0.0,0.0,0.0,0.0,0.0,0.0,0.0,0.0,0.0,0.0,0.0,0.0,0.0,0.0,0.0,0.0,0.0,0.0,0.0,0.0,0.0,0.0,0.0,0.0,0.0,0.0,0.0,0.0,0.0,0.0,0.0,0.0,0.0,0.0,0.0,0.0,0.0,0.0,0.0,0.0,0.0,0.0,0.0,0.0,0.0,0.0,0.0,0.0,0.0,0.0,0.0,0.0,0.0,0.0,0.0,0.0,0.0,0.0,0.0,0.0,0.0,0.0,0.0,0.0,0.0,0.0,0.0,0.0,0.0,0.0,0.0,0.0,0.0,0.0,0.0,0.0,0.0,0.0,0.0,0.0,0.0,0.0,0.0,0.0,0.0,0.0,0.0,0.0,0.0,0.0,0.0,0.0,0.0,0.0,0.0,0.0,0.0,0.0,0.0,0.0,0.0,0.0,0.0,0.0,0.0,0.0,0.0,0.0,0.0,0.0,0.0,0.0,0.0,0.0,0.0,0.0,0.0,0.0,0.0,0.0,0.0,0.0,0.0,0.0,0.0,0.0,0.0,0.0,0.0,0.0,0.0,0.0,0.0,0.0,0.0,0.0,0.0,0.0,0.0,0.0,0.0,0.0,0.0,0.0,0.0,0.0,0.0,0.0,0.0,0.0,0.0,0.0,0.0,0.0,0.0,0.0,0.0,0.0,0.0,0.0,0.0,0.0,0.0,0.0,0.0,0.0,0.0,0.0,0.0,0.0,0.0,0.0,0.0,0.0,0.0,0.0,0.0,0.0,0.0,0.0,0.0,0.0,0.0,0.0,0.0,0.0,0.0,0.0,0.0,0.0,0.0,0.0,0.0,0.0,0.0,0.0,0.0,0.0,0.0,0.0,0.0,0.0,0.0,0.0,0.0,0.0,0.0,0.0,0.0,0.0,0.0,0.0,0.0,0.0,0.0,0.0,0.0,0.0,0.0,0.0,0.0,0.0,0.0,0.0,0.0,0.0,0.0,0.0,0.0,0.0,0.0,0.0,0.0,0.0,0.0,0.0,0.0,0.0,0.0,0.0,0.0,0.0,0.0,0.0,0.0,0.0,0.0,0.0,0.0,0.0,0.0,0.0,0.0,0.0,0.0,0.0,0.0,0.0,0.0,0.0,0.0,0.0,0.0,0.0,0.0,0.0,0.0,0.0,0.0,0.0,0.0,0.0,0.0,0.0,0.0,0.0,0.0,0.0,0.0,0.0,0.0,0.0,0.0,0.0,0.0,0.0,0.0,0.0,0.0,0.0,0.0,0.0,0.0,0.0,0.0,0.0,0.0,0.0,0.0,0.0,0.0,0.0,-1.3566,0.0,0.0,0.0,0.0,0.0,0.0,0.0,0.0,0.0,0.0,0.0,0.0,0.0,0.0,0.0,0.0,0.0,0.0,0.0,0.0,0.0,0.0,0.0,0.0,0.0,0.0,0.0,0.0,0.0,0.0,0.0,0.0,0.0,0.0,0.0,0.0,0.0,0.0,0.0,0.0,-1.13,-1.2987,-1.1906,-1.0883,-0.9893,0.0,0.0,0.0,0.0,0.0,0.0,0.0,0.0,0.0,0.0,0.0,0.0,0.0,0.0,0.0,0.0,0.0,0.0,0.0,0.0,0.0,0.0,0.0,0.0,0.0,0.0,0.0,0.0,0.0,0.0,0.0,0.0,0.0,0.0,0.0,0.0,0.0,0.0,0.0,0.0,0.0,0.0,0.0,0.0,0.0,0.0,0.0,0.0,0.0,0.0,0.0,0.0,0.0,0.0,0.0,0.0,0.0,0.0,0.0,0.0,0.0,0.0,0.0,0.0,0.0,0.0,0.0,0.0,0.0,0.0,0.0,-1.5874,0.0,0.0,0.0,0.0,0.0,0.0,0.0,0.0,0.0,0.0,0.0,0.0,0.0,0.0,0.0,0.0,0.0,0.0,0.0,0.0,0.0,0.0,0.0,0.0,0.0,0.0,0.0,0.0,0.0,0.0,0.0,0.0,0.0,0.0,0.0,0.0,0.0,0.0,0.0,-1.447,-1.6078,-1.6713,-1.5934,-1.3883,-1.1296,0.0,0.0,0.0,0.0,0.0,0.0,0.0,0.0,0.0,0.0,0.0,0.0,0.0,0.0,0.0,0.0,0.0,0.0,0.0,0.0,0.0,0.0,0.0,0.0,0.0,0.0,0.0,0.0,0.0,0.0,0.0,0.0,0.0,0.0,0.0,0.0,0.0,0.0,0.0,0.0,0.0,0.0,0.0,0.0,0.0,0.0,0.0,0.0,0.0,0.0,0.0,0.0,0.0,0.0,0.0,0.0,0.0,0.0,0.0,0.0,0.0,0.0,0.0,-2.2682,-2.2963,-2.3641,-2.3344,-2.3411,-2.3641,-2.1512,-2.0352,-1.9777,-1.7236,0.0,0.0,0.0,0.0,0.0,0.0,0.0,0.0,0.0,0.0,0.0,0.0,0.0,0.0,0.0,0.0,0.0,0.0,0.0,0.0,0.0,-0.6334,-0.6664,-0.7363,-0.7532,-0.7885,0.0,0.0,0.0,0.0,0.0,0.0,0.0,0.0,0.0,0.0,-1.6885,-1.875,-1.9107,-1.8822,-1.8717,-1.868,-1.6172,-1.4994,-1.4739,0.0,0.0,0.0,0.0,0.0,0.0,0.0,0.0,0.0,0.0,0.0,0.0,0.0,0.0,0.0,0.0,0.0,0.0,0.0,0.0,0.0,0.0,0.0,0.0,0.0,0.0,0.0,0.0,0.0,0.0,0.0,0.0,0.0,0.0,0.0,0.0,0.0,0.0,0.0,0.0,0.0,-1.9071,-1.8295,0.0,0.0,0.0,0.0,0.0,0.0,0.0,0.0,0.0,0.0,0.0,0.0,0.0,-2.5897,-2.7108,-2.7707,-2.7997,-2.8023,-2.7828,-2.7761,-2.7873,-2.7685,-2.7688,-2.787,-2.717,0.0,-2.2141,-2.0736,0.0,0.0,0.0,0.0,0.0,0.0,0.0,0.0,0.0,0.0,0.0,0.0,0.0,0.0,0.0,0.0,0.0,0.0,0.0,0.0,0.0,-0.7431,-0.8209,-0.9201,-0.9787,-1.0081,-1.0026,0.0,0.0,0.0,0.0,0.0,0.0,0.0,0.0,0.0,-1.9623,-2.1177,-2.2338,-2.2294,-2.2246,-2.2181,-2.0943,-1.8762,-1.5969,-1.515,0.0,0.0,0.0,0.0,0.0,0.0,0.0,0.0,0.0,0.0,0.0,0.0,0.0,0.0,0.0,0.0,0.0,0.0,0.0,0.0,0.0,0.0,0.0,0.0,0.0,0.0,0.0,0.0,0.0,0.0,0.0,0.0,0.0,0.0,0.0,0.0,0.0,0.0,0.0,-1.7364,-1.9559,-1.9671,-1.975,-1.9331,0.0,0.0,0.0,0.0,0.0,0.0,0.0,0.0,0.0,-2.5826,-2.6858,-2.7992,-2.9273,-2.9285,-2.9274,-2.9155,-2.8964,-2.8856,-2.8856,-2.8641,-2.8533,-2.8533,-2.8473,-2.7458,-2.577,-2.4201,-2.3281,-2.2583,0.0,0.0,0.0,0.0,-1.6098,-1.6156,0.0,0.0,0.0,0.0,0.0,0.0,0.0,0.0,0.0,0.0,0.0,0.0,-0.7895,-0.9057,-1.0223,-1.1349,-1.216,-1.2324,-1.162,-1.1804,0.0,0.0,0.0,0.0,0.0,0.0,0.0,-2.0982,-2.1928,-2.3083,-2.4443,-2.4641,-2.454,-2.4201,-2.396,-2.1597,-1.7777,-1.7339,-1.614,0.0,0.0,0.0,0.0,0.0,0.0,0.0,0.0,0.0,0.0,0.0,0.0,0.0,0.0,0.0,0.0,0.0,0.0,0.0,0.0,0.0,0.0,0.0,0.0,0.0,0.0,0.0,0.0,0.0,0.0,0.0,0.0,0.0,0.0,0.0,0.0,0.0,0.0,-1.8424,-2.0653,-2.1667,-2.2068,-2.1983,0.0,0.0,0.0,0.0,0.0,0.0,-2.6132,-2.682,-2.7654,-2.872,-2.9091,-2.9665,-3.0462,-3.0099,-2.9827,-2.9719,-2.9634,-2.9585,-2.9585,-2.9344,-2.9186,-2.9136,-2.9186,-2.9149,-2.8912,-2.7075,-2.6076,-2.5507,-2.354,-2.1939,-2.0643,-1.9806,-1.951,-1.9551,0.0,0.0,0.0,0.0,0.0,0.0,0.0,0.0,0.0,0.0,0.0,-0.89,-0.9767,-1.1219,-1.2567,-1.3644,-1.4234,-1.4219,-1.3426,-1.3431,-1.2938,-1.1744,-1.1598,0.0,0.0,0.0,0.0,-2.2585,-2.4215,-2.4839,-2.45,-2.4519,-2.4444,-2.4294,-2.4075,-2.3323,-2.2109,-2.0809,-1.9454,-1.789,0.0,0.0,0.0,0.0,0.0,0.0,0.0,0.0,0.0,0.0,0.0,0.0,0.0,0.0,0.0,0.0,0.0,0.0,0.0,0.0,0.0,0.0,0.0,0.0,0.0,0.0,0.0,0.0,0.0,0.0,0.0,0.0,0.0,0.0,0.0,0.0,0.0,0.0,0.0,-2.497,-2.6525,0.0,0.0,0.0,0.0,-2.8068,-2.7683,-2.8469,-3.1016,-3.0952,-3.0964,-3.1308,-3.1889,-3.1979,-3.1549,-3.1502,-3.1281,-3.0932,-3.1119,-3.118,-3.118,-3.0796,-3.0782,-3.1143,-3.0758,-3.0683,-3.0729,-2.8986,-2.764,-2.6701,-2.6587,-2.5432,-2.3928,-2.4289,-2.4041,-2.3526,0.0,0.0,0.0,0.0,0.0,0.0,0.0,0.0,0.0,-0.6446,-0.8086,-0.9679,-1.0899,-1.3056,-1.4873,-1.5982,-1.6881,-1.7129,-1.6446,-1.5806,-1.4923,-1.3719,-1.2955,0.0,0.0,0.0,-2.2817,-2.4356,-2.5442,-2.5796,-2.5473,-2.5908,-2.5839,-2.5327,-2.526,-2.4645,-2.3602,-2.2643,-2.1248,-1.9542,-1.7687,-1.4992,0.0,0.0,0.0,0.0,0.0,0.0,0.0,0.0,0.0,0.0,0.0,0.0,0.0,0.0,0.0,0.0,0.0,0.0,0.0,0.0,0.0,0.0,0.0,0.0,0.0,0.0,0.0,0.0,0.0,0.0,0.0,0.0,0.0,0.0,0.0,0.0,0.0,-2.6036,-2.6807,0.0,-2.8246,-2.8294,-2.8973,-3.0667,-3.136,-3.2125,-3.313,-3.2968,-3.2735,-3.2464,-3.2401,-3.2414,-3.2513,-3.2241,-3.2163,-3.2304,-3.2239,-3.2201,-3.2201,-3.2045,-3.1759,-3.1433,-3.1421,-3.1382,-3.1266,-3.0412,-2.9757,-2.9312,-2.9312,-2.8495,-2.7299,-2.7189,-2.6611,-2.5878,0.0,0.0,0.0,0.0,0.0,0.0,0.0,0.0,0.0,-0.7231,-0.9303,-1.1326,-1.2901,-1.5306,-1.718,-1.8122,-1.9074,-1.9057,-1.7751,-1.7281,-1.6375,-1.4831,-1.4704,0.0,0.0,-2.2665,-2.4427,-2.5815,-2.6391,-2.6508,-2.6177,-2.668,-2.6633,-2.6096,-2.6002,-2.5533,-2.4723,-2.4136,-2.2851,-2.1093,-1.9703,-1.7293,-1.4263,0.0,0.0,0.0,0.0,0.0,0.0,0.0,0.0,0.0,0.0,0.0,0.0,0.0,0.0,0.0,0.0,0.0,0.0,0.0,0.0,0.0,0.0,0.0,0.0,0.0,0.0,0.0,0.0,0.0,0.0,0.0,0.0,0.0,0.0,0.0,-2.6805,-2.7811,-2.8668,-2.9593,-3.0646,-3.1174,-3.1877,-3.2882,-3.3846,-3.4361,-3.4216,-3.4059,-3.3836,-3.3522,-3.2921,-3.2873,-3.3435,-3.2907,-3.2804,-3.3119,-3.3001,-3.2922,-3.2922,-3.2765,-3.2437,-3.2006,-3.1876,-3.172,-3.1591,-3.1246,-3.1024,-3.0861,-3.039,-2.9656,-2.875,-2.7797,-2.6962,-2.6236,0.0,0.0,0.0,0.0,0.0,0.0,0.0,-0.6228,-0.711,-0.8282,-1.1158,-1.3867,-1.5798,-1.7941,-1.945,-1.9993,-2.064,-1.99,-1.7256,-1.7807,-1.7237,-1.5099,0.0,0.0,-2.3912,-2.4197,-2.5102,-2.6806,-2.7078,-2.6959,-2.651,-2.6712,-2.6727,-2.6513,-2.6218,-2.5976,-2.573,-2.5355,-2.4299,-2.2751,-2.1275,-1.9494,-1.7518,0.0,0.0,0.0,0.0,0.0,0.0,0.0,0.0,0.0,0.0,0.0,0.0,0.0,0.0,0.0,0.0,0.0,0.0,0.0,0.0,0.0,0.0,0.0,0.0,0.0,0.0,0.0,0.0,0.0,0.0,0.0,0.0,0.0,-2.5673,-2.7812,-2.9724,-3.0553,-3.2453,-3.38,-3.4038,-3.4566,-3.4902,-3.4902,-3.5082,-3.4949,-3.4477,-3.4443,-3.4459,-3.4512,-3.3564,-3.3484,-3.4314,-3.354,-3.3265,-3.3472,-3.3393,-3.3327,-3.3354,-3.2922,-3.2817,-3.2961,-3.2175,-3.1823,-3.1758,-3.1435,-3.1323,-3.1196,-2.9902,-2.9025,-2.8248,-2.6439,-2.5366,-2.4891,0.0,0.0,0.0,0.0,0.0,0.0,0.0,-0.62,-0.7191,-0.8974,-1.1769,-1.4325,-1.6233,-1.8608,-2.0214,-2.0547,-2.1097,-2.0751,-1.915,-1.8783,-1.8172,-1.7109,0.0,0.0,-2.4124,-2.5507,-2.6564,-2.7248,-2.7207,-2.7026,-2.6712,-2.6974,-2.6997,-2.6831,-2.6418,-2.6482,-2.6796,-2.5656,-2.4959,-2.4414,-2.3031,-2.1116,-1.8919,0.0,0.0,0.0,0.0,0.0,0.0,0.0,0.0,0.0,0.0,0.0,0.0,0.0,0.0,0.0,0.0,0.0,0.0,0.0,0.0,0.0,0.0,0.0,0.0,0.0,0.0,0.0,0.0,0.0,0.0,0.0,-2.5865,-2.8367,-2.8667,-3.0382,-3.2182,-3.3746,-3.3999,-3.4268,-3.4836,-3.5011,-3.5082,-3.4902,-3.4935,-3.5141,-3.5477,-3.5268,-3.501,-3.4747,-3.4925,-3.4851,-3.4506,-3.4678,-3.495,-3.5261,-3.422,-3.4126,-3.4768,-3.3671,-3.3091,-3.2988,-3.2594,-3.2215,-3.1758,-3.1435,-3.1635,-3.2016,-3.1272,-3.0701,-3.0199,-2.9391,-2.8557,-2.7876,0.0,0.0,0.0,0.0,0.0,0.0,0.0,-0.6601,-0.7818,-1.0235,-1.2488,-1.4794,-1.7171,-1.9117,-2.0399,-2.0822,-2.0891,-2.0388,-1.9096,-1.861,-1.8941,-2.0155,0.0,-2.4316,-2.5341,-2.6444,-2.7081,-2.7222,-2.7461,-2.7436,-2.7186,-2.7688,-2.7833,-2.7696,-2.7283,-2.7272,-2.7516,-2.6297,-2.5661,-2.5378,-2.4173,-2.2429,-2.0467,-1.9596,-1.8134,-1.6404,-1.5463,-1.4892,-1.4406,-1.3074,0.0,0.0,0.0,0.0,0.0,0.0,0.0,0.0,0.0,0.0,0.0,0.0,0.0,0.0,0.0,0.0,0.0,0.0,0.0,0.0,0.0,0.0,0.0,0.0,-2.8191,-3.0175,-3.1511,-3.2691,-3.3935,-3.5248,-3.5034,-3.4894,-3.5297,-3.5326,-3.5311,-3.5249,-3.5385,-3.5644,-3.6081,-3.5986,-3.5679,-3.5203,-3.559,-3.5589,-3.5107,-3.5401,-3.5834,-3.627,-3.5197,-3.4928,-3.5386,-3.44,-3.3813,-3.3567,-3.3054,-3.2581,-3.2136,-3.1615,-3.167,-3.1984,0.0,0.0,0.0,0.0,-2.8693,-2.8658,0.0,0.0,0.0,0.0,0.0,0.0,0.0,-0.7122,-0.8614,-1.1523,-1.3151,-1.5156,-1.8157,-1.9431,-2.025,-2.0767,-2.0311,-1.9437,-1.8146,-1.8193,-1.9831,-2.3269,-2.388,-2.5052,-2.701,-2.7021,-2.705,-2.717,-2.7771,-2.7996,-2.7826,-2.8559,-2.8865,-2.8754,-2.8412,-2.8182,-2.8023,-2.7058,-2.6351,-2.5833,-2.4791,-2.3457,-2.1993,-2.136,-2.0441,-1.932,-1.8142,-1.7876,-1.7904,-1.6532,0.0,0.0,0.0,0.0,0.0,0.0,0.0,0.0,0.0,0.0,0.0,0.0,0.0,0.0,0.0,0.0,0.0,0.0,0.0,0.0,0.0,0.0,0.0,0.0,-2.9967,-3.1562,-3.3904,-3.4531,-3.5011,-3.5644,-3.5636,-3.5569,-3.5569,-3.5569,-3.5604,-3.5688,-3.604,-3.6309,-3.6503,0.0,0.0,0.0,0.0,-3.6049,-3.5875,-3.5945,-3.6252,-3.6744,-3.6042,-3.5642,-3.548,-3.5006,-3.465,-3.4365,-3.3502,-3.2988,-3.2738,-3.2071,-3.1769,-3.1636,-3.0535,-2.9846,-2.9274,-2.7527,-2.7483,-2.8317,0.0,0.0,0.0,0.0,0.0,0.0,0.0,-0.6842,-0.8361,-1.0942,-1.3014,-1.5159,-1.7543,-1.9301,-2.0341,-2.034,-2.0089,-1.9694,-1.9147,-2.0461,-2.1948,-2.3507,-2.5275,-2.6567,-2.7313,-2.712,-2.7368,-2.8136,-2.8006,-2.8134,-2.852,-2.8763,-2.9042,-2.9232,-2.8699,-2.8497,-2.8496,-2.7312,-2.655,-2.5978,-2.5179,-2.4153,-2.3064,-2.266,-2.1942,-2.1119,-2.0962,-2.0519,-1.9809,-1.8732,-1.7949,-1.7299,-1.6494,0.0,0.0,0.0,0.0,0.0,0.0,0.0,0.0,0.0,0.0,0.0,0.0,0.0,0.0,0.0,0.0,0.0,0.0,0.0,0.0,-2.867,-3.1083,-3.3209,-3.4292,-3.4819,-3.5307,-3.5897,-3.591,-3.5893,-3.5893,-3.6005,-3.5958,-3.572,-3.627,-3.6787,-3.7195,-3.7645,-3.7611,-3.6997,-3.7615,-3.7442,-3.6307,-3.6916,-3.7228,-3.7173,-3.6227,0.0,-3.6178,-3.5048,-3.4553,-3.4473,-3.414,-3.3688,-3.3236,-3.3101,-3.2843,-3.2461,-3.1622,-3.1014,-3.0603,-3.0086,-2.9809,-2.9719,0.0,0.0,0.0,0.0,0.0,0.0,0.0,-0.7008,-0.8332,-1.0508,-1.2036,-1.3674,-1.5732,-1.6974,-1.7824,-1.8248,-1.8623,-1.9106,-1.9845,-2.135,-2.3031,-2.4869,-2.6035,-2.671,-2.6864,-2.6712,-2.7083,-2.7937,-2.8132,-2.8549,-2.916,-2.9566,-2.9828,-2.9985,-2.9579,-2.9445,-2.9434,-2.8348,-2.7536,-2.6852,-2.5957,-2.4889,-2.3822,-2.3599,-2.3064,-2.2461,-2.2146,-2.1929,-2.1644,-2.0911,-2.0429,-2.007,-1.9642,-1.8643,-1.7232,0.0,0.0,0.0,0.0,0.0,0.0,0.0,0.0,0.0,0.0,0.0,0.0,0.0,0.0,-2.4603,-2.6408,0.0,-2.9205,-3.0536,-3.2129,-3.35,-3.4368,-3.5134,-3.5722,-3.6072,-3.6085,-3.6053,-3.6005,-3.6226,-3.6211,-3.5863,-3.6932,-3.7594,-3.7541,-3.8432,-3.843,-3.7332,-3.8068,-3.786,-3.6555,-3.7334,-3.7663,-3.7457,-3.6732,-3.6412,-3.6391,-3.5597,-3.5222,-3.5102,-3.4765,-3.4469,-3.4119,-3.3603,-3.3033,-3.2391,-3.1897,-3.1421,-3.0949,-3.0533,-3.0279,-3.0113,0.0,0.0,0.0,0.0,0.0,0.0,0.0,0.0,-0.8311,-1.0083,-1.1005,-1.2172,-1.3874,-1.4528,-1.5144,-1.5831,-1.707,-1.8425,-1.981,-2.1549,-2.3565,-2.5895,-2.624,-2.6369,-2.6295,-2.6263,-2.6657,-2.7454,-2.8009,-2.8641,-2.9334,-3.0059,-3.0423,-3.0393,-3.0389,-3.0315,-3.0126,-2.9271,-2.848,-2.7696,-2.6678,-2.5612,-2.4624,-2.4372,-2.3907,-2.331,-2.2665,-2.2595,-2.2721,-2.2485,-2.2339,-2.2268,-2.2378,-2.1271,-1.9537,-1.7316,-1.6863,0.0,0.0,0.0,0.0,0.0,0.0,0.0,0.0,0.0,-2.4016,-2.4581,-2.573,-2.7292,-2.9311,-2.9773,-3.0464,-3.2476,-3.3088,-3.3641,-3.4597,-3.5559,-3.6225,-3.6337,-3.6367,-3.6305,-3.6195,-3.6445,-3.6569,-3.6346,-3.7671,-3.8323,-3.7956,-3.9033,-3.9047,-3.7682,-3.8238,-3.8067,-3.7011,-3.7595,-3.7815,-3.7625,-3.7264,-3.6915,-3.651,-3.6284,-3.6071,-3.5817,-3.5499,-3.5212,-3.4942,-3.4015,-3.3133,-3.2377,-3.2,-3.1556,-3.1048,-3.0457,-3.019,-3.019,0.0,0.0,0.0,0.0,0.0,0.0,0.0,0.0,0.0,-0.9428,-1.0769,-1.2021,-1.3106,-1.4119,-1.455,-1.4132,-1.6685,-1.8254,-1.8099,-2.1407,-2.3861,-2.4904,-2.5598,-2.6063,-2.6297,-2.6174,-2.6525,-2.7329,-2.7414,-2.7753,-2.8383,-2.9276,-2.9697,-2.9726,-3.0454,-3.0381,-2.9726,-2.9143,-2.8432,-2.7628,-2.679,-2.6234,-2.5823,-2.5087,-2.4225,-2.336,-2.3105,-2.2497,-2.1952,-2.2526,-2.2168,-2.1577,-2.2472,-2.2748,-2.231,-2.0033,0.0,-2.035,-1.9071,-2.0614,-2.262,-2.2739,-2.3218,-2.3618,0.0,0.0,-2.6607,-2.6455,-2.8598,-3.0601,-3.0996,-3.1414,-3.2027,-3.2976,-3.3908,-3.4744,-3.547,-3.6318,-3.6891,-3.6908,-3.6908,-3.6908,-3.6877,-3.7029,-3.7233,-3.7591,-3.8111,-3.8524,-3.8861,-3.9219,-3.9271,-3.8913,-3.8789,-3.8531,-3.8063,-3.7962,-3.7815,-3.7625,-3.7534,-3.7303,-3.6915,-3.69,-3.6679,-3.6312,-3.6282,-3.5898,-3.5281,-3.4723,-3.4052,-3.3344,-3.2418,-3.185,-3.1445,-3.0836,-3.0533,-3.0368,0.0,0.0,0.0,0.0,0.0,0.0,0.0,0.0,0.0,0.0,-0.9646,-1.0518,-1.0899,-1.1733,-1.2247,-1.2238,-1.5123,-1.7269,-1.8034,-2.1305,-2.3752,-2.499,-2.5678,-2.5992,-2.5966,-2.5882,-2.6204,-2.6898,-2.7089,-2.7684,-2.8623,-2.929,-2.971,-2.9892,-3.0045,-2.9885,-2.9493,-2.9084,-2.8455,-2.765,-2.7241,-2.6681,-2.5986,-2.5111,-2.4463,-2.3841,-2.2358,-2.1701,0.0,0.0,-2.1391,-2.1172,-2.2193,-2.1821,-2.0745,-1.961,-1.9853,0.0,-2.164,-2.2972,-2.4312,-2.5129,-2.5897,-2.6715,-2.7637,-2.8654,-2.9653,-3.038,-3.1528,-3.2211,-3.1692,-3.2229,-3.2751,0.0,-3.3908,-3.5062,-3.5624,-3.6531,-3.7119,-3.7119,-3.706,-3.7015,-3.7015,-3.7235,-3.7437,-3.7604,-3.8899,-3.9466,-3.9017,-3.9551,-3.9681,-3.9301,-3.898,-3.8649,-3.8366,-3.8179,-3.7953,-3.7777,-3.7777,-3.7625,-3.7341,-3.7341,-3.7187,-3.69,-3.6434,-3.6088,-3.5729,-3.4766,-3.4135,-3.3706,-3.2938,-3.22,-3.1519,-3.1061,-3.0761,-3.0571,0.0,0.0,0.0,0.0,0.0,0.0,0.0,0.0,0.0,0.0,0.0,-0.9472,-0.9408,-0.9894,-1.0358,-1.0685,-1.3401,0.0,0.0,-2.0354,-2.2829,-2.4404,-2.5246,-2.5643,-2.5661,-2.5591,-2.5772,-2.6216,-2.6554,-2.7159,-2.8035,-2.8656,-2.9088,-2.9326,-2.9319,-2.9276,-2.9175,-2.8864,-2.8391,-2.7869,-2.7613,-2.7091,-2.6293,-2.5244,-2.4477,-2.3668,-2.1674,-2.0993,0.0,-2.0578,-2.0296,-2.0274,-2.116,-2.0535,-1.9376,-1.9008,-1.9598,-2.0811,-2.2875,-2.4355,-2.5625,-2.6971,-2.8204,-2.9392,-3.0661,-3.1205,-3.1783,-3.2792,-3.3047,-3.2837,-3.2013,-3.2374,-3.2765,-3.2736,-3.3925,-3.5155,-3.6008,-3.6701,-3.7164,-3.7194,-3.6831,-3.677,-3.7326,-3.7561,-3.784,-3.8057,-3.9311,-3.9695,-3.8811,-3.9367,-3.9486,-3.9068,-3.8891,-3.8686,-3.8404,-3.8217,-3.8066,-3.7967,-3.7853,-3.7815,-3.7763,-3.7649,-3.741,-3.702,-3.6452,-3.5958,-3.5489,-3.4568,-3.4018,-3.3687,-3.324,-3.2525,-3.1703,-3.1347,-3.0986,-3.0698,0.0,0.0,0.0,0.0,0.0,0.0,0.0,0.0,0.0,0.0,0.0,0.0,0.0,0.0,-0.9589,-0.9722,-1.1785,0.0,0.0,-1.8058,-2.0735,-2.2594,-2.3895,-2.4832,-2.5481,-2.53,-2.523,-2.5257,-2.5592,-2.5771,-2.5827,-2.6874,-2.7368,-2.7411,-2.8181,-2.8582,-2.8694,-2.8368,-2.8275,-2.8334,-2.7823,-2.7412,-2.7034,-2.5766,-2.4109,-2.2325,-2.1412,0.0,-1.9967,-1.9511,-1.8911,-1.8485,-1.9103,-1.9434,0.0,-1.9046,-2.0021,-2.1484,-2.2535,-2.4869,-2.732,-2.8617,-3.0075,-3.1233,-3.1278,-3.19,-3.2422,-3.2333,-3.2422,-3.2437,-3.2062,-3.1753,-3.2032,-3.3517,-3.4179,-3.5129,-3.6914,-3.7059,-3.7044,-3.7194,-3.6165,-3.6203,0.0,-3.8276,-3.8622,-3.9471,-3.906,-3.8608,-3.8244,-3.8359,-3.8351,-3.8169,-3.8582,-3.8598,-3.8202,-3.7991,-3.7991,-3.8202,-3.7801,-3.7801,-3.8165,-3.7763,-3.7168,-3.6448,-3.6382,-3.5577,-3.4245,-3.4217,-3.3852,-3.3304,-3.329,-3.2803,-3.2055,-3.185,-3.131,-3.0698,0.0,0.0,0.0,0.0,0.0,0.0,0.0,0.0,0.0,0.0,0.0,0.0,0.0,0.0,0.0,0.0,-1.1159,-1.2466,-1.3887,-1.7331,-1.9874,-2.1091,-2.3034,-2.4189,-2.4371,-2.4318,-2.4365,-2.46,-2.5129,-2.5684,-2.6301,-2.7086,-2.7567,-2.7769,-2.7711,-2.7737,-2.775,-2.7414,-2.7337,-2.7453,-2.7373,-2.6997,-2.6254,-2.4259,-2.279,-2.1438,0.0,0.0,-1.7346,-1.6919,-1.6892,-1.7187,-1.7946,-1.7938,-1.7856,-1.9067,-2.0625,-2.2472,-2.4766,-2.6838,-2.8586,-2.9449,-3.0572,-3.1585,-3.2122,-3.2539,-3.2943,-3.3306,-3.2673,-3.1877,-3.1141,-3.1705,-3.233,-3.2388,-3.4137,-3.5907,-3.7025,-3.7164,-3.7443,-3.8291,-3.7929,0.0,0.0,0.0,0.0,-3.9092,-3.8947,-3.8542,-3.8095,-3.8618,-3.8879,-3.8721,-3.9014,-3.9141,-3.901,-3.8649,-3.8538,-3.8598,-3.8329,-3.8254,-3.8404,-3.7967,-3.7433,-3.6808,-3.6645,-3.5989,-3.4989,-3.5186,-3.4731,-3.3902,-3.403,-3.3278,-3.2092,-3.2019,-3.1519,-3.0911,0.0,0.0,0.0,0.0,0.0,0.0,0.0,0.0,0.0,0.0,0.0,0.0,0.0,0.0,0.0,0.0,0.0,-1.1602,-1.3012,0.0,-1.7835,-1.9271,-2.0862,-2.2011,-2.2598,-2.2403,-2.2439,-2.28,-2.3657,-2.4364,-2.4856,-2.5841,-2.6389,-2.6552,-2.6305,-2.6302,-2.6446,-2.6342,-2.6041,-2.5607,-2.5835,-2.5185,-2.3893,-2.2167,-2.0834,0.0,0.0,-1.5466,-1.5152,-1.4994,-1.5641,-1.6658,-1.739,-1.815,-1.8877,-1.9383,-2.1453,-2.4016,-2.6016,-2.7806,-2.9374,-3.0306,-3.1146,-3.1887,-3.2411,-3.2844,-3.3264,-3.3647,-3.2514,-3.1257,-3.0584,-3.1212,-3.1778,-3.1712,-3.4015,-3.6153,-3.7147,-3.7238,-3.7626,-3.8758,-3.867,-3.9302,0.0,0.0,0.0,-3.9613,-3.9152,-3.8623,-3.818,-3.8574,-3.8823,-3.8895,-3.9038,-3.9242,-3.9394,-3.9126,-3.898,-3.8907,-3.8775,-3.8627,-3.8478,-3.8217,-3.7696,-3.6993,-3.6845,-3.6196,-3.5244,-3.5617,-3.5095,-3.4009,-3.4363,-3.3692,-3.2486,-3.2282,-3.1911,-3.1487,0.0,0.0,0.0,0.0,0.0,0.0,0.0,0.0,0.0,0.0,0.0,0.0,0.0,0.0,0.0,0.0,0.0,0.0,-1.2182,0.0,0.0,-1.7125,-1.7565,-1.855,-2.0267,-1.9667,-1.9564,-1.9968,-2.1257,-2.1778,-2.1619,-2.3157,-2.3853,-2.3828,-2.3953,-2.4253,-2.4699,-2.4986,-2.428,-2.2981,-2.3293,-2.2218,-2.0359,-1.9631,0.0,0.0,0.0,-1.4672,-1.3536,-1.3837,-1.5239,-1.6964,-1.7528,-2.0009,-2.2295,-2.0134,-2.2597,-2.6075,-2.64,-2.7967,-2.9842,-3.1171,-3.1866,-3.2191,-3.2191,-3.2765,-3.3295,-3.3269,-3.1771,-3.0413,0.0,0.0,-3.0357,-3.1338,-3.3721,-3.587,-3.7123,-3.7298,-3.7673,0.0,0.0,0.0,0.0,0.0,0.0,-4.1068,0.0,-3.8674,-3.8448,-3.8226,-3.8307,-3.8741,-3.8767,-3.9013,-3.9436,-3.9451,-3.9307,-3.9141,-3.9104,-3.8885,-3.8516,-3.8516,-3.7994,-3.703,-3.703,-3.6201,-3.4903,-3.5611,-3.4996,-3.3739,-3.4335,-3.4052,-3.3197,-3.2622,-3.2434,-3.2342,0.0,0.0,0.0,0.0,0.0,0.0,0.0,0.0,0.0,0.0,0.0,0.0,0.0,0.0,0.0,0.0,0.0,0.0,-1.0443,0.0,0.0,0.0,0.0,0.0,0.0,0.0,0.0,-1.8168,-1.8652,-1.9301,-2.0062,-2.0528,-2.0945,-2.133,-2.124,-2.1324,-2.1479,-2.1569,-2.1364,-2.1024,0.0,-2.054,-1.9297,0.0,0.0,0.0,0.0,0.0,-1.3377,-1.4057,-1.5893,-1.8228,-2.005,-2.1616,-2.2908,-2.3598,-2.5614,-2.7808,-2.8778,-3.0163,-3.1399,-3.1608,-3.2007,-3.2259,-3.191,-3.1858,-3.1805,-3.1515,-2.9353,-2.7525,0.0,0.0,0.0,-2.8669,-3.1946,0.0,-3.5897,-3.7478,0.0,-3.9916,0.0,-4.1355,-4.2523,-4.1531,0.0,0.0,-3.9896,-3.8169,-3.7772,-3.892,-3.9555,-3.9508,-3.9864,-4.0113,-4.0196,-3.9824,-3.961,-3.9538,-3.925,-3.9068,-3.8958,-3.8797,-3.8275,-3.747,-3.747,-3.6773,-3.5741,-3.6562,-3.6036,-3.4765,-3.5253,-3.4482,-3.3018,-3.258,-3.2054,-3.1596,0.0,0.0,0.0,0.0,0.0,0.0,0.0,0.0,0.0,0.0,0.0,0.0,0.0,0.0,0.0,0.0,0.0,0.0,0.0,0.0,0.0,0.0,0.0,0.0,0.0,0.0,0.0,0.0,0.0,0.0,-1.7315,-1.8012,-1.8609,-1.9081,-1.9061,-1.9287,-1.9697,-1.9746,0.0,0.0,0.0,0.0,0.0,0.0,0.0,0.0,0.0,0.0,0.0,0.0,0.0,-2.0308,-2.2982,-2.4733,-2.5963,-2.6537,-2.8077,-2.9711,-3.0426,-3.1291,-3.201,-3.2092,-3.2112,-3.1905,-3.0999,-3.0265,-2.9678,-2.9181,-2.6928,-2.5199,-2.5691,-2.6469,0.0,0.0,0.0,0.0,-3.6428,-3.7831,-3.9218,0.0,-4.1256,0.0,-4.3333,-4.2518,-4.2106,0.0,-4.0542,-3.9251,-3.9292,-3.9807,-4.0179,-4.0375,-3.9957,-3.9887,-4.018,-4.0109,-4.0036,-4.0036,-3.9661,-3.9409,-3.9213,-3.8705,-3.8347,-3.8106,-3.766,-3.7179,-3.6729,-3.7433,-3.683,-3.551,-3.5777,-3.5044,-3.374,-3.2861,-3.2304,-3.1929,0.0,0.0,0.0,0.0,0.0,0.0,0.0,0.0,0.0,0.0,0.0,0.0,0.0,0.0,0.0,0.0,0.0,0.0,0.0,0.0,0.0,0.0,0.0,0.0,0.0,0.0,0.0,0.0,0.0,0.0,0.0,0.0,0.0,0.0,0.0,0.0,0.0,0.0,0.0,0.0,0.0,0.0,0.0,0.0,0.0,0.0,0.0,0.0,0.0,0.0,-2.0739,-2.2381,-2.5571,-2.8066,-2.9626,-2.8854,-2.9971,-3.1466,-3.1536,-3.1823,-3.2206,-3.252,-3.2213,-3.1436,-2.9855,-2.8539,-2.744,-2.6693,0.0,-2.337,-2.4179,-2.5867,-2.7567,-2.8886,0.0,-3.5447,-3.708,-3.7842,-3.8902,-4.0759,-4.135,-4.2183,-4.3706,-4.2989,-4.2417,-4.2446,-4.1432,-4.107,-4.1578,-4.0841,-4.0659,-4.1153,-3.9866,-3.9425,-3.9949,-4.03,-4.0455,-4.047,-4.0137,-3.9783,-3.943,-3.8549,-3.8415,-3.8789,-3.7733,-3.7397,-3.7558,-3.7878,-3.7192,-3.6,-3.5913,-3.5451,-3.4701,-3.3276,-3.2723,-3.2576,0.0,0.0,0.0,0.0,0.0,0.0,0.0,0.0,0.0,0.0,0.0,0.0,0.0,0.0,0.0,0.0,0.0,0.0,0.0,0.0,0.0,0.0,0.0,0.0,0.0,-1.165,-1.1615,-1.1658,-1.1743,0.0,0.0,0.0,0.0,0.0,0.0,0.0,0.0,0.0,0.0,0.0,0.0,0.0,0.0,0.0,0.0,0.0,0.0,0.0,0.0,0.0,-2.0667,-2.263,-2.5958,-2.8523,-3.0199,-2.9841,-3.0909,-3.2203,-3.2216,-3.2468,-3.2718,-3.2629,-3.232,-3.1493,-2.9331,-2.788,0.0,0.0,-2.3378,-2.2435,-2.2804,-2.4187,-2.5203,-2.4975,-2.8703,-3.2261,-3.4001,-3.6082,-3.8513,0.0,-4.2045,-4.2551,-4.3545,-4.321,0.0,0.0,-4.2502,-4.1963,-4.1621,-4.1852,-4.1869,-4.1522,-4.1253,-4.0959,-4.0613,-4.0443,-4.0331,-4.0331,-4.0101,-3.9889,-3.9631,-3.8933,-3.8766,-3.8994,-3.7736,-3.7281,-3.7339,-3.7004,-3.654,-3.5957,-3.5438,-3.4975,-3.4447,-3.3359,-3.2571,-3.1988,0.0,0.0,0.0,0.0,0.0,0.0,0.0,0.0,0.0,0.0,-0.65,0.0,0.0,0.0,0.0,0.0,0.0,0.0,0.0,0.0,0.0,0.0,0.0,0.0,0.0,-1.1497,-1.1452,-1.1353,0.0,-1.1263,-1.1583,-1.1509,-1.177,-1.2276,-1.2223,-1.228,-1.244,0.0,0.0,-1.2776,-1.2615,-1.2551,0.0,0.0,0.0,0.0,0.0,0.0,0.0,0.0,-1.8543,-2.0325,-2.5091,-2.7636,-2.8958,-2.9252,-3.0388,-3.1689,-3.2235,-3.2648,-3.2924,-3.3038,-3.229,-3.082,-2.8073,0.0,0.0,0.0,-2.0928,-2.0536,-2.1394,-2.3308,0.0,-2.5053,-2.8488,-3.1948,-3.4351,-3.6152,0.0,-4.1572,-4.2137,-4.2594,0.0,-4.3281,-4.3281,-4.3628,-4.319,-4.2706,-4.2148,-4.2299,-4.2013,-4.1213,-4.1546,-4.1347,-4.0422,-4.061,-4.0643,-4.0574,-4.0312,-4.0066,-3.9824,-3.8968,-3.8607,-3.8698,-3.7911,-3.7417,-3.7195,-3.7132,-3.6989,-3.6671,-3.5664,-3.5174,-3.488,-3.3514,-3.261,-3.2,0.0,0.0,0.0,0.0,0.0,0.0,0.0,-0.6715,-0.6608,-0.5962,-0.6146,-0.6444,-0.6702,-0.65,0.0,0.0,0.0,0.0,0.0,0.0,0.0,0.0,0.0,0.0,0.0,0.0,0.0,-1.1319,-1.1155,0.0,0.0,0.0,0.0,0.0,-1.1499,-1.1749,-1.2181,-1.1907,-1.2092,0.0,0.0,-1.202,0.0,0.0,0.0,0.0,0.0,0.0,0.0,0.0,-1.6211,-1.7589,-2.2821,-2.5448,-2.6829,-2.8018,-2.9346,-3.0749,-3.2038,-3.2703,-3.3096,-3.3372,-3.2285,-3.0279,-2.6972,-2.4649,0.0,-1.9831,-1.8948,-1.9046,-2.0329,-2.2644,-2.4592,0.0,-2.8288,-3.1595,-3.4654,-3.5824,-3.7781,0.0,-4.1989,0.0,-4.3499,-4.3295,0.0,-4.3747,-4.3479,-4.3129,-4.279,-4.2634,-4.2139,-4.1199,-4.1661,-4.14,-4.0372,-4.0803,-4.0916,-4.073,-4.0436,-4.0095,-3.9682,-3.8707,-3.8182,-3.8077,-3.7825,-3.7364,-3.6753,-3.7204,-3.7236,-3.6859,-3.5674,-3.5265,-3.5143,-3.3641,-3.2717,-3.2205,0.0,0.0,0.0,0.0,0.0,0.0,0.0,-0.697,-0.6705,-0.5914,-0.6205,-0.6407,-0.6193,-0.6355,0.0,0.0,0.0,0.0,0.0,0.0,0.0,0.0,0.0,0.0,0.0,0.0,0.0,-1.1387,-1.112,0.0,0.0,0.0,0.0,0.0,0.0,-1.1037,-1.1535,-1.0794,0.0,0.0,0.0,0.0,0.0,0.0,0.0,0.0,0.0,0.0,0.0,0.0,0.0,-1.5731,-1.8359,-2.1265,-2.4166,-2.6537,0.0,0.0,-3.1847,-3.2904,-3.3424,-3.3319,-3.2412,-3.0585,-2.6865,0.0,-2.2543,-1.9276,-1.874,-1.9117,-1.9927,-2.1816,-2.3182,-2.2967,0.0,-2.8844,-3.2244,-3.3306,-3.6007,-4.2166,0.0,0.0,-4.3987,-4.3519,-4.3157,-4.3353,-4.3082,-4.3054,-4.3312,-4.3143,-4.2865,-4.2443,-4.2077,-4.1654,-4.1196,-4.0972,-4.073,-4.0539,-4.0366,-3.9786,-3.8801,-3.8084,-3.7509,-3.7059,-3.7144,-3.6566,-3.5607,-3.6403,-3.616,-3.5284,-3.4694,-3.4638,-3.4747,-3.3663,-3.2881,-3.2322,0.0,0.0,0.0,0.0,0.0,0.0,0.0,-0.7232,-0.7214,-0.6812,-0.6811,-0.6815,-0.6719,-0.6572,0.0,0.0,0.0,0.0,0.0,0.0,0.0,0.0,0.0,0.0,0.0,0.0,-1.1486,-1.1399,-1.112,0.0,0.0,0.0,0.0,0.0,0.0,-1.068,-1.0831,0.0,0.0,0.0,0.0,0.0,0.0,0.0,0.0,0.0,0.0,0.0,-1.2492,0.0,0.0,0.0,-1.5598,-1.7299,0.0,0.0,-2.6194,-2.8137,-3.0122,-3.1699,-3.2685,-3.2241,-3.1743,-3.0306,-2.6312,0.0,-2.2556,-1.9106,-1.8428,-1.8721,-1.9496,-2.1232,-2.2733,-2.329,0.0,0.0,-3.2713,-3.3874,-3.6319,-4.165,-4.1796,0.0,0.0,0.0,-4.371,-4.3902,-4.3535,-4.3419,-4.3704,-4.3432,-4.3082,-4.2601,-4.2349,-4.1899,-4.1323,-4.1086,-4.0814,-4.0489,-4.0242,-3.9631,-3.8672,-3.8296,-3.7515,-3.6477,-3.6946,-3.6207,-3.4703,-3.5647,-3.5645,-3.5012,-3.4578,-3.4689,-3.4992,-3.36,-3.2881,-3.2489,0.0,0.0,0.0,0.0,0.0,0.0,-0.7285,-0.7676,-0.7922,-0.7566,-0.7545,-0.7467,-0.7189,-0.6923,-0.6723,-0.6637,0.0,0.0,0.0,0.0,0.0,0.0,0.0,0.0,0.0,0.0,-1.1463,-1.1342,-1.1085,-1.0979,0.0,0.0,-1.0825,-1.0741,0.0,0.0,0.0,0.0,0.0,0.0,0.0,0.0,0.0,0.0,0.0,0.0,0.0,0.0,0.0,0.0,0.0,0.0,0.0,0.0,0.0,0.0,-2.4326,-2.6361,-2.8661,-3.0399,-3.1435,-3.0986,-3.0407,-2.9059,0.0,0.0,-2.2007,-1.8917,-1.8446,-1.8806,-1.9564,-2.1052,-2.2515,-2.3655,0.0,-2.9221,-3.2224,-3.3939,-3.6261,0.0,0.0,-4.1626,0.0,-4.3606,-4.396,-4.4093,-4.3789,-4.3628,-4.3674,-4.3598,-4.3243,-4.2541,-4.2379,-4.1949,-4.1207,-4.1127,-4.0898,-4.0505,-4.0172,-3.9506,-3.8617,-3.8462,-3.7501,-3.602,-3.6788,-3.5771,-3.3699,-3.5112,-3.5179,-3.441,-3.4486,-3.4826,-3.5024,-3.3614,-3.2952,-3.2668,0.0,0.0,0.0,0.0,0.0,0.0,0.0,-0.8352,-0.8767,-0.7909,-0.831,-0.8331,-0.7402,-0.7345,-0.7197,-0.6731,0.0,0.0,0.0,0.0,0.0,0.0,0.0,0.0,0.0,0.0,-1.1273,-1.1204,-1.0991,-1.0861,-1.0801,-1.0668,-1.0609,-1.0609,0.0,0.0,0.0,0.0,0.0,0.0,0.0,0.0,0.0,0.0,0.0,0.0,0.0,0.0,0.0,0.0,0.0,0.0,0.0,0.0,0.0,0.0,-2.2866,-2.4631,-2.7848,-2.9258,-2.9796,-2.9636,-2.8374,-2.6586,0.0,-2.2505,-2.0666,-1.8617,-1.8895,-1.9675,-2.0274,-2.1277,-2.2373,-2.3522,-2.6674,0.0,-2.9865,-3.2643,-3.5258,0.0,0.0,-3.9655,-4.1544,-4.2879,-4.3608,-4.3608,-4.3608,0.0,-4.3143,-4.3598,-4.3418,-4.2338,-4.2168,-4.1742,-4.0991,-4.1075,-4.0898,-4.0505,-4.0172,-3.9456,-3.8392,-3.8392,-3.7292,-3.547,-3.6476,-3.5192,-3.2591,-3.4737,-3.4588,-3.3164,-3.442,-3.4817,-3.4597,-3.3632,-3.3164,-3.2846,0.0,0.0,0.0,0.0,0.0,0.0,0.0,0.0,-0.8908,-0.8956,-0.8888,-0.8605,-0.7979,-0.7638,-0.7253,-0.674,0.0,0.0,0.0,0.0,0.0,0.0,0.0,0.0,0.0,0.0,-1.125,-1.112,-1.1062,-1.0991,-1.0932,-1.0885,-1.0801,-1.0656,-1.056,-1.0566,0.0,0.0,0.0,0.0,0.0,0.0,0.0,0.0,0.0,0.0,0.0,0.0,0.0,0.0,0.0,0.0,0.0,0.0,0.0,-1.7991,0.0,0.0,-2.3658,-2.5318,-2.6427,-2.6077,-2.5885,-2.5223,-2.2957,-2.1927,-2.0872,-1.9002,-1.8892,-1.9332,-1.9953,-2.0825,-2.2357,-2.5105,-2.7027,0.0,0.0,0.0,0.0,-3.5918,-3.9075,-4.1846,0.0,0.0,-4.4435,-4.4093,-4.4093,-4.4035,-4.3948,-4.391,-4.3575,-4.2876,-4.2582,-4.2205,-4.1742,-4.1311,-4.0898,-4.0505,-4.0172,-3.9456,-3.8392,-3.8392,-3.7754,-3.6625,-3.6473,-3.5438,-3.3889,-3.4758,-3.4496,-3.3684,-3.5049,-3.5632,-3.5613,-3.4503,-3.3923,-3.3409,0.0,0.0,0.0,0.0,0.0,0.0,0.0,0.0,-0.8961,-0.9303,-0.912,-0.8709,-0.8014,-0.7852,-0.75,-0.6765,0.0,0.0,0.0,0.0,0.0,0.0,0.0,0.0,0.0,-1.0526,-1.0906,-1.1015,-1.105,-1.0991,-1.0885,-1.0885,-1.0789,-1.0621,-1.0597,-1.0511,0.0,0.0,0.0,0.0,0.0,0.0,-0.9903,0.0,0.0,0.0,0.0,0.0,0.0,0.0,0.0,0.0,0.0,0.0,0.0,0.0,-1.7269,-1.8903,0.0,-2.2688,-2.3636,-2.3581,-2.3535,0.0,0.0,-2.0911,-2.0187,-1.9156,-1.9686,-2.0411,-2.0582,-2.1889,-2.3574,-2.5449,-2.757,-2.9201,0.0,0.0,0.0,-3.6352,0.0,0.0,0.0,-4.4841,-4.4714,-4.4508,-4.448,-4.4423,-4.431,-4.4097,-4.3793,-4.3402,-4.2959,-4.2425,-4.1805,-4.1445,-4.0912,-4.0242,-3.9895,-3.9319,-3.8497,-3.8242,-3.7874,-3.7416,-3.6901,-3.5893,0.0,-3.518,-3.4859,-3.4182,-3.531,-3.5822,-3.5822,-3.4813,-3.4122,-3.3555,0.0,0.0,0.0,0.0,0.0,0.0,0.0,0.0,0.0,0.0,0.0,-0.8806,-0.777,-0.8055,0.0,0.0,0.0,0.0,0.0,0.0,0.0,0.0,0.0,0.0,0.0,-1.0029,-1.0398,-1.0908,-1.0968,-1.0908,-1.0729,-1.0717,-1.0644,-1.0535,-1.0632,-1.0584,-1.0374,-1.0198,-0.9995,-0.9828,-0.9957,-0.997,0.0,0.0,0.0,0.0,0.0,0.0,0.0,0.0,0.0,0.0,0.0,0.0,0.0,0.0,0.0,0.0,0.0,-2.1064,-2.13,-2.1931,-2.1325,0.0,0.0,0.0,0.0,-1.9151,-2.0966,-2.2353,-2.1863,-2.3921,-2.5497,-2.4887,-2.8164,-2.9799,0.0,-3.0846,0.0,0.0,-3.9085,0.0,-4.4579,-4.4714,-4.4631,-4.4776,-4.4803,-4.4665,-4.4321,-4.4155,-4.3998,-4.3868,-4.3188,-4.2338,-4.135,-4.1453,-4.0915,-3.9714,-3.9395,-3.9021,-3.8611,-3.8039,-3.7873,-3.7973,-3.755,-3.6547,-3.5171,-3.5903,-3.5539,-3.4645,-3.5347,-3.5576,-3.5434,-3.4668,-3.4045,-3.3388,0.0,0.0,0.0,0.0,0.0,0.0,0.0,0.0,0.0,0.0,0.0,-0.9841,-0.9179,-0.8806,0.0,0.0,0.0,0.0,0.0,0.0,0.0,0.0,0.0,0.0,0.0,-1.0352,-1.0794,-1.0979,-1.1038,-1.105,-1.0991,-1.0897,-1.0801,-1.0729,-1.0656,-1.0511,-1.0312,-1.0224,-1.011,-1.0034,-1.0059,-1.011,0.0,0.0,0.0,0.0,-1.1563,-1.2282,0.0,0.0,0.0,0.0,0.0,0.0,0.0,0.0,-1.5175,-1.5459,-1.7285,0.0,-1.8803,-1.9113,-1.9281,-1.9445,0.0,0.0,0.0,0.0,0.0,0.0,0.0,-2.3264,-2.4932,-2.5599,-2.7884,-2.9121,-2.7697,0.0,0.0,-3.8521,-4.0167,-4.1838,-4.4018,-4.4807,-4.5086,-4.4831,-4.4803,-4.4703,-4.4463,-4.3993,-4.3658,-4.3509,-4.2575,-4.1896,-4.1535,-4.0912,-4.0063,-3.8969,-3.8772,-3.8473,-3.8103,-3.8516,-3.8704,-3.8672,-3.7837,-3.7471,-3.7364,-3.6374,-3.5736,-3.5429,-3.6247,-3.6246,-3.5773,-3.5405,-3.4671,-3.3716,0.0,0.0,0.0,0.0,0.0,0.0,0.0,0.0,0.0,0.0,0.0,0.0,0.0,0.0,0.0,0.0,0.0,0.0,0.0,0.0,0.0,0.0,0.0,0.0,-0.9587,-1.0112,-1.0586,-1.0991,-1.1038,-1.1062,-1.1097,-1.0956,-1.0861,-1.0789,-1.062,-1.0486,-1.0337,-1.025,-1.0148,-1.0059,-1.0123,0.0,0.0,0.0,0.0,0.0,-1.1787,-1.2563,0.0,-1.3782,-1.398,-1.416,0.0,0.0,0.0,0.0,-1.5242,-1.5499,-1.6193,-1.697,-1.7658,-1.8017,-1.8633,-1.9149,-1.9209,0.0,0.0,0.0,0.0,0.0,0.0,-2.3957,-2.577,-2.5933,-2.7683,0.0,0.0,0.0,-3.4612,-3.8529,-4.006,-4.1439,0.0,-4.3685,-4.426,-4.4862,-4.4831,-4.4703,-4.4502,-4.4064,-4.3776,-4.3628,-4.2441,-4.1657,-4.1381,-4.0577,-3.9566,-3.8384,-3.8321,-3.8031,-3.759,-3.7781,-3.8229,-3.881,-3.7624,-3.7822,-3.8766,-3.7243,-3.6802,-3.6991,-3.6802,-3.6422,-3.598,-3.5452,-3.4741,-3.3903,0.0,0.0,0.0,0.0,0.0,0.0,0.0,0.0,0.0,0.0,0.0,0.0,0.0,0.0,0.0,0.0,0.0,0.0,0.0,0.0,0.0,0.0,0.0,-0.8991,-0.972,-0.9845,-1.026,-1.0991,-1.0991,-1.1027,-1.1108,-1.0979,-1.0861,-1.0789,-1.0621,-1.0498,-1.0424,-1.0299,-1.0173,-1.0059,-1.0161,0.0,0.0,0.0,0.0,0.0,0.0,0.0,0.0,-1.4189,-1.4349,-1.4383,-1.4499,0.0,0.0,0.0,0.0,0.0,-1.6084,-1.6694,-1.7393,-1.7987,-1.8768,-1.9365,-1.9291,0.0,0.0,0.0,0.0,0.0,0.0,-2.5091,0.0,0.0,0.0,0.0,-3.3855,-3.4658,-3.589,-3.8613,-3.9976,0.0,-4.229,-4.2648,-4.3406,-4.4821,-4.4814,-4.4648,-4.4463,-4.4196,-4.3981,-4.3868,-4.2463,-4.1464,-4.1065,-4.022,-3.9166,-3.7919,-3.7857,-3.7669,-3.7254,-3.6829,-3.7388,-3.856,-3.736,-3.7888,-3.944,-3.7993,-3.7813,-3.8327,-3.6944,-3.6253,-3.5971,-3.5208,-3.4601,-3.4011,0.0,0.0,0.0,0.0,0.0,0.0,0.0,0.0,0.0,0.0,0.0,0.0,0.0,0.0,0.0,0.0,0.0,0.0,0.0,0.0,0.0,0.0,-0.9426,-0.9664,-1.0352,-1.039,-1.0599,-1.0991,-1.0932,-1.1003,-1.1192,-1.105,-1.092,-1.0801,-1.0705,-1.062,-1.056,-1.0498,-1.0374,-1.0262,-1.0287,0.0,0.0,0.0,0.0,0.0,0.0,0.0,0.0,-1.4332,-1.4541,-1.473,-1.4685,0.0,0.0,0.0,0.0,0.0,-1.6534,-1.7127,-1.7663,-1.8528,-1.9293,-1.9861,-2.0,0.0,0.0,0.0,0.0,0.0,0.0,-2.532,-2.7344,0.0,0.0,-3.3016,0.0,0.0,-3.8278,-4.0152,0.0,-4.3387,-4.3406,-4.4125,-4.4586,-4.4586,-4.4575,-4.4435,-4.4184,-4.3964,-4.3772,-4.3658,-4.1983,-4.103,-4.0853,-3.9544,-3.8421,-3.7485,-3.7261,-3.7328,-3.7636,-3.7416,-3.7701,-3.833,-3.7782,-3.8039,-3.8757,-3.752,-3.7178,-3.7337,-3.6359,-3.5737,-3.5329,-3.5192,-3.4721,-3.3914,0.0,0.0,0.0,0.0,0.0,0.0,0.0,0.0,0.0,0.0,0.0,0.0,0.0,0.0,0.0,0.0,0.0,0.0,0.0,0.0,0.0,-0.9831,-1.0008,-1.0219,-1.0485,-1.0424,-1.056,-1.0885,-1.0813,-1.0908,-1.1132,-1.1003,-1.0885,-1.0801,-1.0681,-1.062,-1.0597,-1.0498,-1.0387,-1.0299,0.0,0.0,0.0,0.0,0.0,0.0,0.0,0.0,0.0,0.0,-1.4683,-1.4793,-1.4761,0.0,0.0,0.0,0.0,0.0,-1.6718,-1.751,-1.828,-1.9305,-1.9771,-2.0179,0.0,0.0,0.0,0.0,0.0,0.0,0.0,0.0,-2.909,-3.0768,0.0,-3.4945,-3.7593,-3.869,-3.9566,0.0,0.0,-4.2717,-4.239,-4.2875,-4.3546,-4.4339,-4.4378,-4.435,-4.4196,-4.4121,-4.4023,-4.3864,-4.2539,-4.1548,-4.1025,-4.0127,-3.8898,-3.7417,-3.7405,-3.7495,-3.7699,-3.7762,-3.7892,-3.8108,-3.7824,-3.8152,-3.878,-3.7753,-3.7713,-3.8148,-3.6855,-3.6362,-3.6309,-3.5699,-3.4826,-3.3894,0.0,0.0,0.0,0.0,0.0,0.0,0.0,0.0,0.0,0.0,0.0,0.0,0.0,0.0,0.0,0.0,0.0,0.0,0.0,0.0,-0.9801,-0.9823,-1.0211,-1.0461,-1.051,-1.0374,-1.0449,-1.0741,-1.0717,-1.0849,-1.112,-1.0991,-1.092,-1.0861,-1.0729,-1.0644,-1.0621,-1.0498,-1.0374,-1.0275,0.0,0.0,0.0,0.0,0.0,0.0,0.0,0.0,0.0,0.0,0.0,0.0,0.0,0.0,0.0,-1.4839,-1.529,-1.599,-1.6874,-1.7749,-1.8691,-1.9886,0.0,0.0,0.0,0.0,0.0,0.0,0.0,0.0,0.0,-2.7975,0.0,-3.4064,-3.5703,-3.7208,-3.8807,-4.0087,-4.0939,-4.1092,-4.1893,-4.2306,-4.1955,-4.2154,-4.2847,-4.4169,-4.4281,-4.4281,-4.4253,-4.4265,-4.4253,-4.4155,-4.3144,-4.2195,-4.134,-4.07,-3.9443,-3.7581,-3.7814,-3.791,-3.7888,-3.7795,-3.7898,-3.8108,-3.791,-3.8148,-3.8656,-3.7986,-3.8073,-3.8473,-3.7207,-3.7022,-3.736,-3.6492,-3.5424,-3.4447,0.0,0.0,0.0,0.0,0.0,0.0,0.0,0.0,0.0,0.0,0.0,0.0,0.0,0.0,0.0,0.0,0.0,0.0,0.0,0.0,-0.9823,-0.9889,-0.993,-1.0149,-1.057,-1.0399,-1.0399,-1.0621,-1.0668,-1.0861,-1.1192,-1.112,-1.1073,-1.1062,-1.0932,-1.0801,-1.0681,-1.0621,-1.0437,-1.0224,-1.0337,0.0,0.0,0.0,0.0,0.0,0.0,0.0,0.0,0.0,0.0,0.0,0.0,0.0,-1.4967,-1.4903,-1.5068,-1.557,-1.6979,-1.7731,-1.8515,-2.0071,-2.0878,0.0,-2.1563,-2.228,0.0,-2.432,0.0,0.0,0.0,-3.0421,-3.3733,-3.6188,-3.8463,-4.039,-4.1641,0.0,-4.3036,-4.2672,-4.3535,-4.4016,-4.3731,-4.3975,-4.4107,-4.4109,-4.4224,-4.4253,-4.4126,-4.4224,-4.431,-4.4281,-4.3417,-4.254,-4.1683,-4.0646,-3.9446,-3.8151,-3.8469,-3.855,-3.84,-3.748,-3.7576,-3.8442,-3.8246,-3.801,-3.7782,-3.7737,-3.7375,-3.6881,-3.676,-3.7104,-3.7673,-3.7594,-3.7023,-3.6201,0.0,0.0,0.0,0.0,0.0,0.0,0.0,0.0,0.0,0.0,0.0,0.0,0.0,0.0,0.0,0.0,0.0,0.0,0.0,0.0,-1.034,-0.9914,-1.0301,-1.0592,-1.0777,-1.056,-1.0461,-1.0548,-1.0765,-1.0968,-1.1132,-1.1143,-1.1355,-1.1696,-1.123,-1.1448,-1.2106,-1.1564,-1.1439,-1.1575,-1.1575,-1.1255,0.0,0.0,0.0,0.0,0.0,0.0,0.0,0.0,-1.4702,-1.4839,0.0,-1.4856,-1.492,-1.4917,-1.504,-1.5512,-1.6899,-1.7898,-1.8808,-1.9905,-2.1648,0.0,0.0,-2.5209,-2.6817,-2.8628,-2.8556,0.0,0.0,0.0,-3.4762,-3.7431,-3.9417,-4.098,-4.2058,-4.2772,-4.3144,-4.3188,-4.3674,-4.3998,-4.3898,-4.3998,-4.4097,-4.4224,-4.435,-4.4491,-4.4648,-4.4703,-4.4703,-4.4592,-4.4165,-4.3244,-4.1832,-4.2209,-4.1208,-3.8816,-3.8703,-3.8672,-3.8748,-3.8557,-3.8544,-3.8654,-3.925,-3.92,-3.8652,-3.8107,-3.7822,-3.7679,-3.7546,-3.753,-3.7612,-3.7987,-3.7629,-3.6845,0.0,0.0,0.0,0.0,0.0,0.0,0.0,0.0,0.0,0.0,0.0,0.0,0.0,0.0,0.0,0.0,0.0,0.0,0.0,-1.06,-1.0669,-0.9994,-1.059,-1.0932,-1.0932,-1.0801,-1.0681,-1.056,-1.0801,-1.1003,-1.1169,-1.1391,-1.1727,-1.2149,-1.1944,-1.2177,-1.2696,-1.2391,-1.2248,-1.2183,-1.2358,-1.2098,0.0,0.0,0.0,0.0,0.0,0.0,0.0,0.0,-1.4407,-1.4513,0.0,0.0,-1.4694,-1.4937,-1.5322,-1.5928,-1.7025,-1.8227,-1.9372,-2.0297,0.0,0.0,-2.6105,-2.7633,-2.9321,-3.1422,-3.1825,-3.1792,-3.1808,0.0,0.0,0.0,-3.9735,-4.1003,-4.2538,-4.3149,-4.3468,-4.3608,-4.3853,-4.3998,-4.3985,-4.4056,-4.4184,-4.435,-4.4271,-4.4459,-4.4961,-4.4729,-4.463,-4.4803,-4.4676,-4.3827,-4.225,-4.3153,-4.226,-3.9624,-3.9424,-3.9124,-3.8827,-3.9114,-3.9109,-3.8914,-3.9776,-3.9818,-3.9237,-3.8644,-3.8373,-3.8259,-3.8126,-3.8046,-3.8099,-3.8622,-3.8237,-3.7404,0.0,0.0,0.0,0.0,0.0,0.0,0.0,0.0,0.0,0.0,0.0,0.0,0.0,0.0,0.0,0.0,0.0,0.0,-1.0452,-1.0714,-1.0669,-1.0138,-1.0682,-1.0991,-1.1003,-1.1204,-1.1108,-1.0693,-1.0765,-1.0982,-1.1322,-1.184,-1.2176,-1.2343,-1.3138,-1.299,-1.2182,-1.2987,-1.2705,-1.1786,-1.2458,-1.2635,-1.2576,0.0,0.0,0.0,0.0,0.0,0.0,0.0,-1.391,-1.391,0.0,0.0,0.0,-1.499,-1.5917,-1.683,-1.7439,-1.8748,-2.0225,-2.1425,0.0,0.0,-2.7943,-2.9157,-3.0172,-3.2055,-3.3733,-3.4388,-3.2973,-3.4095,0.0,-3.9124,-3.9668,-4.0668,-4.3415,-4.4093,-4.4253,-4.4126,-4.4224,-4.4253,-4.4126,-4.435,-4.4502,-4.4485,-4.3946,-4.3997,-4.4927,-4.4109,-4.3977,-4.4786,-4.4803,-4.4225,-4.302,-4.3144,-4.2338,-4.0617,-4.0762,-4.0049,-3.8616,-3.8827,-3.9023,-3.9234,-3.9646,-3.9624,-3.9317,-3.9317,-3.8904,-3.8292,-3.8228,-3.8626,-3.923,-3.9567,-3.9007,-3.8046,0.0,0.0,0.0,0.0,0.0,0.0,0.0,0.0,0.0,0.0,0.0,0.0,0.0,0.0,0.0,0.0,0.0,0.0,-1.1058,-1.1219,-1.1233,-1.1024,-1.1196,-1.133,-1.1421,-1.1433,-1.1307,-1.105,-1.1062,-1.1369,-1.1942,-1.214,-1.2774,-1.3704,-1.3703,-1.3999,-1.4498,-1.4397,-1.4249,-1.4097,-1.4206,-1.3905,-1.3481,0.0,0.0,0.0,0.0,0.0,0.0,0.0,0.0,0.0,0.0,0.0,0.0,-1.5255,-1.6039,-1.7061,-1.771,-1.988,0.0,-2.3503,0.0,0.0,0.0,-3.1617,0.0,0.0,-3.6473,-3.6339,-3.4695,-3.5733,0.0,-3.9291,-4.0024,-4.1116,-4.3339,-4.3415,-4.3397,-4.3839,-4.4051,-4.4155,-4.4097,-4.4253,-4.4215,-4.3895,-4.3836,-4.4006,-4.4492,-4.4233,-4.4299,-4.4786,-4.4803,-4.4225,-4.302,-4.3665,-4.3205,-4.1651,-4.1705,-4.1042,-3.9797,-3.9904,-4.0153,-4.0452,-4.048,-4.047,-4.0288,-3.9693,-3.8907,-3.8153,-3.8849,-3.9158,-3.9264,-3.9897,-3.9912,-3.9531,0.0,0.0,0.0,0.0,0.0,0.0,0.0,0.0,0.0,0.0,0.0,0.0,0.0,0.0,0.0,0.0,0.0,0.0,0.0,0.0,-1.1519,-1.1486,-1.1478,-1.1534,-1.1678,-1.1689,-1.1634,-1.1486,-1.1376,-1.154,-1.1973,-1.2258,-1.2961,-1.4015,-1.3919,-1.439,-1.5252,-1.5027,-1.4936,-1.4994,-1.5032,-1.4767,-1.4393,0.0,0.0,0.0,0.0,0.0,0.0,0.0,0.0,0.0,0.0,0.0,0.0,-1.623,-1.7269,-1.8498,-1.9206,-2.1327,0.0,-2.4778,-2.6133,-2.8173,-3.1972,0.0,0.0,0.0,-3.7802,-3.7969,-3.6484,-3.6971,0.0,-3.9707,-3.9864,-4.0513,-4.267,-4.2875,-4.3048,-4.3718,-4.3964,-4.4126,-4.4167,-4.4041,-4.3973,-4.4068,-4.3448,-4.3417,-4.4251,-4.4018,-4.3984,-4.431,-4.4623,-4.4333,-4.3359,-4.3977,-4.3676,-4.2461,-4.2515,-4.1976,-4.0917,-4.068,-4.0748,-4.0991,-4.0941,-4.0848,-4.0634,-3.9988,-3.9277,-3.8638,-3.898,-3.9011,-3.8956,-3.9162,-3.9364,-3.9451,0.0,0.0,0.0,0.0,0.0,0.0,0.0,0.0,0.0,0.0,0.0,0.0,0.0,0.0,0.0,0.0,0.0,0.0,0.0,0.0,-1.1626,-1.1626,-1.1612,-1.1667,-1.1805,-1.1912,-1.197,-1.1912,-1.1667,-1.1622,-1.1815,-1.2364,-1.3065,-1.3846,-1.4099,-1.4511,-1.5036,-1.5167,-1.5101,-1.4932,-1.5213,-1.5283,-1.5208,-1.5073,0.0,0.0,0.0,0.0,0.0,0.0,0.0,0.0,-1.3562,-1.492,-1.6843,-1.7566,-1.9012,-2.055,-2.1206,-2.2878,0.0,-2.5621,-2.7029,0.0,-3.3185,-3.5774,-3.7252,-3.6853,0.0,-3.9241,-3.8273,-3.7995,-3.8472,-4.0271,-3.943,-3.9408,-4.171,-4.2381,-4.292,-4.3589,-4.3864,-4.4021,-4.408,-4.3597,-4.3627,-4.4419,-4.28,-4.248,-4.4113,-4.35,-4.328,-4.3661,-4.4351,-4.4395,-4.3798,-4.4121,-4.3855,-4.302,-4.3093,-4.2729,-4.1977,-4.1231,-4.0929,-4.096,-4.1089,-4.0885,-4.042,-4.0204,-3.9876,-3.9403,-3.8849,-3.8571,-3.8477,-3.8038,-3.8071,-3.8366,0.0,0.0,0.0,0.0,0.0,0.0,0.0,0.0,0.0,0.0,0.0,0.0,0.0,0.0,0.0,0.0,0.0,0.0,0.0,0.0,-1.1816,-1.1757,-1.1718,-1.1729,-1.1805,-1.1826,-1.1902,-1.207,-1.1895,-1.2351,-1.3407,-1.3545,-1.4302,-1.5572,-1.5787,-1.5893,-1.5938,-1.6124,-1.5989,-1.566,-1.5579,-1.5463,-1.5329,-1.5223,-1.5178,0.0,0.0,0.0,0.0,0.0,0.0,0.0,-1.4167,-1.5728,-1.7568,-1.7621,-1.8963,-2.0441,-2.0581,-2.3303,0.0,0.0,-3.1307,-3.4538,-3.4063,-3.6283,-3.8663,-3.9472,-3.9724,-3.9774,-3.964,-3.9514,-3.9741,-4.0721,-3.9993,-3.9987,-4.1943,-4.1836,-4.1807,-4.2554,-4.2998,-4.3048,-4.26,-4.2561,-4.2407,-4.2158,-4.1835,-4.2124,-4.3219,-4.2615,-4.2903,-4.4253,-4.3904,-4.3463,-4.2965,-4.3738,-4.3815,-4.316,-4.2719,-4.2587,-4.2724,-4.1457,-4.0776,-4.0641,-4.1223,-4.0959,-4.0111,-4.0235,-3.9811,-3.9147,-3.9536,-3.9284,-3.8766,-3.9026,-3.8836,-3.8517,0.0,0.0,0.0,0.0,0.0,0.0,0.0,0.0,0.0,0.0,0.0,0.0,0.0,0.0,0.0,0.0,0.0,0.0,0.0,0.0,0.0,-1.1891,-1.1837,-1.1859,-1.1991,-1.1986,-1.206,-1.22,-1.253,-1.3078,0.0,0.0,0.0,-1.5869,-1.6037,-1.6148,-1.6231,-1.6024,-1.5953,-1.597,-1.5711,-1.5595,-1.5566,-1.5328,-1.5268,-1.5298,-1.5222,0.0,0.0,0.0,0.0,0.0,0.0,0.0,-1.7844,-1.7845,-1.8817,-2.0242,-2.1723,0.0,0.0,-2.9413,0.0,-3.6055,-3.4527,-3.6582,-3.8966,-3.9561,-3.9859,-4.0011,-4.0087,-4.0037,-4.0095,-4.0327,-3.9945,-3.9974,-4.1094,-4.0934,-4.0991,-4.1877,-4.2131,-4.2234,-4.2203,-4.1876,-4.1762,-4.2014,-4.175,-4.1867,-4.2496,-4.2553,-4.2843,-4.3436,-4.3337,-4.3211,-4.3149,-4.3286,-4.3263,-4.3105,-4.2431,-4.1969,-4.1699,-4.1428,-4.1177,-4.0928,-4.15,-4.1267,-4.0558,-4.0904,-4.0651,-4.0027,-4.0222,-3.9685,-3.8769,-3.8539,-3.8192,-3.7945,0.0,0.0,0.0,0.0,0.0,0.0,0.0,0.0,0.0,0.0,0.0,0.0,0.0,0.0,0.0,0.0,0.0,0.0,0.0,0.0,0.0,0.0,-1.1933,-1.198,-1.219,-1.2179,-1.2205,-1.2313,0.0,0.0,0.0,0.0,0.0,-1.6111,0.0,-1.6428,-1.6376,-1.5952,-1.5883,-1.6095,-1.5798,-1.5711,-1.577,-1.5448,-1.5401,-1.5473,-1.5312,-1.5341,-1.5443,-1.5312,0.0,0.0,0.0,0.0,-1.7875,-1.7989,-1.8668,-1.9961,-2.2771,0.0,-2.7143,-3.1183,-3.4292,0.0,-3.5088,-3.6932,-3.8848,-3.8823,-3.9513,-4.0096,-4.0096,-4.0087,-3.9986,-3.9781,-3.9677,-3.9744,-4.0056,-4.0099,-4.0425,-4.1239,-4.1294,-4.1455,-4.1852,-4.1242,-4.1219,-4.2176,-4.1724,-4.1542,-4.1901,-4.2496,-4.2749,-4.2479,-4.2835,-4.3158,-4.3442,-4.2875,-4.2682,-4.2847,-4.2055,-4.1182,-4.021,-4.1196,-4.1413,-4.0966,-4.163,-4.1511,-4.0878,-4.1464,-4.143,-4.1021,-4.0734,-4.0006,-3.8992,-3.7971,-3.7471,-3.7376,0.0,0.0,0.0,0.0,0.0,0.0,0.0,0.0,0.0,0.0,0.0,0.0,0.0,0.0,0.0,0.0,0.0,0.0,0.0,0.0,0.0,-1.2174,-1.1944,-1.1902,-1.2112,-1.2054,-1.2128,-1.2313,0.0,0.0,0.0,0.0,0.0,-1.8148,0.0,0.0,-1.6857,-1.7343,-1.7024,-1.618,-1.6011,-1.5884,-1.5784,-1.5566,-1.58,-1.6193,-1.5713,-1.5785,-1.6025,-1.5668,-1.5477,0.0,0.0,0.0,-1.765,-1.7731,-1.8409,-1.951,0.0,0.0,-2.9613,0.0,-3.5402,-3.6791,0.0,0.0,-3.9103,0.0,-3.9563,-4.0096,-4.0096,-4.0011,-3.9926,-3.9875,-3.959,-3.952,-4.0028,-4.0099,-4.016,-4.027,-4.0646,-4.0709,-4.0254,-4.0214,-4.0273,-4.0451,-4.0467,-4.0813,-4.1619,-4.1469,-4.195,-4.3206,-4.2925,-4.2782,-4.2808,-4.2912,-4.2685,-4.2213,-4.1339,-4.0485,-3.9631,-4.0651,-4.0512,-3.9583,-4.1325,-4.1167,-3.9803,-4.0595,-4.0912,-4.0833,-4.0801,-4.061,-4.0228,-3.9153,-3.8338,-3.7776,0.0,0.0,0.0,0.0,0.0,0.0,0.0,0.0,0.0,0.0,0.0,0.0,0.0,0.0,0.0,0.0,0.0,0.0,0.0,0.0,0.0,-1.2179,-1.2018,-1.1986,-1.2143,-1.2123,-1.2221,0.0,0.0,0.0,0.0,-1.9392,-2.0028,0.0,0.0,0.0,0.0,-1.8444,-1.8159,-1.7491,-1.7389,-1.7301,-1.7136,-1.6563,-1.6727,-1.7174,-1.6623,-1.6774,-1.7114,-1.6518,-1.6323,-1.6204,-1.5743,0.0,0.0,0.0,-1.7061,-1.8115,-2.1547,-2.597,-3.0149,0.0,-3.4091,-3.5295,-3.5163,0.0,-3.7706,-3.7569,-3.8231,-3.9106,-3.996,-3.9986,-3.9901,-3.9901,-3.9616,-3.9495,-3.973,-3.96,-3.9545,-3.9752,-3.9887,-3.994,-3.9909,-3.9935,-4.0037,-4.0188,-4.0654,-4.0966,-4.1079,-4.1138,-4.1474,-4.2168,-4.1654,-4.1559,-4.1974,-4.1576,-4.1366,-4.1376,-4.1067,-4.0668,-4.0241,-4.0922,-4.0516,-3.9379,-4.0906,-4.0992,-4.0167,-4.0737,-4.0912,-4.0865,-4.147,-4.1039,-4.0135,-3.9848,-3.928,-3.8684,0.0,0.0,0.0,0.0,0.0,0.0,0.0,0.0,0.0,0.0,0.0,0.0,0.0,0.0,0.0,0.0,0.0,0.0,0.0,0.0,0.0,-1.2205,-1.2102,-1.2117,-1.2226,-1.2226,0.0,0.0,0.0,0.0,-1.8672,-2.0827,-2.2057,0.0,-2.1661,0.0,0.0,0.0,0.0,0.0,-1.917,-1.9092,-1.8656,-1.861,-1.8899,-1.9305,-1.9059,-1.9119,-1.9229,-1.8436,-1.7792,-1.7136,-1.6292,-1.5933,0.0,0.0,0.0,0.0,0.0,0.0,-2.8645,-3.0054,-3.1358,-3.2529,0.0,0.0,-3.5872,0.0,-3.7222,-3.8244,-3.9351,-3.9581,-3.9631,-3.9631,-3.94,-3.9151,-3.8899,-3.8656,-3.8669,-3.907,-3.9086,-3.9258,-3.9755,-3.9849,-3.9977,-4.0163,-4.0747,-4.0916,-4.0585,-4.0841,-4.1066,-4.1152,-4.0761,-4.0834,-4.1538,-4.0741,-4.0485,-4.0799,-4.0915,-4.099,-4.1046,-4.146,-4.0881,-3.9621,-4.0498,-4.0688,-4.0436,-4.0848,-4.1087,-4.1215,-4.2093,-4.1628,-4.0434,-4.0293,-3.9866,-3.9408,0.0,0.0,0.0,0.0,0.0,0.0,0.0,0.0,0.0,0.0,0.0,0.0,0.0,0.0,-1.4966,-1.4908,0.0,0.0,0.0,0.0,0.0,-1.2205,-1.2179,0.0,-1.2287,-1.2287,0.0,0.0,0.0,0.0,-1.873,-2.0894,-2.2369,-2.3216,-2.2466,-2.1181,-1.9664,0.0,0.0,0.0,-2.1151,-2.1038,-1.9862,0.0,-2.3059,-2.338,-2.385,-2.3591,-2.2875,-2.1939,-2.0079,-1.8023,-1.7331,-1.6599,-1.5996,0.0,0.0,0.0,0.0,-2.2102,0.0,-2.6141,-2.7178,0.0,0.0,0.0,-3.3984,-3.6148,-3.7287,-3.7922,-3.8007,-3.8477,-3.8849,-3.8849,-3.8631,-3.8134,-3.7251,-3.7159,-3.7432,-3.7995,-3.8297,-3.8718,-3.9444,-3.9746,-3.9901,-3.9926,-4.0071,-4.0146,-4.0121,-4.0373,-4.0685,-4.0985,-4.1111,-4.138,-4.1877,-4.1248,-4.0906,-4.0799,-4.0826,-4.1113,-4.1677,-4.2067,-4.1432,-4.0071,-4.0189,-4.0092,-3.988,-4.0547,-4.1295,-4.2061,-4.2302,-4.2333,-4.2076,-4.0572,-3.983,-3.9566,0.0,0.0,0.0,0.0,0.0,0.0,0.0,0.0,0.0,0.0,0.0,0.0,0.0,-1.4927,-1.5064,-1.5011,-1.4374,0.0,0.0,0.0,0.0,-1.2266,-1.2256,-1.2256,-1.2236,-1.2323,0.0,0.0,0.0,-1.7239,-1.7904,-2.0058,-2.1539,-2.24,-2.2252,-2.2015,-2.1748,-2.2171,0.0,0.0,-2.2866,-2.2992,-2.2767,0.0,0.0,0.0,0.0,0.0,-2.4214,-2.3068,-2.1798,-2.0383,-1.8547,-1.8099,-1.8053,-1.7041,-1.7559,0.0,0.0,0.0,0.0,-2.4122,-2.5551,-2.6909,-2.8044,-2.9847,-3.1492,-3.2262,-3.3064,-3.4032,-3.5453,-3.701,-3.8125,-3.8215,-3.8002,-3.7703,-3.7369,-3.7278,-3.7294,-3.7415,-3.7525,-3.7884,-3.8702,-3.8888,-3.8965,-3.9067,-3.9538,-3.9665,-3.9294,-3.9556,-3.9867,-4.0158,-4.0053,-4.0132,-4.0481,-4.0735,-4.1141,-4.1638,-4.2026,-4.2339,-4.2551,-4.2677,-4.2029,-4.0802,-4.082,-4.048,-3.9939,-4.0348,-4.0861,-4.1549,-4.2236,-4.2265,-4.1796,-4.1002,-4.0686,-4.0606,0.0,0.0,0.0,0.0,0.0,0.0,0.0,0.0,0.0,0.0,0.0,0.0,0.0,0.0,-1.5666,-1.5528,-1.4731,-1.407,-1.3663,-1.3045,-1.2577,-1.2313,-1.2323,-1.2313,-1.2266,0.0,0.0,0.0,0.0,0.0,0.0,-1.8805,-2.0259,-2.1083,-2.1475,-2.2113,0.0,0.0,0.0,-2.3611,-2.4852,-2.5141,-2.4982,0.0,0.0,0.0,0.0,0.0,0.0,-2.6267,-2.4588,-2.2548,-2.0336,-1.9217,-1.8517,-1.7379,-1.7391,0.0,-1.8433,0.0,0.0,0.0,0.0,-2.3867,-2.4946,-2.6773,-2.845,-2.9158,-3.0511,-3.2002,-3.3427,-3.5492,-3.7118,-3.7483,-3.7326,-3.7097,-3.687,-3.6716,-3.667,-3.6779,-3.6788,-3.7095,-3.7902,-3.8227,-3.8479,-3.8581,-3.925,-3.9476,-3.9127,-3.9244,-3.9405,-3.9642,-3.9573,-3.9625,-3.9755,-4.051,-4.1157,-4.1654,-4.2272,-4.2568,-4.2568,-4.2495,-4.2043,-4.1352,-4.1238,-4.0952,-4.0535,-4.0612,-4.1,-4.158,-4.2267,-4.228,-4.1842,-4.1157,-4.0934,-4.0838,0.0,0.0,0.0,0.0,0.0,0.0,0.0,0.0,0.0,0.0,0.0,0.0,0.0,0.0,0.0,-1.6528,-1.577,-1.5027,-1.4367,-1.3705,-1.3039,-1.239,0.0,0.0,0.0,0.0,0.0,0.0,0.0,0.0,0.0,0.0,-1.865,-1.9394,-2.02,-2.1381,-2.2798,0.0,-2.3718,-2.3856,0.0,-2.7413,-2.6384,0.0,0.0,0.0,-3.4449,-3.3888,0.0,-3.172,0.0,0.0,-2.2712,-1.9894,-1.7209,-1.7045,-1.6689,0.0,0.0,0.0,0.0,0.0,0.0,0.0,-2.2182,0.0,-2.5024,-2.7196,-3.0104,-3.2219,-3.2126,-3.3997,-3.5808,-3.6609,-3.6652,-3.6323,-3.5593,-3.54,-3.5512,-3.6087,-3.6171,-3.6405,-3.7003,-3.7826,-3.837,-3.8514,-3.9096,-3.947,-3.961,-3.9425,-3.9352,-3.9501,-3.9884,-4.0037,-3.9901,-4.0615,-4.0932,-4.0799,-4.1405,-4.1699,-4.1694,-4.1526,-4.1543,-4.1716,-4.1418,-4.1426,-4.1628,-4.1412,-4.1769,-4.2413,-4.2413,-4.2476,-4.2424,-4.1031,-4.0439,-4.0224,0.0,0.0,0.0,0.0,0.0,0.0,0.0,0.0,0.0,0.0,0.0,0.0,-1.7274,-1.7409,-1.7217,-1.6561,-1.5811,-1.5254,-1.497,-1.4467,-1.4053,-1.3831,-1.3933,0.0,0.0,0.0,0.0,0.0,0.0,0.0,0.0,0.0,0.0,0.0,-1.9416,-2.055,-2.1886,-2.3341,0.0,-2.5547,-2.7322,-2.8561,0.0,0.0,0.0,0.0,0.0,-3.4519,-3.3055,0.0,-3.1252,-2.8253,0.0,0.0,0.0,-1.7361,0.0,0.0,-1.716,0.0,0.0,0.0,0.0,0.0,0.0,0.0,-2.5094,-2.6237,-2.8921,-3.1348,-3.229,-3.3512,-3.4575,-3.5188,-3.5611,-3.5785,-3.5548,-3.5469,-3.5421,-3.5411,-3.5404,-3.564,-3.6241,-3.6514,-3.6655,-3.658,-3.731,-3.7741,-3.7673,-3.8709,-3.9352,-3.9501,-3.9616,-3.9694,-3.9755,-4.0378,-4.0735,-4.0799,-4.1261,-4.1554,-4.1727,-4.2187,-4.238,-4.2311,-4.3015,-4.316,-4.2862,-4.199,-4.2017,-4.2539,-4.2539,-4.2665,-4.2628,-4.0956,-4.0792,-4.1172,0.0,0.0,0.0,0.0,0.0,0.0,0.0,0.0,0.0,0.0,0.0,0.0,-1.7671,-1.7624,-1.7282,-1.6483,-1.5998,-1.5632,-1.5338,-1.5028,-1.4718,-1.4456,-1.4491,-1.4515,0.0,0.0,0.0,0.0,0.0,0.0,0.0,0.0,0.0,0.0,0.0,0.0,0.0,0.0,0.0,0.0,-2.8069,0.0,0.0,-3.2516,-3.3564,0.0,0.0,0.0,-3.5101,-3.5488,-3.3319,0.0,0.0,0.0,0.0,0.0,0.0,0.0,0.0,0.0,0.0,0.0,0.0,0.0,-1.8214,-2.0908,-2.3542,-2.3878,-2.6423,-2.911,-3.0778,-3.181,-3.2843,-3.4161,-3.4593,-3.4994,-3.5621,-3.5656,-3.5543,-3.5344,-3.5228,-3.5318,-3.568,-3.5834,-3.5918,-3.5951,-3.6571,-3.7056,-3.7343,-3.8659,-3.9422,-3.9501,-3.9537,-3.959,-3.9616,-4.0261,-4.045,-4.0188,-4.0713,-4.0884,-4.0729,-4.1449,-4.1875,-4.2104,-4.3024,-4.3281,-4.2983,-4.2304,-4.2248,-4.2602,-4.2696,-4.2696,-4.2536,-4.1295,-4.1195,-4.1525,0.0,0.0,0.0,0.0,0.0,0.0,0.0,0.0,0.0,0.0,0.0,0.0,0.0,0.0,-1.728,-1.6499,-1.6308,-1.6072,-1.5741,-1.5529,-1.5233,-1.4731,-1.4648,-1.4648,-1.4711,0.0,0.0,0.0,0.0,0.0,0.0,0.0,0.0,0.0,0.0,0.0,0.0,0.0,0.0,-2.661,-2.9231,-3.0417,0.0,0.0,-3.5191,-3.5266,-3.8008,-3.8413,-3.7778,-3.8202,-3.488,0.0,0.0,0.0,0.0,0.0,-1.9718,0.0,0.0,0.0,0.0,0.0,-1.8256,0.0,-1.7631,-1.9605,-2.1583,-2.1443,-2.3857,-2.6582,-2.8575,-2.9583,-3.0802,-3.2934,-3.3345,-3.398,-3.5655,-3.5701,-3.553,-3.5487,-3.5233,-3.5073,-3.5128,-3.5404,-3.5679,-3.5989,-3.6363,-3.6943,-3.7748,-3.8778,-3.9358,-3.9358,-3.954,-3.9616,-3.9475,-4.0097,-4.0026,-3.9272,-3.9934,-3.9901,-3.9288,-4.0117,-4.0829,-4.1458,-4.2204,-4.2518,-4.2518,-4.2307,-4.2297,-4.2438,-4.266,-4.2583,-4.2283,-4.1746,-4.1644,-4.1659,0.0,0.0,0.0,0.0,0.0,0.0,0.0,0.0,0.0,0.0,0.0,0.0,0.0,0.0,0.0,0.0,-1.6668,-1.6514,-1.7075,-1.6573,-1.6213,-1.6048,-1.6019,-1.6019,-1.6019,0.0,0.0,0.0,0.0,0.0,0.0,0.0,0.0,0.0,0.0,0.0,0.0,0.0,0.0,-2.784,-3.0925,-3.3594,-3.5893,-3.7917,-3.8933,-3.9401,-4.0358,-4.0517,-4.0092,-3.9009,-3.5887,-3.1907,0.0,0.0,0.0,-2.1065,0.0,0.0,0.0,0.0,0.0,0.0,-1.8961,0.0,-1.7942,-2.045,-2.3076,-2.3371,-2.5374,-2.7381,-2.8336,-2.8747,-2.9023,-2.9265,-3.0914,-3.2874,-3.4922,-3.4533,-3.4194,-3.4663,-3.4054,-3.3734,-3.4057,-3.406,-3.4239,-3.4783,-3.5547,-3.61,-3.6373,-3.7698,-3.8453,-3.8453,-3.9053,-3.9379,-3.9325,-3.9324,-3.9226,-3.905,-3.9199,-3.9199,-3.91,-4.0558,-4.1293,-4.1458,-4.2363,-4.2708,-4.2625,-4.2031,-4.1626,-4.1341,-4.1671,-4.1837,-4.1882,-4.1491,-4.189,-4.2528,0.0,0.0,0.0,0.0,0.0,0.0,0.0,0.0,0.0,0.0,0.0,0.0,0.0,0.0,0.0,0.0,0.0,0.0,0.0,-1.791,-1.7519,-1.7011,-1.6569,-1.6382,-1.645,-1.6488,0.0,0.0,0.0,0.0,0.0,0.0,0.0,0.0,0.0,0.0,0.0,0.0,-2.6429,-2.9592,-3.1838,0.0,-3.6224,-3.8305,-3.9221,-3.9563,-4.0807,-4.1529,-4.1603,-3.9675,-3.7269,0.0,-3.0162,-2.7665,-2.571,0.0,-2.2382,-2.2812,0.0,0.0,0.0,-2.0193,-1.9817,0.0,0.0,-2.063,-2.267,-2.2901,-2.3993,-2.535,-2.6829,-2.627,-2.5967,-2.7075,-2.849,-2.9988,-3.1539,-3.2916,-3.3874,-3.4216,-3.363,-3.3398,-3.3906,-3.3697,-3.3782,-3.4448,-3.5309,-3.5844,-3.5992,-3.7052,-3.7831,-3.8195,-3.856,-3.8881,-3.9148,-3.9148,-3.9094,-3.8996,-3.8996,-3.8996,-3.9045,-4.0606,-4.1295,-4.1328,-4.2278,-4.2434,-4.2036,-4.1687,-4.0938,-4.0118,-4.1281,-4.1626,-4.1476,-4.1753,-4.2201,-4.2601,0.0,0.0,0.0,0.0,0.0,0.0,0.0,0.0,0.0,0.0,0.0,0.0,0.0,0.0,0.0,0.0,0.0,0.0,0.0,0.0,-1.9511,-1.8548,-1.7232,-1.6694,-1.7056,-1.6665,-1.6501,0.0,0.0,0.0,0.0,0.0,0.0,0.0,0.0,0.0,0.0,0.0,0.0,-3.1029,0.0,-3.412,-3.5555,-3.8134,-3.9083,-3.9328,-4.1231,-4.2132,-4.2122,-4.009,-3.8273,-3.6042,-3.1331,-2.9571,0.0,0.0,0.0,0.0,0.0,0.0,0.0,0.0,0.0,-2.0376,0.0,0.0,0.0,-2.1701,-2.19,-2.2722,-2.4703,0.0,0.0,-2.4787,0.0,0.0,0.0,-3.0006,0.0,-3.3188,-3.2777,-3.2698,-3.3399,-3.2988,-3.3034,-3.3849,-3.4469,-3.4903,-3.5148,-3.6257,-3.7235,-3.7954,-3.8146,-3.8464,-3.905,-3.9148,-3.9121,-3.8969,-3.8958,-3.8914,-3.8964,-4.0318,-4.0967,-4.1045,-4.1725,-4.1744,-4.1221,-4.1061,-4.0233,-3.9237,-4.1074,-4.1476,-4.1067,-4.1738,-4.214,-4.2333,-1.5971,-1.5927,0.0,0.0,0.0,0.0,0.0,0.0,0.0,0.0,0.0,0.0,0.0,0.0,0.0,0.0,0.0,0.0,-2.4328,0.0,0.0,0.0,-1.8944,-1.7907,-1.9045,-1.7274,-1.638,0.0,0.0,0.0,0.0,0.0,0.0,0.0,-2.04,0.0,0.0,0.0,-2.8253,0.0,-3.4017,-3.5802,0.0,-3.9812,-4.1302,-4.2044,-4.3588,-4.28,-4.0866,-3.983,-3.795,-3.5588,0.0,-3.1227,-2.9683,-2.7676,0.0,0.0,0.0,0.0,0.0,0.0,-2.1917,-2.1644,-2.1381,0.0,-2.1345,-2.1012,0.0,-2.134,-2.226,0.0,0.0,0.0,-2.2163,-2.2846,-2.1832,-2.4224,-2.723,-3.0267,-3.0043,-3.0048,-3.1072,-3.0536,-3.0572,-3.1654,-3.1406,-3.1468,-3.2154,-3.4691,-3.6456,-3.7201,-3.7864,-3.856,-3.9255,-3.8969,-3.8832,-3.8832,-3.8683,-3.8644,-3.8676,-3.9628,-4.0102,-4.0214,-4.0341,-4.0508,-4.0629,-3.9856,-3.9421,-3.9394,-4.0573,-4.0847,-4.0568,-4.0496,-4.1146,-4.2046,-1.5983,-1.5955,0.0,0.0,0.0,0.0,0.0,0.0,0.0,0.0,0.0,0.0,0.0,0.0,0.0,0.0,0.0,-2.8604,-2.6996,0.0,0.0,0.0,-2.016,-1.8621,-1.9782,-1.7962,-1.7219,0.0,-1.7601,0.0,0.0,0.0,0.0,0.0,-2.1097,0.0,-2.7165,0.0,-3.0698,0.0,0.0,-3.7453,0.0,-3.9394,-4.0701,-4.2104,-4.3762,-4.3104,-4.1418,-4.1289,-3.9367,-3.6821,-3.5817,0.0,0.0,-2.9697,0.0,0.0,0.0,0.0,0.0,0.0,-2.3307,-2.2489,-2.2086,-2.1632,-2.1243,-2.1135,0.0,0.0,0.0,0.0,0.0,0.0,-2.0543,-2.0663,-2.0125,0.0,-2.3566,-2.6285,-2.6718,-2.704,-2.7596,-2.7741,-2.7944,-2.8303,-2.9486,-3.0436,-3.0983,-3.3443,-3.5328,-3.6439,-3.7185,-3.793,-3.8642,-3.895,-3.904,-3.8914,-3.8711,-3.86,-3.8621,-3.9337,-3.9789,-3.9987,-4.0071,-4.0255,-4.0447,-4.0105,-3.9696,-3.9421,-4.0706,-4.0631,-3.99,-4.0126,-4.0488,-4.0894,-1.6168,0.0,0.0,0.0,0.0,0.0,0.0,0.0,0.0,0.0,0.0,0.0,-2.8009,-2.9028,0.0,0.0,-3.2473,-3.2385,-3.0583,0.0,-2.7679,0.0,0.0,0.0,0.0,-1.9522,-1.8473,-1.9009,-1.8355,0.0,0.0,0.0,0.0,0.0,0.0,-2.4438,-2.8219,0.0,-3.1965,-3.6183,-3.7607,-3.8631,-3.9323,-3.9781,-4.0613,-4.1827,-4.3696,-4.316,-4.1626,-4.174,-4.028,-3.8297,-3.7709,-3.5448,-3.2894,0.0,0.0,0.0,-2.8367,-2.7811,-2.7146,-2.6395,-2.4904,-2.3494,-2.3051,-2.2148,-2.1392,-2.1279,-2.1433,0.0,0.0,0.0,0.0,0.0,0.0,-1.9173,0.0,-1.9342,-2.0929,-2.3102,-2.4222,-2.4818,-2.4913,-2.5036,-2.5177,-2.5311,-2.7476,-2.8787,-2.8802,-3.2162,-3.4405,-3.5089,-3.6232,-3.7293,-3.8195,-3.8699,-3.8939,-3.8942,-3.8667,-3.8516,-3.8492,-3.8885,-3.9226,-3.9495,-3.9579,-3.9775,-4.0012,-4.0012,-3.9725,-3.9398,-4.0431,-4.0191,-3.9361,-3.9812,-3.9989,-4.0,-1.6523,-1.6275,0.0,0.0,0.0,0.0,0.0,0.0,0.0,0.0,0.0,0.0,0.0,0.0,0.0,0.0,0.0,-3.8558,-3.6097,-3.4853,-3.388,0.0,0.0,-2.5385,0.0,0.0,-2.0023,-2.0041,-1.9766,-1.9673,0.0,0.0,0.0,0.0,0.0,-2.391,-2.5959,-2.8305,-3.0904,-3.3699,-3.6917,-3.91,-4.059,-4.2033,-4.2181,-4.1852,-4.3789,-4.2907,-4.0752,-4.0193,-3.9931,-3.9535,-3.7827,-3.6788,-3.6027,-3.5266,-3.3534,-3.165,-3.074,-2.9957,-2.9259,-2.8656,-2.6705,-2.4885,-2.459,-2.319,-2.1818,-2.123,-2.1262,-2.1402,-2.1402,0.0,0.0,0.0,0.0,0.0,0.0,-1.7179,-1.9439,-2.1538,-2.3107,-2.3946,-2.3676,-2.2565,-2.2276,-2.3315,-2.4961,-2.5504,-2.4558,-3.072,-3.3851,-3.2934,-3.5058,-3.6862,-3.8195,-3.8097,-3.8311,-3.8805,-3.8516,-3.8351,-3.8209,-3.8036,-3.8139,-3.8468,-3.8452,-3.8676,-3.9029,-3.9029,-3.9137,-3.9299,-3.9348,-3.9224,-3.9029,-3.9406,-3.965,-3.9673,0.0,0.0,0.0,0.0,0.0,0.0,0.0,-2.3638,-2.6003,-2.6895,-2.9752,-3.2694,-3.528,-3.6488,-3.7586,-3.8712,-3.8617,-3.827,-3.7703,-3.5301,0.0,-3.5211,-2.9671,-2.7099,0.0,0.0,-2.153,-2.2556,-2.0687,-2.0273,0.0,0.0,0.0,0.0,0.0,-2.4347,0.0,0.0,0.0,0.0,0.0,-4.1194,-4.2123,-4.2958,-4.2594,-4.1852,-4.3789,-4.3221,-4.1626,-4.2318,-4.1358,-4.005,-4.0883,-3.9466,-3.7464,-3.736,-3.5652,-3.3748,-3.3508,-3.2437,-3.1286,-3.0663,-2.886,-2.7008,-2.6079,-2.5027,-2.4216,-2.4098,-2.4459,-2.4419,-2.3211,0.0,0.0,0.0,0.0,0.0,0.0,-1.7418,-1.8075,-1.8305,-1.9052,-1.9563,-1.9556,-1.9608,-1.9719,-1.9846,-2.182,-2.3673,-2.5153,-2.8678,-3.1586,-3.3606,-3.4845,-3.6066,-3.7338,-3.7781,-3.8214,-3.8655,-3.8331,-3.8262,-3.8323,-3.7934,-3.8049,-3.8548,-3.842,-3.8628,-3.8996,-3.8996,-3.9121,-3.9348,-3.9846,-3.9621,-3.8975,-3.8837,-3.8721,-3.8667,-1.9171,0.0,0.0,0.0,0.0,0.0,-2.1766,-2.5026,-2.7883,-2.9238,-3.1844,-3.466,-3.7484,-3.8136,-3.8775,-3.977,-3.9382,-3.9164,-3.9381,-3.6764,0.0,-3.7288,-3.2584,-3.028,0.0,0.0,-2.4481,-2.5195,-2.2167,-2.1166,0.0,0.0,0.0,0.0,0.0,-2.4116,-2.6451,-2.8609,-3.2149,0.0,0.0,-4.2714,0.0,-4.4208,-4.326,-4.1569,-4.3831,-4.3686,-4.2551,-4.3494,-4.2626,-4.144,-4.2657,-4.1374,-3.9421,-3.9525,-3.8217,-3.6761,-3.6717,-3.5555,-3.4176,-3.3501,-3.1874,-3.0122,-2.8683,-2.7923,-2.7421,-2.7058,-2.678,-2.6231,-2.4968,0.0,0.0,0.0,0.0,0.0,0.0,-1.7584,-1.7211,-1.7049,-1.7281,-1.7471,-1.7558,-1.7986,-1.8247,-1.8275,-2.0414,-2.2207,-2.3334,-2.6657,-2.9267,-3.0914,-3.2634,-3.4263,-3.5787,-3.6479,-3.7311,-3.828,-3.8173,-3.816,-3.8193,-3.7817,-3.7905,-3.8335,-3.825,-3.846,-3.8849,-3.8849,-3.8985,-3.9224,-3.9704,-3.9577,-3.91,-3.8921,-3.8633,-3.8379,0.0,0.0,0.0,0.0,-2.118,-2.2524,-2.2655,-2.6865,-3.0527,-3.1871,-3.5842,-3.9071,-4.0424,-4.1165,-4.1648,-4.1797,-4.1503,-4.1283,-4.1186,-3.9255,0.0,0.0,-3.6294,-3.4694,-3.5006,0.0,0.0,0.0,-2.4211,-2.2407,0.0,0.0,0.0,0.0,-2.2182,0.0,-2.4374,-2.6894,-3.0307,-3.4619,-4.1081,-4.3351,-4.3151,-4.5575,-4.4119,-4.1143,-4.3856,-4.4234,-4.3462,-4.3585,-4.3628,-4.3539,-4.3054,-4.2427,-4.1827,-4.1642,-4.1079,-4.0485,-4.0137,-3.9022,-3.7745,-3.6905,-3.5526,-3.3969,-3.2215,-3.1686,-3.1182,-2.9952,-2.8275,-2.6915,-2.6587,-2.4247,0.0,0.0,0.0,0.0,0.0,0.0,-1.6932,-1.7776,-1.7771,-1.7694,-1.7694,-1.768,-1.7924,-1.8558,-2.0543,-2.104,-1.9424,-2.4684,-2.7012,-2.5414,-2.8751,-3.1565,-3.3657,-3.431,-3.5654,-3.7631,-3.7943,-3.8046,-3.7905,-3.7628,-3.7642,-3.7905,-3.7889,-3.8164,-3.8588,-3.8604,-3.8766,-3.8996,-3.8996,-3.9137,-3.9351,-3.9584,-3.9282,-3.8814,-2.0457,-2.0559,-2.0977,-2.1845,-2.3648,-2.4998,-2.5016,-2.9146,-3.2995,-3.5025,-3.6933,-3.894,-4.1209,-4.1353,-4.1453,-4.178,-4.0687,-4.0262,0.0,0.0,0.0,-3.9866,-3.6871,-3.5644,-3.6649,-3.1854,-3.0,-3.1334,0.0,0.0,-2.4875,0.0,0.0,0.0,0.0,0.0,-2.3144,-2.5982,-3.0661,-3.6446,-3.9319,-4.0824,-4.1616,-4.3988,-4.3681,-4.2267,-4.4458,-4.4797,-4.4193,-4.403,-4.3805,-4.3568,-4.3358,-4.2984,-4.2509,-4.191,-4.1436,-4.1045,-4.0876,-3.9729,-3.8492,-3.8108,-3.6999,-3.5625,-3.4118,-3.3646,-3.333,-3.2546,-3.1165,-2.9683,-2.8345,-2.6298,-2.4017,0.0,0.0,0.0,0.0,0.0,0.0,-1.8736,-1.8171,-1.7753,-1.7695,-1.8267,-1.8654,-1.867,-1.9151,-1.9963,-2.1127,-2.301,-2.4782,-2.637,-2.7802,-2.9655,-3.1995,-3.3158,-3.4742,-3.6727,-3.7552,-3.8004,-3.8107,-3.7687,-3.7746,-3.8107,-3.7963,-3.8164,-3.8616,-3.8711,-3.8832,-3.8996,-3.8996,-3.9314,-3.9724,-3.9548,-3.9149,-3.8814,-2.2556,0.0,0.0,-2.281,-2.5749,-2.7815,-2.7296,-3.056,-3.4082,-3.6827,-3.8178,-3.9594,-4.1486,-4.1498,-4.1475,-4.1692,-4.0966,-4.0764,-4.138,0.0,0.0,-4.1223,-3.8507,-3.7543,-3.8768,-3.4742,0.0,-3.342,0.0,0.0,-2.5707,0.0,0.0,0.0,0.0,-2.2409,-2.3375,-2.7318,-3.2084,-3.7163,-3.9517,-4.1234,0.0,-4.4711,-4.4876,-4.4198,-4.5265,-4.5266,-4.4659,-4.431,-4.4023,-4.3776,-4.3568,-4.3328,-4.3003,-4.2441,-4.2158,-4.1942,-4.1739,-4.0974,-4.0211,-4.0039,-3.9375,-3.8439,-3.7102,-3.6756,-3.6441,-3.5483,-3.3699,-3.1985,-3.0982,-2.8273,-2.5117,0.0,0.0,0.0,0.0,0.0,0.0,0.0,-1.9226,-1.9065,-1.8295,-1.8356,-1.8528,-1.878,-1.8697,-1.9159,-2.0352,-2.1524,-2.3168,-2.5374,-2.6825,-2.8603,-3.0684,-3.1845,-3.3126,-3.4584,-3.5873,-3.673,-3.7151,-3.7401,-3.7687,-3.7963,-3.7934,-3.8107,-3.842,-3.8572,-3.8711,-3.8849,-3.8942,-3.9358,-3.9907,-3.9943,-3.9898,-3.9887,0.0,0.0,0.0,0.0,-2.7325,-3.0306,-2.9621,-3.1963,-3.4907,-3.8041,-3.9373,-4.0476,-4.1679,-4.1722,-4.1775,-4.1947,-4.1881,-4.1988,-4.2354,-4.0839,-4.0765,-4.2672,-4.04,-3.9678,-4.0923,-3.8303,-3.6371,0.0,0.0,0.0,0.0,0.0,0.0,0.0,0.0,0.0,0.0,-2.9466,-3.3613,-3.7211,-4.0573,-4.2938,-4.4689,-4.6368,-4.6661,-4.6186,-4.6062,-4.5555,-4.4923,-4.4463,-4.4224,-4.4068,-4.3747,-4.3568,-4.3372,-4.3023,-4.293,-4.2868,-4.2508,-4.2238,-4.2093,-4.1931,-4.1752,-4.1258,-4.0055,-3.9737,-3.934,-3.7898,-3.5486,-3.3565,-3.345,-2.9862,-2.5857,0.0,0.0,0.0,0.0,0.0,0.0,0.0,0.0,0.0,-1.966,-1.8518,-1.816,-1.8852,-1.8788,-1.8659,-1.8534,-2.028,-2.2022,-2.3624,-2.5782,-2.7796,-2.9563,-3.0466,-3.1313,-3.2046,-3.3838,-3.508,-3.5815,-3.6978,-3.7553,-3.77,-3.7817,-3.7992,-3.8209,-3.8335,-3.8476,-3.8616,-3.8849,-3.9396,-4.0115,-4.0534,-4.101,-4.135,0.0,0.0,0.0,0.0,-2.7675,-3.0431,-3.2542,-3.5475,-3.8153,-4.0094,-4.0014,-4.0537,-4.26,-4.2484,-4.2678,-4.3734,-4.2783,-4.2456,-4.3234,-4.1204,-4.0747,-4.2474,-4.0627,-4.045,-4.2322,-3.9573,-3.8488,0.0,0.0,0.0,0.0,0.0,0.0,0.0,0.0,0.0,-2.6488,-2.9453,0.0,-3.7271,-4.0636,-4.2999,-4.4685,-4.6346,-4.6661,-4.6186,-4.6062,-4.5555,-4.4951,-4.4603,-4.4378,-4.4224,-4.3939,-4.3822,-4.3704,-4.3204,-4.3052,-4.2959,-4.2539,-4.2238,-4.2093,-4.1931,-4.1752,-4.1225,-3.9866,-3.9456,-3.8952,-3.7433,-3.5027,-3.3176,-3.3107,-3.0034,-2.7078,-2.5681,-2.3304,-2.2035,-2.31,0.0,0.0,0.0,0.0,-2.2043,-2.2865,-2.0354,-1.8752,-1.8887,-1.8887,-1.8815,-1.8669,-1.9638,-2.1214,-2.346,-2.4474,-2.6117,-2.845,-2.95,-3.0409,-3.1154,-3.3496,-3.4972,-3.5677,-3.692,-3.7553,-3.77,-3.773,-3.7905,-3.8209,-3.8335,-3.8476,-3.8588,-3.8644,-3.9556,-4.082,-4.0792,-4.1235,-4.1857,0.0,0.0,0.0,0.0,-2.9768,-3.2544,-3.5166,-3.8118,-4.0503,-4.1679,-4.1393,-4.158,-4.2806,-4.3068,-4.3249,-4.3393,-4.2887,-4.2987,-4.3944,-4.2341,-4.2144,-4.394,-4.2235,-4.1963,-4.3494,-4.1476,-4.0348,-4.0196,-3.5636,0.0,0.0,0.0,0.0,0.0,0.0,-2.7001,0.0,0.0,-3.5749,-4.0158,-4.1888,-4.3828,-4.5765,-4.6511,-4.6318,-4.5607,-4.5485,-4.5009,-4.4439,-4.4595,-4.4508,-4.4281,-4.4085,-4.3956,-4.3793,-4.3265,-4.3113,-4.3021,-4.2618,-4.2318,-4.2077,-4.2029,-4.1547,-4.0798,-3.974,-3.9172,-3.8543,-3.7339,-3.5593,-3.397,-3.2909,-3.0527,-2.8098,-2.6211,-2.37,-2.2012,-2.2022,-2.1022,-2.0915,0.0,0.0,0.0,-2.2561,-2.1015,-2.0061,-2.0088,-1.9326,-1.8797,-1.8659,-1.9345,-2.0821,-2.3223,-2.4045,-2.5612,-2.8079,-2.9,-3.0044,-3.123,-3.3264,-3.4819,-3.5947,-3.7077,-3.7642,-3.77,-3.77,-3.7817,-3.8049,-3.8307,-3.8476,-3.8588,-3.8588,-3.9352,-4.0426,-4.0357,-4.0694,-4.12,0.0,-2.889,0.0,-2.9832,-3.2499,-3.5191,-3.7038,-3.9909,-4.2078,-4.2733,-4.262,-4.2696,-4.3254,-4.3822,-4.388,-4.3214,-4.3283,-4.374,-4.4602,-4.3491,-4.3517,-4.5096,-4.3786,-4.3374,-4.4165,-4.3138,-4.2044,-4.0866,-3.8033,-3.4688,-3.0888,0.0,0.0,0.0,0.0,-3.0794,-3.4349,-3.5801,-3.8887,-4.2848,-4.3381,-4.4865,-4.6731,-4.6708,-4.6106,-4.5267,-4.5236,-4.4765,-4.4209,-4.4681,-4.4637,-4.4338,-4.4155,-4.4027,-4.3822,-4.3265,-4.3113,-4.3021,-4.268,-4.2365,-4.2109,-4.2109,-4.1342,-4.0403,-3.9677,-3.8966,-3.8211,-3.7351,-3.6295,-3.4912,-3.2954,-3.1517,-2.9849,-2.7421,-2.4705,-2.2731,-2.226,-2.2114,-2.2295,0.0,0.0,0.0,-2.2256,-2.1849,-2.159,-2.1334,-1.9741,-1.8786,-1.8823,-1.9364,-2.0874,-2.3559,-2.4184,-2.5725,-2.8298,-2.8857,-2.9917,-3.1517,-3.3129,-3.4717,-3.6254,-3.7249,-3.77,-3.77,-3.7671,-3.7759,-3.7934,-3.825,-3.8448,-3.856,-3.856,-3.9112,-3.9919,-4.0066,-4.0263,-4.0469,0.0,0.0,-3.2833,-3.266,-3.5296,-3.7407,-3.7383,-4.0418,-4.2733,-4.2863,-4.2826,-4.3365,-4.4912,-4.5029,-4.5005,-4.5029,-4.4941,-4.4987,-4.5217,-4.4082,-4.3721,-4.4354,-4.413,-4.3888,-4.3761,-4.363,-4.3501,-4.3365,-3.9429,-3.6033,-3.3248,0.0,0.0,-2.9745,-3.207,-3.3853,-3.5293,-3.8428,-4.0928,-4.2944,-4.4528,-4.5758,-4.6637,-4.6865,-4.6531,-4.5957,-4.6178,-4.5681,-4.492,-4.4961,-4.4803,-4.4514,-4.4184,-4.4097,-4.3952,-4.3295,-4.3113,-4.3021,-4.268,-4.2365,-4.2109,-4.2109,-4.1342,-4.0403,-3.9677,-3.8904,-3.8073,-3.7201,-3.6405,-3.5321,-3.3524,-3.3477,-3.3335,-3.2223,-2.9073,-2.7365,-2.9094,-2.5611,-2.3715,-2.5909,0.0,0.0,-2.4614,-2.4027,-2.3149,-2.1767,-1.9828,-1.8969,-1.9565,-1.9762,-2.1569,-2.5244,-2.4974,-2.625,-2.9314,-2.9242,-2.9971,-3.1528,-3.3137,-3.4733,-3.6329,-3.7265,-3.77,-3.77,-3.7553,-3.7671,-3.7934,-3.825,-3.8408,-3.842,-3.842,-3.9028,-3.9968,-4.0639,-4.0696,-4.0469,-3.4259,-3.4259,-3.4678,-3.5132,-3.6527,-3.7944,-3.9077,-4.1198,-4.2771,-4.3008,-4.3704,-4.4454,-4.5117,-4.5526,-4.5348,-4.4312,-4.4769,-4.476,-4.3972,-4.4174,-4.4334,-4.4302,-4.4768,-4.4958,-4.4853,-4.4588,-4.4248,-4.3805,-4.1984,-3.911,-3.5335,-3.5452,-3.4977,-3.4108,-3.57,-3.7521,-3.9534,-4.1509,-4.3267,-4.4784,-4.5574,-4.6116,-4.6495,-4.6684,-4.617,-4.5355,-4.5435,-4.4964,-4.4312,-4.4187,-4.4412,-4.4654,-4.4241,-4.4097,-4.3981,-4.3432,-4.3281,-4.3221,-4.2852,-4.2602,-4.2333,-4.2142,-4.139,-4.0515,-3.9692,-3.8935,-3.8165,-3.7291,-3.6197,-3.5125,-3.42,-3.3745,-3.2972,-3.1345,-2.943,-2.8,-2.7656,-2.5669,0.0,-2.5463,0.0,-2.4722,-2.2992,-2.2708,-2.1817,-1.993,-1.9072,-1.8751,-1.8971,-1.9408,-2.0732,-2.3075,-2.328,-2.5182,-2.8987,-2.9274,-3.1078,-3.4455,-3.5284,-3.6483,-3.7916,-3.8128,-3.8033,-3.77,-3.773,-3.7788,-3.7934,-3.825,-3.8391,-3.8391,-3.8391,-3.8683,-3.9184,-3.9631,-3.9687,-3.9572,-3.6629,-3.6532,-3.6875,-3.7533,-3.7978,-3.8763,-4.0253,-4.1646,-4.2577,-4.2864,-4.4112,-4.5071,-4.5341,-4.5856,-4.5467,-4.3659,-4.4415,-4.4457,-4.3224,-4.4148,-4.459,-4.4319,-4.5088,-4.5252,-4.4656,-4.4873,-4.4592,-4.3761,-4.3529,-4.137,-3.7457,-3.8221,-3.8329,-3.7961,-3.9385,-4.1082,-4.2944,-4.3962,-4.4995,-4.5947,-4.6073,-4.6246,-4.6405,-4.6637,-4.607,-4.5159,-4.5229,-4.4792,-4.4156,-4.3987,-4.4289,-4.4648,-4.4241,-4.4068,-4.3969,-4.3539,-4.3342,-4.3251,-4.2961,-4.2728,-4.2476,-4.2174,-4.1295,-4.034,-3.9645,-3.8792,-3.7911,-3.7067,-3.6097,-3.5169,-3.4505,-3.3779,-3.2712,-3.1049,-2.9933,-2.8778,-2.7449,-2.6751,-2.5917,-2.4757,-2.5063,-2.4222,-2.1373,-2.1554,-2.1091,-1.9263,-1.9029,-1.8916,-1.8813,-1.9656,-2.0731,-2.2021,-2.2706,-2.4759,-2.8332,-2.9165,-3.1671,-3.5823,-3.6539,-3.7708,-3.9121,-3.8667,-3.816,-3.7658,-3.7788,-3.7876,-3.7934,-3.8221,-3.8363,-3.8391,-3.8391,-3.8504,-3.8688,-3.9078,-3.9166,-3.911,-3.8789,-3.9329,-3.985,-3.985,-4.0079,-4.032,-4.0485,-4.1467,-4.2257,-4.2386,-4.3757,-4.5043,-4.591,-4.6122,-4.5467,-4.3659,-4.4227,-4.4349,-4.3548,-4.4014,-4.4319,-4.4285,-4.4992,-4.4437,-4.2383,-4.4085,-4.4494,-4.3413,-4.3403,-4.2136,-3.9636,-3.9193,-3.9765,-4.1248,-4.3433,-4.4445,-4.4514,-4.5396,-4.5795,-4.5821,-4.5947,-4.6154,-4.6429,-4.6842,-4.6477,-4.5844,-4.6165,-4.5631,-4.4803,-4.4803,-4.4659,-4.4463,-4.4184,-4.3998,-4.3839,-4.3509,-4.3281,-4.3082,-4.293,-4.2681,-4.2349,-4.2142,-4.096,-3.9737,-3.955,-3.8306,-3.7006,-3.6346,-3.6088,-3.5591,-3.4352,-3.388,-3.3466,-3.2683,-3.1444,-3.0623,-3.0703,-2.9951,-2.8024,-2.4436,-2.5995,-2.5458,-2.0598,-2.1387,-2.1729,-2.0657,-2.008,-1.9709,-1.9497,-2.0877,-2.2203,-2.3333,-2.4171,-2.5539,-2.7593,-2.8992,-3.1294,-3.4454,-3.6108,-3.7812,-3.9458,-3.8539,-3.7902,-3.751,-3.7642,-3.7788,-3.7934,-3.8107,-3.8294,-3.8391,-3.8391,-3.8544,-3.8859,-3.9467,-3.9511,-3.9371,-3.969,-3.9868,-4.0037,-4.0037,-4.0263,-4.0362,-4.0113,-4.1627,-4.275,-4.256,-4.4164,-4.544,-4.5829,-4.5972,-4.5571,-4.4277,-4.5127,-4.504,-4.339,-4.4642,-4.5136,-4.4464,-4.5139,-4.5165,-4.4412,-4.4803,-4.4777,-4.4347,-4.4253,-4.3328,-4.1628,-4.1452,-4.1776,-4.2501,-4.4303,-4.5122,-4.5139,-4.5588,-4.5761,-4.5684,-4.5795,-4.5922,-4.603,-4.6542,-4.6235,-4.558,-4.597,-4.5555,-4.4776,-4.4536,-4.4367,-4.4212,-4.4027,-4.3927,-4.3868,-4.3598,-4.3432,-4.3281,-4.3082,-4.2774,-4.2508,-4.2333,-4.139,-4.0356,-3.9833,-3.8521,-3.7342,-3.7137,-3.6232,-3.5373,-3.5042,-3.3873,-3.2939,-3.2819,-3.2249,-3.1678,-3.1268,-2.9828,-2.8052,-2.6009,-2.5854,-2.4938,-2.2519,-2.4057,-2.4542,-2.2976,-2.2964,-2.2081,-1.9952,-2.1111,-2.2254,-2.3164,-2.4357,-2.6016,-2.8106,-2.9646,-3.1951,-3.5031,-3.6567,-3.7925,-3.8996,-3.8371,-3.7931,-3.7642,-3.7671,-3.773,-3.7788,-3.8094,-3.8237,-3.8294,-3.8448,-3.8588,-3.8732,-3.9221,-3.9292,-3.9154,-4.0146,-4.0062,-4.0037,-4.0037,-4.0163,-4.0298,-4.0374,-4.158,-4.2509,-4.2689,-4.4061,-4.5096,-4.5225,-4.5596,-4.5499,-4.4591,-4.5157,-4.4913,-4.3341,-4.4304,-4.4848,-4.4607,-4.4863,-4.4949,-4.4765,-4.4868,-4.4678,-4.4213,-4.4501,-4.4255,-4.3437,-4.349,-4.3613,-4.3864,-4.494,-4.5406,-4.5397,-4.5581,-4.5632,-4.5607,-4.5693,-4.5795,-4.5905,-4.6284,-4.6013,-4.5441,-4.5735,-4.5363,-4.4665,-4.4395,-4.4196,-4.4085,-4.3956,-4.3868,-4.3763,-4.3628,-4.3419,-4.319,-4.3068,-4.2821,-4.2475,-4.1948,-4.1166,-4.0243,-3.9166,-3.8187,-3.751,-3.751,-3.6477,-3.5524,-3.5357,-3.4076,-3.297,-3.2819,-3.2578,-3.2151,-3.1474,-2.9794,-2.8023,-2.6377,-2.5798,-2.5032,-2.3695,-2.5532,-2.636,-2.5261,-2.5403,-2.4745,-2.288,-2.3173,-2.3916,-2.5029,-2.6351,-2.7736,-2.9165,-3.063,-3.2641,-3.5158,-3.726,-3.8404,-3.8655,-3.8331,-3.8004,-3.7612,-3.7612,-3.7642,-3.77,-3.7934,-3.8094,-3.8237,-3.842,-3.8576,-3.8644,-3.892,-3.9013,-3.9023,-4.0273,-3.9986,-3.9926,-3.9926,-3.9926,-4.0188,-4.1076,-4.1367,-4.1835,-4.2817,-4.3666,-4.4225,-4.4354,-4.5096,-4.5312,-4.4653,-4.4566,-4.4254,-4.3526,-4.3402,-4.3798,-4.4709,-4.4371,-4.4042,-4.3776,-4.4446,-4.4309,-4.3294,-4.4309,-4.4858,-4.4978,-4.5123,-4.5203,-4.522,-4.5344,-4.5397,-4.5397,-4.5397,-4.5476,-4.5581,-4.5581,-4.5744,-4.5963,-4.6112,-4.5837,-4.5389,-4.5503,-4.514,-4.4542,-4.4338,-4.4212,-4.4068,-4.391,-4.3734,-4.3598,-4.3598,-4.3235,-4.2849,-4.2849,-4.263,-4.2154,-4.1055,-4.0385,-3.9569,-3.787,-3.748,-3.748,-3.748,-3.6747,-3.5936,-3.5279,-3.4332,-3.3392,-3.2714,-3.2496,-3.2151,-3.1474,-2.99,-2.8085,-2.6007,-2.6115,-2.5853,-2.453,-2.636,-2.7614,-2.7588,-2.7572,-2.7631,-2.7747,-2.6815,-2.6909,-2.8292,-2.9473,-3.021,-3.0476,-3.1885,-3.3466,-3.5212,-3.8127,-3.9137,-3.842,-3.8391,-3.8049,-3.751,-3.751,-3.7553,-3.7671,-3.7716,-3.7876,-3.8164,-3.8335,-3.8476,-3.8588,-3.8616,-3.8794,-3.8996,-4.013,-4.007,-4.0062,-4.0062,-4.0062,-4.0316,-4.1085,-4.1791,-4.2498,-4.3182,-4.4253,-4.4946,-4.4972,-4.525,-4.5433,-4.5347,-4.5432,-4.5422,-4.5231,-4.5104,-4.5087,-4.5235,-4.5051,-4.4812,-4.4548,-4.4718,-4.4635,-4.4271,-4.4635,-4.4803,-4.4858,-4.5086,-4.5203,-4.522,-4.5344,-4.5397,-4.5397,-4.5397,-4.5423,-4.545,-4.545,-4.5502,-4.5563,-4.5701,-4.5415,-4.4978,-4.5203,-4.4824,-4.4212,-4.4155,-4.4056,-4.391,-4.3734,-4.3568,-4.3479,-4.3568,-4.2963,-4.2297,-4.2297,-4.148,-4.0585,-4.0456,-3.9774,-3.8812,-3.7745,-3.7375,-3.7254,-3.7254,-3.6162,-3.5154,-3.4998,-3.3799,-3.2807,-3.2636,-3.2496,-3.2139,-3.1355,-3.0053,-2.9006,-2.8513,-2.87,-2.8787,-2.8605,-3.0582,-3.1455,-3.0497,-3.0323,-3.0545,-3.1165,-3.0511,-2.9681,-2.8783,-2.9475,-2.9973,-3.0194,-3.2486,-3.5068,-3.7885,-3.9091,-3.9282,-3.8556,-3.8448,-3.8049,-3.751,-3.751,-3.751,-3.7569,-3.7642,-3.7759,-3.7876,-3.8375,-3.8516,-3.8504,-3.8975,-3.9067,-3.9023,-4.0163,-4.0096,-4.0096,-4.0096,-4.0096,-4.0468,-4.1542,-4.2059,-4.2702,-4.3775,-4.4432,-4.4879,-4.5086,-4.5167,-4.5274,-4.5406,-4.5589,-4.5579,-4.5232,-4.5138,-4.5044,-4.4889,-4.4705,-4.4663,-4.4803,-4.4737,-4.4709,-4.4682,-4.4748,-4.4858,-4.4978,-4.514,-4.523,-4.53,-4.5371,-4.5397,-4.5397,-4.5397,-4.5476,-4.5581,-4.5528,-4.5528,-4.5563,-4.5468,-4.515,-4.4803,-4.4852,-4.4547,-4.4097,-4.4097,-4.3998,-4.3868,-4.3658,-4.3568,-4.3509,-4.3598,-4.3048,-4.2482,-4.2482,-4.1624,-4.0578,-3.9951,-3.9008,-3.8088,-3.7678,-3.7464,-3.73,-3.7224,-3.6597,-3.5972,-3.5571,-3.4547,-3.3652,-3.327,-3.2598,-3.1948,-3.1459,-2.994,-2.9042,-2.9441,-2.962,-2.9893,-3.0329,-3.2163,-3.3003,-3.232,-3.2196,-3.2355,-3.2786,-3.2479,-3.1923,-3.1128,-3.1474,-3.1947,-3.253,-3.4723,-3.6746,-3.8521,-3.9092,-3.9077,-3.8516,-3.8347,-3.7976,-3.751,-3.751,-3.751,-3.751,-3.7599,-3.7642,-3.773,-3.8217,-3.8387,-3.8448,-3.8903,-3.9023,-3.9023,-4.0256,-4.0096,-4.0096,-4.0096,-4.0096,-4.057,-4.1914,-4.2102,-4.2604,-4.408,-4.4282,-4.4463,-4.4896,-4.4951,-4.5032,-4.5194,-4.538,-4.5252,-4.463,-4.4586,-4.4518,-4.4397,-4.4162,-4.4265,-4.4803,-4.4682,-4.4654,-4.4803,-4.4803,-4.494,-4.515,-4.5177,-4.5274,-4.5371,-4.5397,-4.5397,-4.5397,-4.5397,-4.5537,-4.5744,-4.5667,-4.5667,-4.5693,-4.5336,-4.492,-4.4533,-4.435,-4.4096,-4.3855,-4.3784,-4.3785,-4.3822,-4.3525,-4.3416,-4.3449,-4.3565,-4.3216,-4.2814,-4.2767,-4.2026,-4.0889,-3.953,-3.8357,-3.7569,-3.7671,-3.7553,-3.7405,-3.7254,-3.7251,-3.7089,-3.6344,-3.564,-3.4952,-3.4229,-3.271,-3.1638,-3.1723,-2.9847,-2.8836,-2.9722,-2.9999,-3.0379,-3.1056,-3.2416,-3.3282,-3.3335,-3.3319,-3.3319,-3.3346,-3.3319,-3.345,-3.3694,-3.3797,-3.4455,-3.5615,-3.7216,-3.814,-3.843,-3.8851,-3.8821,-3.842,-3.8201,-3.7873,-3.751,-3.751,-3.751,-3.751,-3.748,-3.7524,-3.77,-3.7988,-3.8189,-3.8375,-3.8694,-3.8914,-3.8996,-4.013,-4.0096,-4.0096,-4.0096,-4.0096,-4.04,-4.1238,-4.1782,-4.2381,-4.3127,-4.3866,-4.4378,-4.4558,-4.4731,-4.494,-4.5177,-4.514,-4.5035,-4.4932,-4.4915,-4.4915,-4.4888,-4.4743,-4.4712,-4.4803,-4.4682,-4.4654,-4.4803,-4.4803,-4.4886,-4.5032,-4.5167,-4.5203,-4.5247,-4.5344,-4.5397,-4.5397,-4.5397,-4.5502,-4.5658,-4.5727,-4.5649,-4.5441,-4.5205,-4.4426,-4.3451,-4.3284,-4.3029,-4.2688,-4.2232,-4.2774,-4.3529,-4.2899,-4.2655,-4.2787,-4.3416,-4.302,-4.2364,-4.2245,-4.0921,-3.9497,-3.9127,-3.8344,-3.7671,-3.7716,-3.7449,-3.7254,-3.7224,-3.6784,-3.636,-3.6221,-3.564,-3.5166,-3.5027,-3.2578,-3.1082,-3.2203,-3.0389,-2.9419,-3.0777,-3.1555,-3.2145,-3.2542,-3.2917,-3.3229,-3.345,-3.3477,-3.3529,-3.3617,-3.3529,-3.3555,-3.371,-3.372,-3.4681,-3.6642,-3.7671,-3.8624,-3.9458,-3.9312,-3.9013,-3.8556,-3.8258,-3.7873,-3.751,-3.751,-3.751,-3.748,-3.7329,-3.7359,-3.7569,-3.7844,-3.803,-3.8201,-3.8777,-3.8969,-3.9023,-4.0096,-4.0062,-4.0096,-4.0096,-4.0096,-4.0367,-4.1085,-4.1661,-4.2238,-4.292,-4.3542,-4.4023,-4.4253,-4.4423,-4.462,-4.4824,-4.4869,-4.4886,-4.4886,-4.4951,-4.5005,-4.5005,-4.4886,-4.4765,-4.4709,-4.4709,-4.4709,-4.4682,-4.4748,-4.4886,-4.5005,-4.5059,-4.5167,-4.53,-4.5371,-4.5397,-4.5397,-4.5397,-4.5528,-4.5693,-4.5624,-4.5555,-4.545,-4.5045,-4.4177,-4.3182,-4.306,-4.2527,-4.1872,-4.1755,-4.2354,-4.3032,-4.2154,-4.2261,-4.2717,-4.2932,-4.2947,-4.2782,-4.2239,-4.1013,-3.9825,-3.9454,-3.8592,-3.7847,-3.7934,-3.7788,-3.7537,-3.7328,-3.7166,-3.6961,-3.6768,-3.6189,-3.5705,-3.5647,-3.3829,-3.2586,-3.303,-3.194,-3.1312,-3.189,-3.2283,-3.2621,-3.287,-3.3032,-3.3176,-3.3372,-3.345,-3.3688,-3.4149,-3.3814,-3.3844,-3.4384,-3.4943,-3.5899,-3.738,-3.8315,-3.9046,-3.9468,-3.9175,-3.886,-3.8583,-3.8274,-3.7947,-3.7628,-3.7628,-3.7569,-3.748,-3.7405,-3.7435,-3.7539,-3.7801,-3.8046,-3.8303,-3.875,-3.9013,-3.9175,-4.0549,-4.0357,-4.0316,-4.0341,-4.0189,-4.0248,-4.0849,-4.1516,-4.2132,-4.2657,-4.3269,-4.3776,-4.4068,-4.4167,-4.4281,-4.4474,-4.462,-4.4692,-4.4765,-4.4913,-4.5032,-4.5086,-4.4951,-4.4803,-4.4654,-4.4709,-4.4737,-4.4654,-4.4737,-4.4831,-4.5005,-4.4951,-4.5086,-4.5371,-4.5371,-4.5371,-4.5397,-4.5397,-4.5528,-4.5693,-4.552,-4.5468,-4.5381,-4.4695,-4.3802,-4.2841,-4.254,-4.1855,-4.1143,-4.1161,-4.1883,-4.2649,-4.1742,-4.2109,-4.2844,-4.2821,-4.3122,-4.3287,-4.2594,-4.1637,-4.0726,-4.0098,-3.9111,-3.8258,-3.8212,-3.802,-3.7772,-3.7551,-3.7596,-3.7583,-3.7344,-3.6829,-3.6411,-3.6368,-3.4898,-3.3888,-3.4172,-3.3255,-3.2664,-3.2862,-3.2881,-3.2889,-3.2939,-3.3199,-3.3349,-3.3388,-3.3778,-3.4234,-3.4723,-3.445,-3.4709,-3.5592,-3.6218,-3.6957,-3.78,-3.8801,-3.9299,-3.9299,-3.8969,-3.8777,-3.8639,-3.8403,-3.8135,-3.7847,-3.7788,-3.77,-3.7583,-3.7464,-3.7464,-3.7539,-3.7759,-3.8049,-3.8391,-3.8667,-3.8969,-3.9245,-4.1964,-4.1408,-4.0972,-4.1093,-4.0458,-3.9952,-4.0155,-4.1259,-4.2041,-4.1988,-4.3101,-4.3939,-4.4068,-4.3998,-4.4068,-4.4491,-4.4406,-4.4412,-4.4598,-4.4858,-4.5113,-4.5363,-4.523,-4.5059,-4.4776,-4.4682,-4.4682,-4.4793,-4.4682,-4.4765,-4.5005,-4.4886,-4.4968,-4.5203,-4.5203,-4.5274,-4.5397,-4.5397,-4.5406,-4.5441,-4.5529,-4.5363,-4.4947,-4.4024,-4.297,-4.1854,-4.0928,-4.0525,-4.0376,-3.9696,-4.0967,-4.2665,-4.1916,-4.2278,-4.3098,-4.3644,-4.3684,-4.3552,-4.3353,-4.266,-4.1776,-4.0926,-4.0047,-3.9159,-3.8382,-3.7934,-3.773,-3.7847,-3.7671,-3.7539,-3.7642,-3.7371,-3.7175,-3.7371,-3.4861,-3.3614,-3.5705,-3.3481,-3.2152,-3.3618,-3.369,-3.3472,-3.3105,-3.3661,-3.3945,-3.3706,-3.4899,-3.5471,-3.5166,-3.5768,-3.6512,-3.7378,-3.6924,-3.7036,-3.78,-3.8801,-3.9299,-3.9299,-3.9094,-3.8914,-3.8777,-3.8639,-3.8488,-3.8335,-3.8017,-3.7886,-3.7828,-3.7387,-3.7329,-3.751,-3.7642,-3.7889,-3.8173,-3.8623,-3.8887,-3.9067,-4.2125,-4.1933,-4.1916,-4.188,-4.1696,-4.1519,-4.1596,-4.2257,-4.2768,-4.2713,-4.3392,-4.3956,-4.4085,-4.3969,-4.3998,-4.4224,-4.4212,-4.4281,-4.4536,-4.4841,-4.5059,-4.5167,-4.5177,-4.5032,-4.4682,-4.4709,-4.4709,-4.4682,-4.4564,-4.4648,-4.4886,-4.4703,-4.4769,-4.5086,-4.515,-4.5247,-4.5274,-4.5194,-4.5247,-4.5389,-4.5052,-4.4687,-4.4234,-4.3613,-4.2452,-4.114,-4.0618,-4.031,-4.015,-3.9786,-4.0684,-4.178,-4.0966,-4.1455,-4.244,-4.3039,-4.3339,-4.338,-4.2858,-4.214,-4.1358,-4.0566,-3.9646,-3.8845,-3.8513,-3.8278,-3.8078,-3.7934,-3.7817,-3.77,-3.7599,-3.7285,-3.7105,-3.7181,-3.6185,-3.5675,-3.6409,-3.5299,-3.4623,-3.5156,-3.4756,-3.4425,-3.4415,-3.4647,-3.4762,-3.4741,-3.5409,-3.5941,-3.6226,-3.6837,-3.7355,-3.7719,-3.7669,-3.792,-3.8547,-3.9043,-3.9299,-3.9299,-3.9094,-3.8969,-3.8914,-3.8805,-3.8639,-3.8516,-3.8173,-3.8014,-3.8001,-3.7567,-3.7419,-3.7433,-3.7492,-3.7682,-3.8001,-3.8286,-3.8623,-3.8996,-4.2473,-4.2338,-4.2255,-4.1955,-4.201,-4.2115,-4.2141,-4.2874,-4.3382,-4.3271,-4.3759,-4.4198,-4.4415,-4.4302,-4.4273,-4.4432,-4.4374,-4.4361,-4.4367,-4.4714,-4.4961,-4.5113,-4.5203,-4.5086,-4.4682,-4.4709,-4.4654,-4.4514,-4.448,-4.4519,-4.4637,-4.4491,-4.4603,-4.4923,-4.5086,-4.5096,-4.5059,-4.5005,-4.4905,-4.4753,-4.4529,-4.4162,-4.3664,-4.3002,-4.2087,-4.104,-4.0237,-4.0029,-4.0071,-3.9959,-4.056,-4.1347,-4.097,-4.1609,-4.2618,-4.301,-4.3111,-4.2908,-4.2166,-4.1338,-4.0606,-4.0102,-3.9458,-3.8865,-3.8541,-3.8391,-3.825,-3.8049,-3.7905,-3.7788,-3.7642,-3.7315,-3.7075,-3.7151,-3.7105,-3.7044,-3.6968,-3.6697,-3.6409,-3.6148,-3.5649,-3.5303,-3.5285,-3.5458,-3.5547,-3.5466,-3.6083,-3.6742,-3.7408,-3.7768,-3.8014,-3.81,-3.8288,-3.8572,-3.8996,-3.9202,-3.9325,-3.9352,-3.9175,-3.9077,-3.9094,-3.9013,-3.886,-3.8722,-3.8399,-3.823,-3.816,-3.7772,-3.7537,-3.7417,-3.7522,-3.7653,-3.7873,-3.8103,-3.8511,-3.8942,-4.3227,-4.2545,-4.1887,-4.1156,-4.1152,-4.1264,-4.1427,-4.2833,-4.3778,-4.3464,-4.4035,-4.4676,-4.5144,-4.502,-4.496,-4.5169,-4.502,-4.466,-4.4118,-4.4474,-4.4899,-4.5363,-4.5372,-4.5203,-4.4803,-4.4682,-4.4497,-4.431,-4.431,-4.431,-4.431,-4.431,-4.448,-4.4803,-4.494,-4.4913,-4.4803,-4.4923,-4.4388,-4.346,-4.4063,-4.394,-4.328,-4.2144,-4.1777,-4.1642,-3.9698,-3.9473,-4.0087,-3.9959,-4.0576,-4.1513,-4.2258,-4.3119,-4.3898,-4.3898,-4.3144,-4.2149,-4.1408,-4.0455,-3.9687,-3.9687,-3.9687,-3.9422,-3.8411,-3.8209,-3.8209,-3.8209,-3.7934,-3.773,-3.7876,-3.7522,-3.7254,-3.748,-3.7329,-3.7254,-3.7464,-3.7329,-3.7002,-3.6472,-3.6292,-3.5996,-3.5473,-3.6026,-3.621,-3.5665,-3.702,-3.8107,-3.856,-3.8588,-3.8672,-3.8805,-3.8805,-3.886,-3.8996,-3.9218,-3.9352,-3.9501,-3.9352,-3.9299,-3.9299,-3.9299,-3.9175,-3.8996,-3.8722,-3.8544,-3.8363,-3.8049,-3.7698,-3.7447,-3.7772,-3.7817,-3.7759,-3.8221,-3.8572,-3.8832,-4.4148,-4.3928,-4.372,-4.35,-4.362,-4.3729,-4.3773,-4.401,-4.4215,-4.4231,-4.4249,-4.451,-4.5249,-4.5096,-4.493,-4.499,-4.4765,-4.436,-4.3793,-4.4047,-4.4231,-4.4276,-4.4824,-4.4995,-4.4654,-4.4626,-4.457,-4.4514,-4.427,-4.427,-4.4514,-4.427,-4.4253,-4.4452,-4.4603,-4.4575,-4.4452,-4.4395,-4.3945,-4.3305,-4.3796,-4.3361,-4.2316,-4.1877,-4.1394,-4.0811,-3.9369,-3.968,-4.0689,-4.0424,-4.0583,-4.1,-4.1428,-4.2154,-4.2765,-4.2778,-4.2361,-4.1697,-4.0484,-3.9866,-3.9475,-3.9152,-3.8925,-3.8736,-3.8525,-3.8408,-3.8307,-3.8237,-3.802,-3.7817,-3.7759,-3.7449,-3.7224,-3.7284,-3.6831,-3.6533,-3.6578,-3.6621,-3.6585,-3.6424,-3.6835,-3.7128,-3.7151,-3.7168,-3.7171,-3.7192,-3.7649,-3.8107,-3.856,-3.8588,-3.8616,-3.8667,-3.9128,-3.9257,-3.8996,-3.905,-3.9245,-3.9501,-3.9352,-3.9352,-3.9448,-3.9325,-3.9272,-3.9175,-3.8777,-3.8639,-3.8639,-3.8119,-3.7698,-3.7417,-3.7506,-3.7522,-3.7522,-3.7817,-3.829,-3.8805,-4.4185,-4.4135,-4.405,-4.3635,-4.3993,-4.4378,-4.4378,-4.445,-4.4508,-4.4553,-4.4367,-4.4539,-4.5249,-4.5126,-4.5093,-4.5255,-4.4717,-4.4146,-4.3628,-4.3697,-4.3785,-4.3802,-4.4236,-4.4435,-4.44,-4.4327,-4.4355,-4.4468,-4.4097,-4.4039,-4.427,-4.3981,-4.3906,-4.4035,-4.4162,-4.415,-4.4023,-4.3993,-4.3466,-4.2669,-4.3465,-4.286,-4.1475,-4.1494,-4.1078,-4.0364,-3.9139,-3.9642,-4.0805,-4.0277,-4.0404,-4.073,-4.068,-4.1194,-4.1802,-4.1785,-4.1396,-4.0766,-3.9931,-3.9393,-3.8999,-3.877,-3.856,-3.8408,-3.8436,-3.842,-3.8379,-3.8237,-3.8107,-3.7992,-3.7905,-3.7626,-3.7419,-3.7419,-3.7013,-3.6702,-3.6702,-3.679,-3.6861,-3.6991,-3.7401,-3.7772,-3.8075,-3.7831,-3.7714,-3.7815,-3.786,-3.8004,-3.8307,-3.8448,-3.8504,-3.8432,-3.8837,-3.8995,-3.8914,-3.8914,-3.9131,-3.959,-3.9432,-3.9422,-3.9501,-3.9422,-3.9272,-3.9094,-3.886,-3.8722,-3.8628,-3.8307,-3.7947,-3.7594,-3.7551,-3.7462,-3.7417,-3.7626,-3.8062,-3.8539,-4.3732,-4.3657,-4.3488,-4.2507,-4.3152,-4.379,-4.3763,-4.4323,-4.4692,-4.4491,-4.4446,-4.4665,-4.5114,-4.5202,-4.532,-4.568,-4.471,-4.391,-4.3539,-4.3402,-4.3432,-4.3684,-4.3595,-4.3684,-4.401,-4.386,-4.3948,-4.4253,-4.3789,-4.3641,-4.3772,-4.3522,-4.3462,-4.3578,-4.3713,-4.37,-4.3598,-4.3713,-4.2991,-4.1876,-4.3111,-4.2496,-4.0842,-4.1104,-4.0838,-4.02,-3.9016,-3.9467,-4.0509,-3.9745,-4.0079,-4.0697,-4.0046,-4.0365,-4.0983,-4.0889,-4.0312,-3.9687,-3.9622,-3.902,-3.8448,-3.8588,-3.8532,-3.8391,-3.8266,-3.8335,-3.8363,-3.8266,-3.8209,-3.8209,-3.8209,-3.795,-3.77,-3.77,-3.7535,-3.7415,-3.7415,-3.7415,-3.7488,-3.7748,-3.7854,-3.8001,-3.8335,-3.8103,-3.7873,-3.77,-3.7817,-3.7905,-3.7905,-3.8193,-3.8278,-3.8151,-3.82,-3.8412,-3.875,-3.8826,-3.9127,-3.9677,-3.9563,-3.9501,-3.9528,-3.9501,-3.9245,-3.886,-3.8942,-3.8766,-3.8436,-3.8532,-3.8319,-3.7886,-3.7788,-3.7596,-3.7447,-3.7626,-3.7889,-3.8201,-4.4702,-4.4476,-4.4259,-4.4085,-4.4326,-4.4483,-4.4215,-4.4322,-4.4367,-4.4212,-4.4184,-4.4394,-4.4923,-4.5113,-4.509,-4.483,-4.3801,-4.3093,-4.2821,-4.279,-4.2805,-4.2867,-4.2836,-4.2959,-4.3325,-4.3519,-4.3667,-4.3756,-4.3552,-4.3522,-4.3638,-4.3492,-4.3402,-4.3432,-4.3462,-4.3462,-4.3449,-4.3462,-4.3039,-4.2398,-4.3264,-4.2605,-4.1109,-4.1189,-4.0708,-3.9888,-3.8933,-3.9158,-3.9874,-3.9583,-4.0079,-4.0668,-3.9849,-4.0167,-4.0697,-4.0011,-3.9677,-3.9433,-3.8979,-3.8718,-3.8588,-3.8738,-3.8722,-3.8683,-3.8532,-3.8548,-3.8504,-3.8363,-3.825,-3.8209,-3.8209,-3.802,-3.7817,-3.773,-3.7179,-3.6756,-3.6643,-3.6658,-3.6643,-3.673,-3.7422,-3.7972,-3.8144,-3.8116,-3.796,-3.773,-3.773,-3.7788,-3.7905,-3.7963,-3.7963,-3.7817,-3.8328,-3.855,-3.8476,-3.8995,-3.9362,-3.9537,-3.9511,-3.9563,-3.9651,-3.9432,-3.9299,-3.9191,-3.8942,-3.8738,-3.8532,-3.8476,-3.8234,-3.7886,-3.786,-3.7759,-3.7642,-3.7671,-3.7963,-3.8375,-4.5113,-4.4906,-4.4731,-4.4709,-4.4748,-4.4692,-4.4367,-4.435,-4.4321,-4.4126,-4.4097,-4.419,-4.4397,-4.4523,-4.4388,-4.3887,-4.3483,-4.3101,-4.2619,-4.2602,-4.2602,-4.2602,-4.2602,-4.268,-4.2867,-4.299,-4.3157,-4.3443,-4.3113,-4.3037,-4.3265,-4.3037,-4.2976,-4.3037,-4.3037,-4.3099,-4.3281,-4.3281,-4.293,-4.2451,-4.289,-4.229,-4.1099,-4.1111,-4.0553,-3.9728,-3.9227,-3.9056,-3.9137,-3.9392,-3.9551,-3.9576,-3.9116,-3.9275,-3.9641,-3.9621,-3.9332,-3.9129,-3.9262,-3.9056,-3.8903,-3.938,-3.9287,-3.8985,-3.8738,-3.8683,-3.8683,-3.86,-3.8476,-3.8391,-3.8391,-3.8193,-3.802,-3.7934,-3.747,-3.7099,-3.7028,-3.6956,-3.697,-3.7099,-3.7575,-3.7943,-3.8087,-3.81,-3.7972,-3.773,-3.77,-3.7671,-3.7551,-3.773,-3.773,-3.7567,-3.79,-3.8152,-3.8262,-3.8658,-3.8942,-3.9067,-3.9202,-3.9309,-3.9345,-3.9228,-3.9121,-3.9067,-3.904,-3.8876,-3.8588,-3.8572,-3.846,-3.8217,-3.8004,-3.7831,-3.7748,-3.8066,-3.8472,-3.8906,-4.522,-4.5086,-4.4951,-4.4776,-4.4803,-4.4703,-4.4395,-4.4463,-4.4463,-4.4196,-4.4155,-4.4068,-4.3956,-4.3939,-4.378,-4.3324,-4.3553,-4.346,-4.2829,-4.2667,-4.2602,-4.2602,-4.2602,-4.2602,-4.2602,-4.2445,-4.2618,-4.3141,-4.2618,-4.2476,-4.2775,-4.2508,-4.2476,-4.2571,-4.2602,-4.2774,-4.3113,-4.3113,-4.2876,-4.2528,-4.2629,-4.2083,-4.1225,-4.1209,-4.0651,-3.9858,-3.9583,-3.9052,-3.8517,-3.9116,-3.8951,-3.8448,-3.842,-3.8517,-3.878,-3.9377,-3.9291,-3.9212,-3.9962,-3.9803,-3.9605,-4.0348,-4.0011,-3.9427,-3.9139,-3.8942,-3.8832,-3.8805,-3.8711,-3.8616,-3.8588,-3.842,-3.825,-3.8209,-3.7979,-3.7759,-3.77,-3.7583,-3.7612,-3.7828,-3.7931,-3.8001,-3.8087,-3.8116,-3.8017,-3.773,-3.77,-3.7537,-3.7224,-3.7478,-3.7537,-3.7344,-3.7358,-3.7594,-3.803,-3.8185,-3.8343,-3.8511,-3.8832,-3.8996,-3.905,-3.9023,-3.8942,-3.8887,-3.9121,-3.9002,-3.8644,-3.8711,-3.8683,-3.856,-3.8103,-3.7844,-3.7809,-3.8448,-3.8891,-3.9192,-4.5113,-4.5005,-4.4913,-4.4682,-4.4831,-4.4869,-4.453,-4.4648,-4.4676,-4.4491,-4.435,-4.4224,-4.4097,-4.4114,-4.4125,-4.4046,-4.3846,-4.367,-4.3573,-4.2942,-4.2602,-4.2602,-4.2602,-4.2602,-4.2602,-4.2302,-4.227,-4.2523,-4.227,-4.2174,-4.2206,-4.2349,-4.2413,-4.2445,-4.2539,-4.2774,-4.3113,-4.3113,-4.3216,-4.342,-4.3449,-4.2914,-4.2107,-4.1993,-4.1403,-4.0541,-3.979,-3.9109,-3.8576,-3.8561,-3.8625,-3.8711,-3.8476,-3.9011,-3.9584,-3.9072,-3.9856,-4.0798,-4.0591,-4.0829,-4.1238,-4.1444,-4.0873,-4.0233,-4.0205,-3.9556,-3.8942,-3.8832,-3.8777,-3.8738,-3.8616,-3.856,-3.8464,-3.8237,-3.8164,-3.802,-3.773,-3.7671,-3.7671,-3.773,-3.7992,-3.8148,-3.81,-3.8148,-3.8049,-3.773,-3.77,-3.7537,-3.7224,-3.7254,-3.721,-3.706,-3.718,-3.7403,-3.7759,-3.8001,-3.8128,-3.8157,-3.8623,-3.8985,-3.9245,-3.9094,-3.9094,-3.9218,-3.8969,-3.8832,-3.875,-3.8544,-3.8504,-3.856,-3.8278,-3.8049,-3.7956,-3.8508,-3.8455,-3.8245,-4.6044,-4.5839,-4.5566,-4.5036,-4.5374,-4.5439,-4.4626,-4.4797,-4.4841,-4.4321,-4.435,-4.4321,-4.4126,-4.3969,-4.3953,-4.4192,-4.3631,-4.3377,-4.3686,-4.3007,-4.2602,-4.2602,-4.2602,-4.2602,-4.2602,-4.2365,-4.2254,-4.2238,-4.1948,-4.1916,-4.2109,-4.2174,-4.2333,-4.2508,-4.2571,-4.2774,-4.3113,-4.3113,-4.3235,-4.3459,-4.3105,-4.2901,-4.2725,-4.2348,-4.1609,-4.0652,-3.9426,-3.8837,-3.8588,-3.8628,-3.8972,-3.9383,-3.9287,-3.985,-4.0553,-4.0705,-4.0971,-4.1283,-4.1677,-4.1604,-4.1569,-4.2121,-4.1604,-4.1061,-4.1475,-4.0938,-4.021,-3.9787,-3.9934,-3.9999,-3.9521,-3.9315,-3.9072,-3.8609,-3.8335,-3.8164,-3.8107,-3.7934,-3.7847,-3.7902,-3.8107,-3.8221,-3.8262,-3.8221,-3.8296,-3.852,-3.8041,-3.7741,-3.782,-3.7353,-3.7014,-3.6831,-3.7014,-3.7285,-3.7716,-3.7889,-3.8075,-3.8262,-3.8544,-3.8766,-3.8914,-3.8969,-3.9281,-3.9715,-3.9275,-3.9216,-3.9378,-3.8846,-3.86,-3.856,-3.8408,-3.8377,-3.8576,-3.8975,-3.8891,-3.8651]},{"header":{"parameterUnit":"m.s-1","parameterCategory":1,"la1":30.6,"la2":28.766,"lo1":-90.7593,"lo2":-88.6598,"dy":0.0162,"dx":0.0183,"nx":116,"ny":114,"refTime":"2023-05-05T18:00:00:Z","depth":0,"parameterNumber":3,"parameterNumberName":"V-component_of_WINDS"},"data":[0.0,0.0,0.0,0.0,0.0,0.0,0.0,0.0,0.0,0.0,0.0,0.0,0.0,0.0,0.0,0.0,0.0,0.0,0.0,0.0,0.0,0.0,0.0,0.0,0.0,0.0,0.0,0.0,0.0,0.0,0.0,0.0,0.0,0.0,0.0,0.0,0.0,0.0,0.0,0.0,0.0,0.0,0.0,0.0,0.0,0.0,0.0,0.0,0.0,0.0,0.0,0.0,0.0,0.0,0.0,0.0,0.0,0.0,0.0,0.0,0.0,0.0,0.0,0.0,0.0,0.0,0.0,0.0,0.0,0.0,0.0,0.0,0.0,0.0,0.0,0.0,0.0,0.0,0.0,0.0,0.0,0.0,0.0,0.0,0.0,0.0,0.0,0.0,0.0,0.0,0.0,0.0,0.0,0.0,0.0,0.0,0.0,0.0,0.0,0.0,0.0,0.0,0.0,0.0,0.0,0.0,0.0,0.0,0.0,0.0,0.0,0.0,0.0,0.0,0.0,0.0,0.0,0.0,0.0,0.0,0.0,0.0,0.0,0.0,0.0,0.0,0.0,0.0,0.0,0.0,0.0,0.0,0.0,0.0,0.0,0.0,0.0,0.0,0.0,0.0,0.0,0.0,0.0,0.0,0.0,0.0,0.0,0.0,0.0,0.0,0.0,0.0,0.0,0.0,0.0,0.0,0.0,0.0,0.0,0.0,0.0,0.0,0.0,0.0,0.0,0.0,0.0,0.0,0.0,0.0,0.0,0.0,0.0,0.0,0.0,0.0,0.0,0.0,0.0,0.0,0.0,0.0,0.0,0.0,0.0,0.0,0.0,0.0,0.0,0.0,0.0,0.0,0.0,0.0,0.0,0.0,0.0,0.0,0.0,0.0,0.0,0.0,0.0,0.0,0.0,0.0,0.0,0.0,0.0,0.0,0.0,0.0,0.0,0.0,0.0,0.0,0.0,0.0,0.0,0.0,0.0,0.0,0.0,0.0,0.0,0.0,0.0,0.0,0.0,0.0,0.0,0.0,0.0,0.0,0.0,0.0,0.0,0.0,0.0,0.0,0.0,0.0,0.0,0.0,0.0,0.0,0.0,0.0,0.0,0.0,0.0,0.0,0.0,0.0,0.0,0.0,0.0,0.0,0.0,0.0,0.0,0.0,0.0,0.0,0.0,0.0,0.0,0.0,0.0,0.0,0.0,0.0,0.0,0.0,0.0,0.0,0.0,0.0,0.0,0.0,0.0,0.0,0.0,0.0,0.0,0.0,0.0,0.0,0.0,0.0,0.0,0.0,0.0,0.0,0.0,0.0,0.0,0.0,0.0,0.0,0.0,0.0,0.0,0.0,0.0,0.0,0.0,0.0,0.0,0.0,0.0,0.0,0.0,0.0,0.0,0.0,0.0,0.0,0.0,0.0,0.0,0.0,0.0,0.0,0.0,0.0,0.0,0.0,0.0,0.0,0.0,0.0,0.0,0.0,0.0,0.0,0.0,0.0,0.0,0.0,0.0,0.0,0.0,0.0,0.0,0.0,0.0,0.0,0.0,0.0,0.0,0.0,0.0,0.0,0.0,0.0,0.0,0.0,0.0,0.0,0.0,0.0,0.0,0.0,0.0,0.0,0.0,0.0,0.0,0.0,0.0,0.0,0.0,0.0,0.0,0.0,0.0,0.0,0.0,0.0,0.0,0.0,0.0,0.0,0.0,0.0,0.0,0.0,0.0,0.0,0.0,0.0,0.0,0.0,0.0,0.0,0.0,0.0,0.0,0.0,0.0,0.0,0.0,0.0,0.0,0.0,0.0,0.0,0.0,0.0,0.0,0.0,0.0,0.0,0.0,0.0,0.0,0.0,0.0,0.0,0.0,0.0,0.0,0.0,0.0,0.0,0.0,0.0,0.0,0.0,0.0,0.0,0.0,0.0,0.0,0.0,0.0,0.0,0.0,0.0,0.0,0.0,0.0,0.0,0.0,0.0,0.0,0.0,0.0,0.0,0.0,0.0,0.0,0.0,0.0,0.0,0.0,0.0,0.0,0.0,0.0,0.0,0.0,0.0,0.0,0.0,0.0,0.0,0.0,0.0,0.0,0.0,0.0,0.0,0.0,0.0,0.0,0.0,0.0,0.0,0.0,0.0,0.0,0.0,0.0,0.0,0.0,0.0,0.0,0.0,0.0,0.0,0.0,0.0,0.0,0.0,0.0,0.0,0.0,0.0,0.0,0.0,0.0,0.0,0.0,0.0,0.0,0.0,0.0,0.0,0.0,0.0,0.0,0.0,0.0,0.0,0.0,0.0,0.0,0.0,0.0,0.0,0.0,0.0,0.0,0.0,0.0,0.0,0.0,0.0,0.0,0.0,0.0,0.0,0.0,0.0,0.0,0.0,0.0,0.0,0.0,0.0,0.0,0.0,0.0,0.0,0.0,0.0,0.0,0.0,0.0,0.0,0.0,0.0,0.0,0.0,0.0,0.0,0.0,0.0,0.0,0.0,0.0,0.0,0.0,0.0,0.0,0.0,0.0,0.0,0.0,0.0,0.0,0.0,0.0,0.0,0.0,0.0,0.0,0.0,0.0,0.0,0.0,0.0,0.0,0.0,0.0,0.0,0.0,0.0,0.0,0.0,0.0,0.0,0.0,0.0,0.0,0.0,0.0,0.0,0.0,0.0,0.0,0.0,0.0,0.0,0.0,0.0,0.0,0.0,0.0,0.0,0.0,0.0,0.0,0.0,0.0,0.0,0.0,0.0,0.0,0.0,0.0,0.0,0.0,0.0,0.0,0.0,0.0,0.0,0.0,0.0,0.0,0.0,0.0,0.0,0.0,0.0,0.0,0.0,0.0,0.0,0.0,0.0,0.0,0.0,0.0,0.0,0.0,0.0,0.0,0.0,0.0,0.0,0.0,0.0,0.0,0.0,0.0,0.0,0.0,0.0,0.0,0.0,0.0,0.0,0.0,0.0,0.0,0.0,0.0,0.0,0.0,0.0,0.0,0.0,0.0,0.0,0.0,0.0,0.0,0.0,0.0,0.0,0.0,0.0,0.0,0.0,0.0,0.0,0.0,0.0,0.0,0.0,0.0,0.0,0.0,0.0,0.0,0.0,0.0,0.0,0.0,0.0,0.0,0.0,0.0,0.0,0.0,0.0,0.0,0.0,0.0,0.0,0.0,0.0,0.0,0.0,0.0,0.0,0.0,0.0,0.0,0.0,0.0,0.0,0.0,0.0,0.0,0.0,0.0,0.0,0.0,0.0,0.0,0.0,0.0,0.0,0.0,0.0,0.0,0.0,0.0,0.0,0.0,0.0,0.0,0.0,0.0,0.0,0.0,0.0,0.0,0.0,0.0,0.0,0.0,0.0,0.0,0.0,0.0,0.0,0.0,0.0,0.0,0.0,0.0,0.0,0.0,0.0,0.0,0.0,0.0,0.0,0.0,0.0,0.0,0.0,0.0,0.0,0.0,0.0,0.0,0.0,0.0,0.0,0.0,0.0,0.0,0.0,0.0,0.0,0.0,0.0,0.0,0.0,0.0,0.0,0.0,0.0,0.0,0.0,0.0,0.0,0.0,0.0,0.0,0.0,0.0,0.0,0.0,0.0,0.0,0.0,0.0,0.0,0.0,0.0,0.0,0.0,0.0,0.0,0.0,0.0,0.0,0.0,0.0,0.0,0.0,0.0,0.0,0.0,0.0,0.0,0.0,0.0,0.0,0.0,0.0,0.0,0.0,0.0,0.0,0.0,0.0,0.0,0.0,0.0,0.0,0.0,0.0,0.0,0.0,0.0,0.0,0.0,0.0,0.0,0.0,0.0,0.0,0.0,0.0,0.0,0.0,0.0,0.0,0.0,0.0,0.0,0.0,0.0,0.0,0.0,0.0,0.0,0.0,0.0,0.0,0.0,0.0,0.0,0.0,0.0,0.0,0.0,0.0,0.0,0.0,0.0,0.0,0.0,0.0,0.0,0.0,0.0,0.0,0.0,0.0,0.0,0.0,0.0,0.0,0.0,0.0,0.0,0.0,0.0,0.0,0.0,0.0,0.0,0.0,0.0,0.0,0.0,0.0,0.0,0.0,0.0,0.0,0.0,0.0,0.0,0.0,0.0,0.0,0.0,0.0,0.0,0.0,0.0,0.0,0.0,0.0,0.0,0.0,0.0,0.0,0.0,0.0,0.0,0.0,0.0,0.0,0.0,0.0,0.0,0.0,0.0,0.0,0.0,0.0,0.0,0.0,0.0,0.0,0.0,0.0,0.0,0.0,0.0,0.0,0.0,0.0,0.0,0.0,0.0,0.0,0.0,0.0,0.0,0.0,0.0,0.0,0.0,0.0,0.0,0.0,0.0,0.0,0.0,0.0,0.0,0.0,0.0,0.0,0.0,0.0,0.0,0.0,0.0,0.0,0.0,0.0,0.0,0.0,0.0,0.0,0.0,0.0,0.0,0.0,0.0,0.0,0.0,0.0,0.0,0.0,0.0,0.0,0.0,0.0,0.0,0.0,0.0,0.0,0.0,0.0,0.0,0.0,0.0,0.0,0.0,0.0,0.0,0.0,0.0,0.0,0.0,0.0,0.0,0.0,0.0,0.0,0.0,0.0,0.0,0.0,0.0,0.0,0.0,0.0,0.0,0.0,0.0,0.0,0.0,0.0,0.0,0.0,0.0,0.0,0.0,0.0,0.0,0.0,0.0,0.0,0.0,0.0,0.0,0.0,0.0,0.0,0.0,0.0,0.0,0.0,0.0,0.0,0.0,0.0,0.0,0.0,0.0,0.0,0.0,0.0,0.0,0.0,0.0,0.0,0.0,0.0,0.0,0.0,0.0,0.0,0.0,0.0,0.0,0.0,0.0,0.0,0.0,0.0,0.0,0.0,0.0,0.0,0.0,0.0,0.0,0.0,0.0,0.0,0.0,0.0,0.0,0.0,0.0,0.0,0.0,0.0,0.0,0.0,0.0,0.0,0.0,0.0,0.0,0.0,0.0,0.0,0.0,0.0,0.0,0.0,0.0,0.0,0.0,0.0,0.0,0.0,0.0,0.0,0.0,0.0,0.0,0.0,0.0,0.0,0.0,0.0,0.0,0.0,0.0,0.0,0.0,0.0,0.0,0.0,0.0,0.0,0.0,0.0,0.0,0.0,0.0,0.0,0.0,0.0,0.0,0.0,0.0,0.0,0.0,0.0,0.0,0.0,0.0,0.0,0.0,0.0,0.0,0.0,0.0,0.0,0.0,0.0,0.0,0.0,0.0,0.0,0.0,0.0,0.0,0.0,0.0,0.0,0.0,0.0,0.0,0.0,0.0,0.0,0.0,0.0,0.0,0.0,0.0,0.0,0.0,0.0,0.0,0.0,0.0,0.0,0.0,0.0,0.0,0.0,0.0,0.0,0.0,0.0,0.0,0.0,0.0,0.0,0.0,0.0,0.0,0.0,0.0,0.0,0.0,0.0,0.0,0.0,0.0,0.0,0.0,0.0,0.0,0.0,0.0,0.0,0.0,0.0,0.0,0.0,0.0,0.0,0.0,0.0,0.0,0.0,0.0,0.0,0.0,0.0,0.0,0.0,0.0,0.0,0.0,0.0,0.0,0.0,0.0,0.0,0.0,0.0,0.0,0.0,0.0,0.0,0.0,0.0,0.0,0.0,0.0,0.0,0.0,0.0,0.0,0.0,0.0,0.0,0.0,0.0,0.0,0.0,0.0,0.0,0.0,0.0,0.0,0.0,0.0,0.0,0.0,0.0,0.0,0.0,0.0,0.0,0.0,0.0,0.0,0.0,0.0,0.0,0.0,0.0,0.0,0.0,0.0,0.0,0.0,0.0,0.0,0.0,0.0,0.0,0.0,0.0,0.0,0.0,0.0,0.0,0.0,0.0,0.0,0.0,0.0,0.0,0.0,0.0,0.0,0.0,0.0,0.0,0.0,0.0,0.0,0.0,0.0,0.0,0.0,0.0,0.0,0.0,0.0,0.0,0.0,0.0,0.0,0.0,0.0,0.0,0.0,0.0,0.0,0.0,0.0,0.0,0.0,0.0,0.0,0.0,0.0,0.0,0.0,0.0,0.0,0.0,0.0,0.0,0.0,0.0,0.0,0.0,0.0,0.0,0.0,0.0,0.0,2.2973,0.0,0.0,0.0,0.0,0.0,0.0,0.0,0.0,0.0,0.0,0.0,0.0,0.0,0.0,0.0,0.0,0.0,0.0,0.0,0.0,0.0,0.0,0.0,0.0,0.0,0.0,0.0,0.0,0.0,0.0,0.0,0.0,0.0,0.0,0.0,0.0,0.0,0.0,0.0,0.0,1.096,1.2191,1.1958,1.1696,1.1431,0.0,0.0,0.0,0.0,0.0,0.0,0.0,0.0,0.0,0.0,0.0,0.0,0.0,0.0,0.0,0.0,0.0,0.0,0.0,0.0,0.0,0.0,0.0,0.0,0.0,0.0,0.0,0.0,0.0,0.0,0.0,0.0,0.0,0.0,0.0,0.0,0.0,0.0,0.0,0.0,0.0,0.0,0.0,0.0,0.0,0.0,0.0,0.0,0.0,0.0,0.0,0.0,0.0,0.0,0.0,0.0,0.0,0.0,0.0,0.0,0.0,0.0,0.0,0.0,0.0,0.0,0.0,0.0,0.0,0.0,0.0,2.404,0.0,0.0,0.0,0.0,0.0,0.0,0.0,0.0,0.0,0.0,0.0,0.0,0.0,0.0,0.0,0.0,0.0,0.0,0.0,0.0,0.0,0.0,0.0,0.0,0.0,0.0,0.0,0.0,0.0,0.0,0.0,0.0,0.0,0.0,0.0,0.0,0.0,0.0,0.0,1.2972,1.4572,1.5756,1.583,1.4855,1.2824,0.0,0.0,0.0,0.0,0.0,0.0,0.0,0.0,0.0,0.0,0.0,0.0,0.0,0.0,0.0,0.0,0.0,0.0,0.0,0.0,0.0,0.0,0.0,0.0,0.0,0.0,0.0,0.0,0.0,0.0,0.0,0.0,0.0,0.0,0.0,0.0,0.0,0.0,0.0,0.0,0.0,0.0,0.0,0.0,0.0,0.0,0.0,0.0,0.0,0.0,0.0,0.0,0.0,0.0,0.0,0.0,0.0,0.0,0.0,0.0,0.0,0.0,0.0,2.6912,2.7185,2.7558,2.7759,2.8211,2.8807,2.7658,2.7192,2.7034,2.422,0.0,0.0,0.0,0.0,0.0,0.0,0.0,0.0,0.0,0.0,0.0,0.0,0.0,0.0,0.0,0.0,0.0,0.0,0.0,0.0,0.0,0.8089,0.8175,0.8583,0.8513,0.8643,0.0,0.0,0.0,0.0,0.0,0.0,0.0,0.0,0.0,0.0,1.4841,1.6625,1.7857,1.736,1.7416,1.7882,1.6529,1.6009,1.6085,0.0,0.0,0.0,0.0,0.0,0.0,0.0,0.0,0.0,0.0,0.0,0.0,0.0,0.0,0.0,0.0,0.0,0.0,0.0,0.0,0.0,0.0,0.0,0.0,0.0,0.0,0.0,0.0,0.0,0.0,0.0,0.0,0.0,0.0,0.0,0.0,0.0,0.0,0.0,0.0,0.0,2.2981,2.1,0.0,0.0,0.0,0.0,0.0,0.0,0.0,0.0,0.0,0.0,0.0,0.0,0.0,2.8324,3.0572,3.1111,3.1506,3.1744,3.1942,3.2077,3.2135,3.2272,3.2346,3.2344,3.2452,0.0,2.7834,2.7146,0.0,0.0,0.0,0.0,0.0,0.0,0.0,0.0,0.0,0.0,0.0,0.0,0.0,0.0,0.0,0.0,0.0,0.0,0.0,0.0,0.0,0.9238,0.9761,1.0086,1.0846,1.1002,1.0247,0.0,0.0,0.0,0.0,0.0,0.0,0.0,0.0,0.0,1.7021,1.8449,1.985,2.0074,2.0475,2.1003,2.0626,1.9051,1.6645,1.6317,0.0,0.0,0.0,0.0,0.0,0.0,0.0,0.0,0.0,0.0,0.0,0.0,0.0,0.0,0.0,0.0,0.0,0.0,0.0,0.0,0.0,0.0,0.0,0.0,0.0,0.0,0.0,0.0,0.0,0.0,0.0,0.0,0.0,0.0,0.0,0.0,0.0,0.0,0.0,2.2175,2.285,2.1234,2.1506,2.1096,0.0,0.0,0.0,0.0,0.0,0.0,0.0,0.0,0.0,2.7939,2.8739,2.9952,3.1668,3.224,3.2513,3.2594,3.2737,3.2832,3.2832,3.302,3.3114,3.3114,3.3191,3.2363,3.0848,2.9686,2.8622,2.7578,0.0,0.0,0.0,0.0,2.5269,2.5855,0.0,0.0,0.0,0.0,0.0,0.0,0.0,0.0,0.0,0.0,0.0,0.0,0.9641,1.1037,1.1996,1.217,1.3388,1.345,1.1747,1.2223,0.0,0.0,0.0,0.0,0.0,0.0,0.0,1.8523,1.9103,2.0066,2.1389,2.2138,2.2684,2.3016,2.3239,2.1409,1.8129,1.7955,1.7423,0.0,0.0,0.0,0.0,0.0,0.0,0.0,0.0,0.0,0.0,0.0,0.0,0.0,0.0,0.0,0.0,0.0,0.0,0.0,0.0,0.0,0.0,0.0,0.0,0.0,0.0,0.0,0.0,0.0,0.0,0.0,0.0,0.0,0.0,0.0,0.0,0.0,0.0,2.235,2.3139,2.2193,2.2456,2.2128,0.0,0.0,0.0,0.0,0.0,0.0,2.5962,2.607,2.7116,2.9418,3.0256,3.1193,3.2241,3.2633,3.2909,3.3006,3.3056,3.3074,3.3074,3.3314,3.3427,3.3444,3.3427,3.3458,3.3406,3.1842,3.1076,3.0736,2.894,2.8463,2.8674,2.8024,2.8255,2.9054,0.0,0.0,0.0,0.0,0.0,0.0,0.0,0.0,0.0,0.0,0.0,1.1114,1.1512,1.343,1.4747,1.489,1.5567,1.5315,1.3752,1.3637,1.308,1.1872,1.1906,0.0,0.0,0.0,0.0,2.0741,2.1471,2.2121,2.2698,2.2764,2.2844,2.3004,2.3148,2.2969,2.2498,2.1501,2.05,1.9396,0.0,0.0,0.0,0.0,0.0,0.0,0.0,0.0,0.0,0.0,0.0,0.0,0.0,0.0,0.0,0.0,0.0,0.0,0.0,0.0,0.0,0.0,0.0,0.0,0.0,0.0,0.0,0.0,0.0,0.0,0.0,0.0,0.0,0.0,0.0,0.0,0.0,0.0,0.0,2.5354,2.5896,0.0,0.0,0.0,0.0,2.7223,2.5815,2.6374,2.9822,2.9181,2.9707,3.1859,3.2521,3.3115,3.3685,3.3782,3.3988,3.4279,3.4109,3.4027,3.4027,3.4428,3.4413,3.4061,3.4461,3.4528,3.4278,3.3419,3.2362,3.1263,3.1129,3.0646,3.0081,3.0742,3.1331,3.1939,0.0,0.0,0.0,0.0,0.0,0.0,0.0,0.0,0.0,0.8933,1.0634,1.2141,1.296,1.5663,1.7452,1.7595,1.8625,1.853,1.6808,1.5875,1.4825,1.357,1.2704,0.0,0.0,0.0,1.9747,2.1548,2.2116,2.2572,2.2936,2.3328,2.3781,2.4298,2.434,2.4271,2.407,2.3396,2.2244,2.082,1.9948,1.8268,0.0,0.0,0.0,0.0,0.0,0.0,0.0,0.0,0.0,0.0,0.0,0.0,0.0,0.0,0.0,0.0,0.0,0.0,0.0,0.0,0.0,0.0,0.0,0.0,0.0,0.0,0.0,0.0,0.0,0.0,0.0,0.0,0.0,0.0,0.0,0.0,0.0,2.5697,2.5887,0.0,2.5489,2.5757,2.6491,2.7734,2.7867,2.8799,3.0827,3.0743,3.1133,3.2252,3.2757,3.3346,3.4037,3.4348,3.4794,3.5408,3.5493,3.5528,3.5528,3.5668,3.5505,3.5063,3.5127,3.5161,3.5107,3.4299,3.3783,3.3498,3.3498,3.366,3.3862,3.365,3.3985,3.4498,0.0,0.0,0.0,0.0,0.0,0.0,0.0,0.0,0.0,0.9907,1.2015,1.3924,1.5206,1.816,2.0027,1.9951,2.0907,2.0525,1.8182,1.7356,1.6162,1.4417,1.4014,0.0,0.0,1.9833,2.114,2.2639,2.284,2.3093,2.3467,2.3813,2.4245,2.4765,2.4892,2.4927,2.494,2.4722,2.3819,2.2472,2.2076,2.07,1.8672,0.0,0.0,0.0,0.0,0.0,0.0,0.0,0.0,0.0,0.0,0.0,0.0,0.0,0.0,0.0,0.0,0.0,0.0,0.0,0.0,0.0,0.0,0.0,0.0,0.0,0.0,0.0,0.0,0.0,0.0,0.0,0.0,0.0,0.0,0.0,2.6113,2.6334,2.6792,2.6999,2.6758,2.7399,2.8079,2.871,2.9358,3.0134,3.1147,3.1347,3.176,3.2513,3.2707,3.3306,3.4397,3.4525,3.5025,3.5906,3.6014,3.6086,3.6086,3.6229,3.6104,3.5703,3.5479,3.5461,3.5472,3.4627,3.438,3.4501,3.4501,3.4954,3.5503,3.479,3.49,3.5376,0.0,0.0,0.0,0.0,0.0,0.0,0.0,0.9062,0.9899,1.1244,1.4059,1.6563,1.8254,2.0867,2.2325,2.1866,2.228,2.1154,1.7791,1.7963,1.7013,1.4392,0.0,0.0,2.1342,2.1314,2.2208,2.4083,2.3747,2.3852,2.4292,2.4157,2.4171,2.4347,2.4664,2.4975,2.5285,2.5578,2.5272,2.4504,2.3473,2.2674,2.1778,0.0,0.0,0.0,0.0,0.0,0.0,0.0,0.0,0.0,0.0,0.0,0.0,0.0,0.0,0.0,0.0,0.0,0.0,0.0,0.0,0.0,0.0,0.0,0.0,0.0,0.0,0.0,0.0,0.0,0.0,0.0,0.0,0.0,2.5119,2.6106,2.7,2.751,2.8902,2.9707,2.9524,3.0048,3.0406,3.0406,3.0228,3.0381,3.0975,3.1013,3.1576,3.2751,3.2554,3.3193,3.4766,3.443,3.475,3.5738,3.5731,3.5739,3.5768,3.6165,3.6208,3.5971,3.5578,3.5421,3.5348,3.4456,3.4108,3.4119,3.4097,3.4362,3.4728,3.407,3.4124,3.4496,0.0,0.0,0.0,0.0,0.0,0.0,0.0,0.9105,1.0129,1.1775,1.4697,1.73,1.909,2.1453,2.2798,2.2472,2.228,2.1394,1.9573,1.8337,1.7169,1.599,0.0,0.0,2.125,2.2517,2.3296,2.3582,2.3599,2.3806,2.4157,2.3865,2.4308,2.5295,2.4851,2.5407,2.6679,2.5994,2.6073,2.6584,2.5466,2.4345,2.3207,0.0,0.0,0.0,0.0,0.0,0.0,0.0,0.0,0.0,0.0,0.0,0.0,0.0,0.0,0.0,0.0,0.0,0.0,0.0,0.0,0.0,0.0,0.0,0.0,0.0,0.0,0.0,0.0,0.0,0.0,0.0,2.3753,2.5208,2.5869,2.6644,2.7729,2.9206,2.936,2.9527,2.9885,3.0101,3.0228,3.0406,3.0368,3.0548,3.1113,3.1409,3.1871,3.2473,3.2854,3.3582,3.4657,3.4982,3.5565,3.6434,3.6536,3.6676,3.6878,3.7069,3.6751,3.6,3.6041,3.5778,3.5348,3.4456,3.4298,3.4558,3.4128,3.4172,3.4512,3.4565,3.503,3.5599,0.0,0.0,0.0,0.0,0.0,0.0,0.0,0.9493,1.0761,1.3071,1.5421,1.7748,2.0061,2.1656,2.2606,2.2723,2.1775,2.0657,1.9517,1.8011,1.7663,1.8795,0.0,2.1798,2.2321,2.3344,2.3802,2.3611,2.3872,2.4167,2.4478,2.4443,2.4897,2.5714,2.5442,2.5937,2.6922,2.6183,2.64,2.7155,2.6381,2.5688,2.4994,2.4091,2.3159,2.2169,2.0849,2.008,1.9468,1.8287,0.0,0.0,0.0,0.0,0.0,0.0,0.0,0.0,0.0,0.0,0.0,0.0,0.0,0.0,0.0,0.0,0.0,0.0,0.0,0.0,0.0,0.0,0.0,0.0,2.4669,2.5658,2.6559,2.7371,2.8349,2.9642,2.9593,2.9606,2.9947,2.9972,2.996,2.9973,3.0355,3.0713,3.0953,3.1629,3.2267,3.2756,3.3115,3.3772,3.4802,3.5171,3.5678,3.6429,3.6767,3.7049,3.7289,3.7541,3.7388,3.6873,3.6389,3.6027,3.5691,3.4502,3.4186,3.4374,0.0,0.0,0.0,0.0,3.5197,3.5627,0.0,0.0,0.0,0.0,0.0,0.0,0.0,0.9962,1.1484,1.4518,1.5989,1.7903,2.0887,2.1533,2.2002,2.2614,2.1032,1.9564,1.8506,1.7684,1.8655,2.1842,2.193,2.2557,2.4001,2.3959,2.3985,2.4144,2.4408,2.4714,2.511,2.5434,2.5706,2.5947,2.6149,2.6396,2.6593,2.6244,2.6351,2.675,2.6527,2.663,2.6799,2.5344,2.4687,2.4288,2.2303,2.1256,2.0641,1.9528,0.0,0.0,0.0,0.0,0.0,0.0,0.0,0.0,0.0,0.0,0.0,0.0,0.0,0.0,0.0,0.0,0.0,0.0,0.0,0.0,0.0,0.0,0.0,0.0,2.5481,2.6133,2.7029,2.8025,2.8796,2.9318,2.9573,2.9714,2.9714,2.9714,2.9611,2.9419,3.0308,3.0806,3.0698,0.0,0.0,0.0,0.0,3.3911,3.5024,3.5092,3.5392,3.5951,3.6517,3.6908,3.7226,3.7539,3.7814,3.7916,3.6641,3.6158,3.6121,3.4694,3.4068,3.3925,3.369,3.3809,3.4125,3.4606,3.494,3.5124,0.0,0.0,0.0,0.0,0.0,0.0,0.0,0.9682,1.1404,1.4006,1.5647,1.7593,2.036,2.1202,2.1623,2.1812,2.0757,1.9694,1.8775,1.9889,2.0965,2.1873,2.3009,2.4026,2.4919,2.4259,2.448,2.5669,2.4997,2.5,2.5623,2.5615,2.5978,2.667,2.624,2.6574,2.7399,2.6375,2.6205,2.6609,2.6187,2.6532,2.7305,2.7185,2.6916,2.6551,2.6001,2.5002,2.3713,2.2373,2.1015,1.9639,1.8238,0.0,0.0,0.0,0.0,0.0,0.0,0.0,0.0,0.0,0.0,0.0,0.0,0.0,0.0,0.0,0.0,0.0,0.0,0.0,0.0,2.3898,2.5114,2.6239,2.6852,2.7635,2.8401,2.9069,2.9209,2.926,2.926,2.9091,2.9118,2.938,3.0032,3.0663,3.121,3.201,3.2767,3.3459,3.3794,3.416,3.4604,3.4956,3.5251,3.5507,3.5446,0.0,3.6575,3.6612,3.6651,3.6726,3.661,3.6284,3.5797,3.5496,3.4989,3.4356,3.3911,3.3994,3.4364,3.461,3.4901,3.5183,0.0,0.0,0.0,0.0,0.0,0.0,0.0,0.978,1.1158,1.3329,1.4504,1.601,1.8258,1.8646,1.9031,1.9783,1.9539,1.9315,1.9206,2.0572,2.1951,2.3191,2.3857,2.4421,2.4888,2.4477,2.4708,2.5655,2.5441,2.5649,2.6255,2.6446,2.6798,2.7177,2.6985,2.7218,2.7688,2.696,2.665,2.6677,2.6356,2.6516,2.6985,2.7207,2.7305,2.7248,2.6925,2.6192,2.523,2.4109,2.2789,2.1476,2.0699,1.9221,1.7651,0.0,0.0,0.0,0.0,0.0,0.0,0.0,0.0,0.0,0.0,0.0,0.0,0.0,0.0,2.3246,2.3882,0.0,2.4779,2.5228,2.5902,2.6469,2.6851,2.7265,2.7909,2.8821,2.8961,2.9,2.9091,2.8816,2.8803,2.9236,2.984,3.0511,3.1223,3.2106,3.2895,3.3467,3.3903,3.4164,3.4313,3.4738,3.5044,3.5236,3.5318,3.5704,3.6391,3.6462,3.6553,3.6668,3.6396,3.6085,3.5798,3.5102,3.4431,3.391,3.376,3.3991,3.4448,3.4817,3.5063,3.518,0.0,0.0,0.0,0.0,0.0,0.0,0.0,0.0,1.0929,1.2619,1.338,1.4442,1.6173,1.6171,1.6455,1.7467,1.8345,1.8997,1.9382,2.09,2.2608,2.4466,2.4469,2.4589,2.4953,2.4759,2.4967,2.5602,2.5778,2.613,2.6645,2.7125,2.7333,2.7366,2.7604,2.7657,2.7545,2.7176,2.6792,2.6398,2.6159,2.612,2.6176,2.625,2.6727,2.7352,2.6951,2.6396,2.5795,2.5248,2.422,2.316,2.3325,2.1788,1.9795,1.9232,1.8852,0.0,0.0,0.0,0.0,0.0,0.0,0.0,0.0,0.0,2.3041,2.3326,2.3784,2.4359,2.5256,2.5317,2.5619,2.6712,2.6735,2.67,2.697,2.7162,2.7609,2.8518,2.8605,2.8685,2.8855,2.8538,2.8507,2.9041,2.9697,3.0415,3.115,3.2177,3.2983,3.3485,3.383,3.4051,3.4138,3.46,3.488,3.5086,3.544,3.5804,3.6272,3.6443,3.6626,3.6847,3.6203,3.591,3.5791,3.4539,3.379,3.3381,3.3501,3.3839,3.4332,3.4883,3.5115,3.5115,0.0,0.0,0.0,0.0,0.0,0.0,0.0,0.0,0.0,1.2041,1.3093,1.4262,1.5723,1.6064,1.6019,1.566,1.8089,1.9404,1.8742,2.1736,2.3758,2.4314,2.472,2.5335,2.6183,2.5276,2.5503,2.6973,2.5958,2.5767,2.6352,2.6651,2.6798,2.6824,2.7181,2.7116,2.6707,2.6011,2.5488,2.5096,2.471,2.4733,2.4937,2.4546,2.5639,2.7412,2.7475,2.6633,2.5533,2.5914,2.5111,2.4016,2.4257,2.3971,2.3255,2.191,0.0,2.0529,2.1462,2.2595,2.3526,2.3547,2.3269,2.3058,0.0,0.0,2.5304,2.5492,2.609,2.6601,2.6532,2.6127,2.5935,2.6407,2.6551,2.678,2.7278,2.7616,2.7862,2.8002,2.8002,2.8002,2.8042,2.7777,2.7993,2.8845,2.9642,3.0507,3.1399,3.2473,3.3172,3.3382,3.3645,3.394,3.4347,3.4634,3.488,3.5086,3.5154,3.5399,3.5804,3.579,3.6045,3.647,3.6362,3.6055,3.5512,3.4799,3.42,3.3637,3.3424,3.3563,3.3942,3.4549,3.4817,3.4935,0.0,0.0,0.0,0.0,0.0,0.0,0.0,0.0,0.0,0.0,1.2018,1.3046,1.3641,1.4045,1.412,1.3712,1.6395,1.8158,1.8232,2.1259,2.3341,2.4028,2.4581,2.5155,2.5685,2.5269,2.5527,2.6548,2.5875,2.5985,2.6925,2.678,2.6987,2.7511,2.7112,2.6909,2.6731,2.5901,2.5286,2.4896,2.4853,2.4826,2.4768,2.4409,2.4894,2.5678,2.4995,2.4637,0.0,0.0,2.4338,2.3514,2.4433,2.3502,2.2101,2.2263,2.1809,0.0,2.4352,2.5124,2.5341,2.5909,2.5505,2.5076,2.5491,2.6028,2.6583,2.7235,2.7589,2.7755,2.7549,2.7404,2.7239,0.0,2.7336,2.7517,2.7397,2.7528,2.7655,2.7655,2.78,2.7893,2.7893,2.825,2.8661,2.9116,2.9513,3.0283,3.1455,3.2099,3.2711,3.3197,3.3513,3.3894,3.4243,3.4452,3.4701,3.4921,3.4921,3.5086,3.5358,3.5358,3.5521,3.579,3.557,3.5309,3.5034,3.409,3.3618,3.3413,3.2938,3.3199,3.3874,3.4346,3.4616,3.4783,0.0,0.0,0.0,0.0,0.0,0.0,0.0,0.0,0.0,0.0,0.0,1.2205,1.2205,1.2494,1.2622,1.2373,1.4688,0.0,0.0,2.0221,2.2385,2.3567,2.4326,2.4926,2.5272,2.5314,2.5548,2.5988,2.5643,2.5943,2.6779,2.6489,2.6712,2.7346,2.6749,2.6534,2.6559,2.5649,2.5063,2.471,2.4645,2.4554,2.4412,2.3903,2.3688,2.3565,2.289,2.291,0.0,2.3725,2.3246,2.2666,2.3864,2.2957,2.1661,2.2753,2.315,2.3678,2.5685,2.6347,2.6652,2.7386,2.6941,2.6465,2.6948,2.7067,2.7265,2.8007,2.81,2.8045,2.8013,2.7895,2.7738,2.7591,2.7718,2.7714,2.7443,2.7531,2.7563,2.7522,2.8007,2.8279,2.7999,2.8562,2.897,2.9136,2.9422,3.0048,3.1149,3.1737,3.2333,3.2928,3.3437,3.3852,3.4202,3.441,3.4577,3.4714,3.4839,3.488,3.4908,3.5031,3.5115,3.513,3.4819,3.4573,3.4272,3.3455,3.3067,3.296,3.2523,3.2881,3.3701,3.4059,3.4414,3.4698,0.0,0.0,0.0,0.0,0.0,0.0,0.0,0.0,0.0,0.0,0.0,0.0,0.0,0.0,1.2163,1.2032,1.3409,0.0,0.0,1.87,2.1054,2.2842,2.4,2.4886,2.5481,2.5633,2.5674,2.5702,2.5369,2.5215,2.5269,2.5392,2.5465,2.5505,2.588,2.5962,2.578,2.4823,2.4364,2.4146,2.345,2.336,2.35,2.2398,2.1707,2.1418,2.2222,0.0,2.1838,2.2297,2.2093,2.1739,2.2367,2.3059,0.0,2.4106,2.5626,2.6709,2.4809,2.5753,2.726,2.7216,2.6961,2.6676,2.6714,2.6946,2.7266,2.7493,2.7387,2.7339,2.7748,2.7059,2.6759,2.763,2.7248,2.7016,2.744,2.7736,2.7788,2.7522,2.8767,2.9251,0.0,2.8194,2.8383,2.8677,2.93,2.9893,3.042,3.1551,3.2323,3.2599,3.3317,3.3924,3.4397,3.466,3.466,3.4397,3.4867,3.4867,3.4439,3.4908,3.4888,3.4512,3.4525,3.3983,3.3142,3.3115,3.2762,3.2232,3.2218,3.266,3.3339,3.3563,3.4094,3.4698,0.0,0.0,0.0,0.0,0.0,0.0,0.0,0.0,0.0,0.0,0.0,0.0,0.0,0.0,0.0,0.0,1.2476,1.3398,1.4474,1.7636,1.9874,2.0726,2.2734,2.3927,2.4159,2.4212,2.4525,2.5088,2.4587,2.4857,2.579,2.5424,2.5595,2.618,2.5784,2.5584,2.5484,2.4575,2.4132,2.397,2.3586,2.378,2.411,2.2036,2.1439,2.1485,0.0,0.0,1.952,1.9942,2.022,2.0483,2.0966,2.105,2.1374,2.3389,2.5243,2.6782,2.7505,2.749,2.7305,2.7643,2.7108,2.6562,2.6834,2.6882,2.6975,2.7394,2.6934,2.6395,2.6422,2.6663,2.6829,2.6758,2.7643,2.8117,2.7585,2.7563,2.758,2.7376,2.7874,0.0,0.0,0.0,0.0,2.9192,2.9482,2.9978,3.0575,3.1203,3.1625,3.1849,3.281,3.3356,3.3539,3.3894,3.4021,3.3924,3.4285,3.4369,3.4202,3.4714,3.4603,3.4099,3.4246,3.4003,3.3495,3.3317,3.303,3.2738,3.2577,3.2846,3.3304,3.3374,3.3874,3.4481,0.0,0.0,0.0,0.0,0.0,0.0,0.0,0.0,0.0,0.0,0.0,0.0,0.0,0.0,0.0,0.0,0.0,1.2388,1.3445,0.0,1.7603,1.8732,2.0234,2.1349,2.2062,2.1871,2.2196,2.305,2.3046,2.358,2.464,2.4523,2.4824,2.5362,2.48,2.4689,2.4878,2.4244,2.3706,2.3311,2.3059,2.2876,2.2575,2.0761,2.0207,0.0,0.0,1.7139,1.7392,1.7988,1.8848,1.9677,1.9742,2.0425,2.1477,2.2795,2.5008,2.7205,2.8082,2.7685,2.7093,2.7347,2.6778,2.6169,2.6422,2.6478,2.6578,2.6944,2.6388,2.5766,2.572,2.6248,2.6606,2.6258,2.7545,2.8309,2.7487,2.7429,2.7462,2.7392,2.7583,2.784,0.0,0.0,0.0,2.9178,2.9503,2.9905,3.0438,3.0821,3.1228,3.1637,3.2324,3.2782,3.3056,3.3343,3.3513,3.3598,3.3781,3.3949,3.4118,3.441,3.4316,3.3898,3.4059,3.3754,3.3227,3.3286,3.3015,3.2627,3.268,3.3037,3.3494,3.3283,3.3774,3.4513,0.0,0.0,0.0,0.0,0.0,0.0,0.0,0.0,0.0,0.0,0.0,0.0,0.0,0.0,0.0,0.0,0.0,0.0,1.2781,0.0,0.0,1.6792,1.6815,1.7565,1.9274,1.8827,1.8934,1.9751,2.0752,2.1448,2.1856,2.2608,2.2984,2.3011,2.288,2.3217,2.3852,2.3608,2.299,2.2144,2.1816,2.0764,1.932,1.8752,0.0,0.0,0.0,1.633,1.564,1.6563,1.7961,1.9258,1.8879,2.1131,2.37,2.2608,2.5042,2.784,2.6632,2.6482,2.6635,2.6447,2.5978,2.5606,2.5606,2.5888,2.613,2.6227,2.5785,2.5407,0.0,0.0,2.5927,2.6005,2.6883,2.7462,2.7157,2.7348,2.7497,0.0,0.0,0.0,0.0,0.0,0.0,2.8623,0.0,2.9743,2.9972,3.0474,3.109,3.1794,3.1886,3.2232,3.2945,3.2957,3.3129,3.3356,3.3398,3.3654,3.4076,3.4076,3.3986,3.3858,3.3858,3.3317,3.2477,3.3063,3.2778,3.1947,3.2511,3.3172,3.3782,3.3197,3.3734,3.4682,0.0,0.0,0.0,0.0,0.0,0.0,0.0,0.0,0.0,0.0,0.0,0.0,0.0,0.0,0.0,0.0,0.0,0.0,1.0767,0.0,0.0,0.0,0.0,0.0,0.0,0.0,0.0,1.7737,1.7855,1.8476,1.9544,1.9651,2.0007,2.0508,2.0601,2.0683,2.0832,2.0738,2.0586,2.0347,0.0,2.0228,2.0246,0.0,0.0,0.0,0.0,0.0,1.5801,1.635,1.7306,1.8589,2.0359,2.1195,2.1882,2.3909,2.4844,2.5593,2.7131,2.6862,2.6115,2.623,2.5804,2.5488,2.5955,2.6203,2.6452,2.6857,2.5685,2.4567,0.0,0.0,0.0,2.3685,2.5755,0.0,2.6021,2.6733,0.0,2.737,0.0,2.7894,2.8079,2.7947,0.0,0.0,2.8589,2.8893,2.9378,3.0,3.0489,3.0867,3.1426,3.1836,3.2045,3.2537,3.2797,3.2884,3.3227,3.3441,3.3569,3.3725,3.364,3.337,3.337,3.3183,3.2894,3.3357,3.2948,3.2137,3.2874,3.3009,3.2803,3.2937,3.3557,3.4255,0.0,0.0,0.0,0.0,0.0,0.0,0.0,0.0,0.0,0.0,0.0,0.0,0.0,0.0,0.0,0.0,0.0,0.0,0.0,0.0,0.0,0.0,0.0,0.0,0.0,0.0,0.0,0.0,0.0,0.0,1.6905,1.728,1.7815,1.8507,1.8528,1.8912,1.9525,1.9447,0.0,0.0,0.0,0.0,0.0,0.0,0.0,0.0,0.0,0.0,0.0,0.0,0.0,1.9146,2.1291,2.2123,2.2619,2.4263,2.5005,2.56,2.6919,2.6607,2.5863,2.5699,2.5202,2.4704,2.4657,2.4727,2.4793,2.4868,2.4034,2.3294,2.3336,2.3521,0.0,0.0,0.0,0.0,2.5984,2.6367,2.6765,0.0,2.6984,0.0,2.7474,2.748,2.754,0.0,2.8387,2.9044,2.9609,2.9997,3.0346,3.0702,3.0799,3.0953,3.1181,3.1904,3.2276,3.2276,3.2766,3.3068,3.327,3.3204,3.3261,3.3418,3.3392,3.3257,3.3144,3.3705,3.3381,3.2539,3.2999,3.3183,3.3156,3.2933,3.3452,3.4239,0.0,0.0,0.0,0.0,0.0,0.0,0.0,0.0,0.0,0.0,0.0,0.0,0.0,0.0,0.0,0.0,0.0,0.0,0.0,0.0,0.0,0.0,0.0,0.0,0.0,0.0,0.0,0.0,0.0,0.0,0.0,0.0,0.0,0.0,0.0,0.0,0.0,0.0,0.0,0.0,0.0,0.0,0.0,0.0,0.0,0.0,0.0,0.0,0.0,0.0,1.994,2.0152,2.1937,2.3342,2.4367,2.4104,2.5204,2.6461,2.6286,2.6,2.5618,2.5123,2.4495,2.3742,2.3013,2.2854,2.272,2.2151,0.0,2.2275,2.2498,2.2935,2.3389,2.3759,0.0,2.5577,2.6145,2.6008,2.6116,2.685,2.6406,2.6295,2.6914,2.6993,2.7022,2.6976,2.8475,2.9499,2.9863,3.0014,3.0293,3.0871,3.0178,3.0048,3.0585,3.1344,3.1749,3.1761,3.2213,3.2649,3.3013,3.2634,3.2882,3.3645,3.3457,3.3305,3.3301,3.3882,3.3709,3.2988,3.2909,3.3349,3.3878,3.2987,3.3372,3.4328,0.0,0.0,0.0,0.0,0.0,0.0,0.0,0.0,0.0,0.0,0.0,0.0,0.0,0.0,0.0,0.0,0.0,0.0,0.0,0.0,0.0,0.0,0.0,0.0,0.0,1.0559,1.0597,1.0753,1.1119,0.0,0.0,0.0,0.0,0.0,0.0,0.0,0.0,0.0,0.0,0.0,0.0,0.0,0.0,0.0,0.0,0.0,0.0,0.0,0.0,0.0,1.9958,2.0021,2.2565,2.3617,2.3968,2.4165,2.4863,2.5558,2.5511,2.5253,2.4992,2.4981,2.4355,2.3732,2.3646,2.3654,0.0,0.0,2.3024,2.308,2.2854,2.351,2.3605,2.2145,2.3766,2.4979,2.4309,2.4914,2.5855,0.0,2.6915,2.6847,2.721,2.7594,0.0,0.0,2.8533,2.8908,2.8405,2.8966,2.959,3.0306,3.0179,3.0446,3.1163,3.1669,3.1937,3.1937,3.2257,3.2519,3.2742,3.2237,3.2528,3.3377,3.2444,3.2551,3.34,3.2955,3.2829,3.2948,3.2473,3.2543,3.2904,3.2568,3.3,3.3782,0.0,0.0,0.0,0.0,0.0,0.0,0.0,0.0,0.0,0.0,0.8724,0.0,0.0,0.0,0.0,0.0,0.0,0.0,0.0,0.0,0.0,0.0,0.0,0.0,0.0,1.0261,1.0311,1.0449,0.0,1.0829,1.1088,1.1138,1.1541,1.2196,1.225,1.2523,1.2966,0.0,0.0,1.4409,1.4576,1.499,0.0,0.0,0.0,0.0,0.0,0.0,0.0,0.0,1.8828,1.887,2.2102,2.376,2.4406,2.4114,2.4607,2.5263,2.5298,2.5052,2.4754,2.4503,2.3839,2.3067,2.228,0.0,0.0,0.0,2.1111,2.1546,2.1913,2.2705,0.0,2.2116,2.3536,2.4681,2.4389,2.4847,0.0,2.7321,2.7169,2.707,0.0,2.7773,2.7773,2.7262,2.7914,2.8333,2.8429,2.8868,2.9282,2.9601,2.9908,3.0248,3.0738,3.1231,3.154,3.1629,3.1994,3.23,3.2537,3.2194,3.2323,3.276,3.245,3.2455,3.262,3.278,3.2942,3.3091,3.2254,3.2443,3.31,3.2577,3.2824,3.3501,0.0,0.0,0.0,0.0,0.0,0.0,0.0,0.977,0.9393,0.8534,0.8402,0.8571,0.9036,0.8528,0.0,0.0,0.0,0.0,0.0,0.0,0.0,0.0,0.0,0.0,0.0,0.0,0.0,1.0486,1.0632,0.0,0.0,0.0,0.0,0.0,1.1702,1.214,1.2808,1.2825,1.3371,0.0,0.0,1.4517,0.0,0.0,0.0,0.0,0.0,0.0,0.0,0.0,1.7808,1.7821,2.1004,2.2964,2.3998,2.3824,2.4245,2.4844,2.52,2.4981,2.449,2.408,2.3349,2.2354,2.0931,2.0364,0.0,1.8655,1.9031,1.9809,2.0687,2.1677,2.2338,0.0,2.3319,2.4243,2.4434,2.4737,2.5543,0.0,2.7073,0.0,2.7247,2.7715,0.0,2.7071,2.7499,2.8008,2.8524,2.8757,2.8894,2.9049,2.9579,3.001,3.0285,3.0817,3.1184,3.1395,3.1805,3.2108,3.2278,3.205,3.2039,3.2164,3.252,3.2337,3.1879,3.2699,3.3016,3.297,3.198,3.2315,3.3277,3.2558,3.2717,3.3276,0.0,0.0,0.0,0.0,0.0,0.0,0.0,1.0681,1.0154,0.8686,0.9007,0.9128,0.8465,0.8171,0.0,0.0,0.0,0.0,0.0,0.0,0.0,0.0,0.0,0.0,0.0,0.0,0.0,1.0412,1.0668,0.0,0.0,0.0,0.0,0.0,0.0,1.1605,1.2156,1.1805,0.0,0.0,0.0,0.0,0.0,0.0,0.0,0.0,0.0,0.0,0.0,0.0,0.0,1.7741,1.9304,2.018,2.1054,2.3119,0.0,0.0,2.4938,2.4683,2.4007,2.4152,2.3173,2.1967,2.1131,0.0,1.9467,1.8133,1.8659,1.9496,2.0014,2.1298,2.2047,2.1277,0.0,2.341,2.3106,2.3702,2.4574,2.5839,0.0,0.0,2.63,2.7326,2.7893,2.7552,2.8045,2.816,2.7726,2.7951,2.8305,2.883,2.9531,3.0125,3.0553,3.1015,3.1395,3.1673,3.1893,3.1932,3.1843,3.1394,3.1474,3.2003,3.1934,3.1856,3.185,3.2278,3.2345,3.212,3.1376,3.167,3.2473,3.2226,3.2525,3.3108,0.0,0.0,0.0,0.0,0.0,0.0,0.0,1.0647,1.0351,0.9774,0.944,0.9147,0.8876,0.8299,0.0,0.0,0.0,0.0,0.0,0.0,0.0,0.0,0.0,0.0,0.0,0.0,1.0274,1.0399,1.0668,0.0,0.0,0.0,0.0,0.0,0.0,1.1378,1.1691,0.0,0.0,0.0,0.0,0.0,0.0,0.0,0.0,0.0,0.0,0.0,1.5918,0.0,0.0,0.0,1.7362,1.7913,0.0,0.0,2.262,2.2887,2.4501,2.4268,2.353,2.321,2.2799,2.212,2.0696,0.0,1.9392,1.8171,1.8308,1.8761,1.92,2.0638,2.1385,2.0156,0.0,0.0,2.312,2.3609,2.4671,2.6662,2.7013,0.0,0.0,0.0,2.6982,2.6706,2.7336,2.7594,2.7177,2.7536,2.8045,2.8735,2.9174,2.9817,3.0578,3.096,3.1318,3.1705,3.2081,3.2093,3.1878,3.178,3.1619,3.1361,3.1625,3.1613,3.1453,3.1747,3.1954,3.2013,3.1271,3.144,3.2064,3.2235,3.2525,3.2917,0.0,0.0,0.0,0.0,0.0,0.0,1.08,1.0862,1.0878,1.0461,0.999,0.9558,0.918,0.8568,0.8101,0.7893,0.0,0.0,0.0,0.0,0.0,0.0,0.0,0.0,0.0,0.0,1.0299,1.0461,1.0705,1.0813,0.0,0.0,1.0968,1.105,0.0,0.0,0.0,0.0,0.0,0.0,0.0,0.0,0.0,0.0,0.0,0.0,0.0,0.0,0.0,0.0,0.0,0.0,0.0,0.0,0.0,0.0,2.1904,2.2365,2.4424,2.4344,2.3581,2.3138,2.2706,2.1997,0.0,0.0,1.9131,1.8228,1.8206,1.8481,1.8934,2.0065,2.0586,1.9543,0.0,2.217,2.2251,2.2892,2.4057,0.0,0.0,2.6519,0.0,2.6591,2.661,2.6428,2.6965,2.7262,2.7225,2.7309,2.7615,2.8157,2.8855,2.951,3.0076,3.0711,3.1241,3.1717,3.2169,3.2278,3.1975,3.2131,3.1817,3.1174,3.1629,3.1578,3.1219,3.1408,3.1537,3.16,3.1052,3.1083,3.1535,3.2108,3.2453,3.2739,0.0,0.0,0.0,0.0,0.0,0.0,0.0,1.1628,1.193,1.0401,1.0708,1.0544,0.9161,0.893,0.8596,0.7864,0.0,0.0,0.0,0.0,0.0,0.0,0.0,0.0,0.0,0.0,1.0535,1.0609,1.0801,1.0932,1.0991,1.112,1.1204,1.1204,0.0,0.0,0.0,0.0,0.0,0.0,0.0,0.0,0.0,0.0,0.0,0.0,0.0,0.0,0.0,0.0,0.0,0.0,0.0,0.0,0.0,0.0,2.1557,2.2032,2.491,2.4988,2.4344,2.4539,2.3028,2.1481,0.0,1.9955,1.8526,1.8255,1.8447,1.8876,1.9493,1.9711,1.9751,1.952,2.0421,0.0,1.9955,2.1097,2.23,0.0,0.0,2.5141,2.5396,2.6469,2.7183,2.7183,2.7183,0.0,2.7951,2.7309,2.6934,2.7037,2.8644,2.9296,2.8835,3.0256,3.1241,3.1717,3.2169,3.2308,3.2215,3.2215,3.2062,3.1798,3.1988,3.1757,3.1199,3.1415,3.1143,3.0589,3.0452,3.0533,3.0811,3.1776,3.2237,3.2561,0.0,0.0,0.0,0.0,0.0,0.0,0.0,0.0,1.1505,1.1567,1.1249,1.0674,0.9723,0.9143,0.8549,0.7857,0.0,0.0,0.0,0.0,0.0,0.0,0.0,0.0,0.0,0.0,1.056,1.0668,1.0729,1.0801,1.0861,1.0908,1.0991,1.1132,1.125,1.1431,0.0,0.0,0.0,0.0,0.0,0.0,0.0,0.0,0.0,0.0,0.0,0.0,0.0,0.0,0.0,0.0,0.0,0.0,0.0,1.8109,0.0,0.0,2.1069,2.1481,2.1305,2.0836,2.0544,2.0153,1.9221,1.8686,1.8264,1.7797,1.7772,1.7988,1.8525,1.8874,1.9264,1.9925,2.0506,0.0,0.0,0.0,0.0,2.2827,2.4004,2.4896,0.0,0.0,2.5849,2.6428,2.6428,2.6524,2.6668,2.6842,2.7163,2.7645,2.8519,2.9074,2.9296,3.0429,3.1241,3.1717,3.2169,3.2308,3.2215,3.2215,3.2032,3.1698,3.1427,3.1629,3.2159,3.1159,3.0924,3.1206,3.1008,3.0906,3.0958,3.2104,3.2688,3.3047,0.0,0.0,0.0,0.0,0.0,0.0,0.0,0.0,1.1165,1.1617,1.1237,1.0565,0.9593,0.9296,0.88,0.7886,0.0,0.0,0.0,0.0,0.0,0.0,0.0,0.0,0.0,1.0187,1.044,1.0777,1.0741,1.0801,1.0908,1.0908,1.1003,1.1192,1.1215,1.1296,0.0,0.0,0.0,0.0,0.0,0.0,1.1934,0.0,0.0,0.0,0.0,0.0,0.0,0.0,0.0,0.0,0.0,0.0,0.0,0.0,1.6531,1.7359,0.0,2.0073,2.0143,1.9875,1.9748,0.0,0.0,1.8218,1.786,1.74,1.7687,1.8019,1.809,1.8489,1.8962,1.9483,2.0169,2.0542,0.0,0.0,0.0,2.2168,0.0,0.0,0.0,2.5177,2.5362,2.5761,2.581,2.5907,2.61,2.6496,2.7034,2.7584,2.8233,2.8751,2.9069,3.0181,3.0899,3.1229,3.1734,3.1982,3.2089,3.1876,3.1921,3.2097,3.1377,3.1616,0.0,3.1125,3.084,3.1185,3.083,3.0595,3.0595,3.1622,3.231,3.2759,0.0,0.0,0.0,0.0,0.0,0.0,0.0,0.0,0.0,0.0,0.0,1.0356,0.9057,0.9431,0.0,0.0,0.0,0.0,0.0,0.0,0.0,0.0,0.0,0.0,0.0,1.0051,1.0263,1.0885,1.0825,1.0885,1.1062,1.1073,1.1143,1.1273,1.1155,1.1227,1.1421,1.1553,1.1703,1.1869,1.1736,1.1725,0.0,0.0,0.0,0.0,0.0,0.0,0.0,0.0,0.0,0.0,0.0,0.0,0.0,0.0,0.0,0.0,0.0,2.0165,2.0257,2.0812,2.006,0.0,0.0,0.0,0.0,1.7055,1.8066,1.8756,1.8063,1.8522,1.8867,1.8542,1.9675,2.0053,0.0,1.9557,0.0,0.0,2.308,0.0,2.4965,2.5362,2.5509,2.5333,2.5284,2.5528,2.6042,2.64,2.6699,2.6948,2.7846,2.8356,2.8353,2.9568,3.0275,3.0474,3.0917,3.1388,3.1829,3.1357,3.1709,3.2648,3.1789,3.1699,3.2158,3.1279,3.0894,3.0786,3.0189,2.9918,2.9997,3.0672,3.1334,3.2032,0.0,0.0,0.0,0.0,0.0,0.0,0.0,0.0,0.0,0.0,0.0,1.0929,1.0106,0.9759,0.0,0.0,0.0,0.0,0.0,0.0,0.0,0.0,0.0,0.0,0.0,1.0557,1.0723,1.0813,1.0753,1.0741,1.0801,1.0897,1.0991,1.1062,1.1132,1.1296,1.1478,1.1556,1.163,1.167,1.1648,1.163,0.0,0.0,0.0,0.0,1.4059,1.4833,0.0,0.0,0.0,0.0,0.0,0.0,0.0,0.0,1.4848,1.4863,1.6656,0.0,1.7496,1.7476,1.7668,1.7779,0.0,0.0,0.0,0.0,0.0,0.0,0.0,1.863,1.9131,2.0181,2.0633,2.0249,1.8594,0.0,0.0,2.3375,2.4615,2.5513,2.6058,2.5157,2.4735,2.5235,2.5284,2.5421,2.58,2.663,2.7214,2.7452,2.7714,2.7928,2.8081,2.9317,2.9916,2.9969,3.0224,3.0603,3.1062,3.1329,3.1623,3.1878,3.1539,3.1792,3.2337,3.1481,3.1202,3.1345,3.1509,3.1301,3.0892,3.1255,3.198,3.2845,0.0,0.0,0.0,0.0,0.0,0.0,0.0,0.0,0.0,0.0,0.0,0.0,0.0,0.0,0.0,0.0,0.0,0.0,0.0,0.0,0.0,0.0,0.0,0.0,1.0394,1.0517,1.0655,1.0801,1.0753,1.0729,1.0693,1.0837,1.0932,1.1003,1.1167,1.1319,1.1455,1.156,1.1623,1.1648,1.1619,0.0,0.0,0.0,0.0,0.0,1.3589,1.4389,0.0,1.5239,1.5058,1.4889,0.0,0.0,0.0,0.0,1.4751,1.4708,1.5367,1.5824,1.6145,1.633,1.6814,1.7204,1.7107,0.0,0.0,0.0,0.0,0.0,0.0,1.8508,1.9156,1.9944,2.0113,0.0,0.0,0.0,2.1419,2.3437,2.419,2.4776,0.0,2.4842,2.4534,2.506,2.5235,2.5421,2.5693,2.6476,2.7023,2.7262,2.7562,2.79,2.8307,2.8744,2.9077,2.9254,2.9338,2.9713,3.0237,3.0187,3.0751,3.1709,3.1153,3.1526,3.2528,3.1668,3.1432,3.1663,3.1432,3.1245,3.1071,3.1023,3.1557,3.2314,0.0,0.0,0.0,0.0,0.0,0.0,0.0,0.0,0.0,0.0,0.0,0.0,0.0,0.0,0.0,0.0,0.0,0.0,0.0,0.0,0.0,0.0,0.0,0.9986,1.0538,1.042,1.0509,1.0801,1.0801,1.0765,1.0681,1.0813,1.0932,1.1003,1.1192,1.1307,1.1376,1.1489,1.1601,1.1648,1.1612,0.0,0.0,0.0,0.0,0.0,0.0,0.0,0.0,1.4887,1.4761,1.47,1.4531,0.0,0.0,0.0,0.0,0.0,1.4999,1.523,1.5593,1.616,1.6604,1.6871,1.6955,0.0,0.0,0.0,0.0,0.0,0.0,1.8398,0.0,0.0,0.0,0.0,2.1413,2.1083,2.1459,2.3374,2.3606,0.0,2.4911,2.4685,2.462,2.4973,2.5226,2.5518,2.58,2.6294,2.6688,2.6948,2.7313,2.7836,2.8422,2.8097,2.8066,2.838,2.8463,2.8839,2.95,2.8903,2.974,3.1645,3.0798,3.1232,3.2512,3.1809,3.1659,3.1805,3.0931,3.0691,3.0722,3.0471,3.0748,3.1371,0.0,0.0,0.0,0.0,0.0,0.0,0.0,0.0,0.0,0.0,0.0,0.0,0.0,0.0,0.0,0.0,0.0,0.0,0.0,0.0,0.0,0.0,1.0197,1.0616,1.115,1.1142,1.1024,1.0801,1.0861,1.0789,1.0621,1.0741,1.0873,1.0991,1.1085,1.1167,1.125,1.1307,1.1421,1.1523,1.1526,0.0,0.0,0.0,0.0,0.0,0.0,0.0,0.0,1.4777,1.4572,1.4381,1.4399,0.0,0.0,0.0,0.0,0.0,1.5318,1.5421,1.5287,1.5444,1.5868,1.6191,1.6051,0.0,0.0,0.0,0.0,0.0,0.0,1.8778,1.9414,0.0,0.0,2.1492,0.0,0.0,2.3919,2.6137,0.0,2.6199,2.673,2.5604,2.5033,2.5548,2.5606,2.5849,2.6352,2.6678,2.6955,2.7214,2.6939,2.6901,2.7169,2.7496,2.7596,2.7423,2.7824,2.8385,2.9075,2.9167,2.9721,3.0626,3.0869,3.1357,3.202,3.1975,3.1894,3.1678,3.126,3.0725,3.024,3.019,3.0583,3.1418,0.0,0.0,0.0,0.0,0.0,0.0,0.0,0.0,0.0,0.0,0.0,0.0,0.0,0.0,0.0,0.0,0.0,0.0,0.0,0.0,0.0,1.0136,1.0616,1.1007,1.1293,1.1376,1.125,1.0908,1.0979,1.0885,1.0656,1.0789,1.0908,1.0991,1.1108,1.1167,1.1215,1.1307,1.141,1.1489,0.0,0.0,0.0,0.0,0.0,0.0,0.0,0.0,0.0,0.0,1.4429,1.4316,1.4349,0.0,0.0,0.0,0.0,0.0,1.5522,1.5697,1.5647,1.5668,1.5868,1.6015,0.0,0.0,0.0,0.0,0.0,0.0,0.0,0.0,2.0087,2.0851,0.0,2.1362,2.2644,2.3133,2.395,0.0,0.0,2.5985,2.6553,2.5762,2.5395,2.5858,2.5945,2.5994,2.6294,2.638,2.6582,2.688,2.6646,2.6532,2.6515,2.713,2.7363,2.7185,2.7301,2.7935,2.8993,2.8976,2.9605,3.0653,3.0972,3.1311,3.1685,3.1609,3.1505,3.1377,3.0856,3.0714,3.0806,3.0828,3.1083,3.1468,0.0,0.0,0.0,0.0,0.0,0.0,0.0,0.0,0.0,0.0,0.0,0.0,0.0,0.0,0.0,0.0,0.0,0.0,0.0,0.0,1.0193,1.0172,1.0666,1.1048,1.127,1.1421,1.1353,1.105,1.1073,1.0944,1.0668,1.0801,1.0873,1.0932,1.1062,1.1143,1.1192,1.1307,1.1421,1.1537,0.0,0.0,0.0,0.0,0.0,0.0,0.0,0.0,0.0,0.0,0.0,0.0,0.0,0.0,0.0,1.4268,1.4446,1.4813,1.5496,1.5634,1.5615,1.5818,0.0,0.0,0.0,0.0,0.0,0.0,0.0,0.0,0.0,1.9227,0.0,2.1079,2.1506,2.1917,2.2236,2.3028,2.3935,2.4936,2.5234,2.5609,2.6216,2.5895,2.5809,2.6147,2.6149,2.6149,2.6197,2.6139,2.6197,2.64,2.6374,2.6238,2.6021,2.6621,2.6919,2.6992,2.7035,2.767,2.8746,2.861,2.9278,3.0653,3.0836,3.1099,3.1373,3.1174,3.1038,3.0947,3.0399,3.0655,3.1348,3.1374,3.141,3.1358,0.0,0.0,0.0,0.0,0.0,0.0,0.0,0.0,0.0,0.0,0.0,0.0,0.0,0.0,0.0,0.0,0.0,0.0,0.0,0.0,1.0172,1.0107,1.0149,1.0509,1.1187,1.1399,1.1399,1.1192,1.112,1.0932,1.0621,1.0668,1.0717,1.0729,1.0861,1.0991,1.1108,1.1192,1.1365,1.1582,1.1455,0.0,0.0,0.0,0.0,0.0,0.0,0.0,0.0,0.0,0.0,0.0,0.0,0.0,1.4049,1.4173,1.4112,1.4173,1.5088,1.4845,1.4498,1.5262,1.5912,0.0,1.6139,1.6187,0.0,1.7996,0.0,0.0,0.0,2.0423,2.175,2.1263,2.3283,2.4812,2.459,0.0,2.5224,2.6022,2.6029,2.6252,2.6798,2.6358,2.6176,2.6438,2.6245,2.6197,2.6448,2.6245,2.61,2.6149,2.5959,2.575,2.5543,2.5584,2.5862,2.6282,2.7124,2.7752,2.8091,2.7988,2.8768,3.017,3.0354,3.0712,3.1145,3.1108,3.081,3.0335,3.0236,3.0586,3.1124,3.1128,3.0929,3.0782,0.0,0.0,0.0,0.0,0.0,0.0,0.0,0.0,0.0,0.0,0.0,0.0,0.0,0.0,0.0,0.0,0.0,0.0,0.0,0.0,1.0431,1.0111,1.0414,1.0731,1.1015,1.125,1.1342,1.1262,1.1027,1.0825,1.0656,1.0644,1.0847,1.1197,1.0892,1.1201,1.1896,1.1665,1.1923,1.2467,1.2467,1.231,0.0,0.0,0.0,0.0,0.0,0.0,0.0,0.0,1.4353,1.4268,0.0,1.4222,1.4127,1.4187,1.4056,1.4121,1.5149,1.5253,1.5196,1.5763,1.635,0.0,0.0,1.7044,1.7624,1.8993,1.9171,0.0,0.0,0.0,2.125,2.2269,2.3743,2.4745,2.4651,2.5132,2.554,2.5503,2.6177,2.6699,2.69,2.6699,2.6496,2.6245,2.5994,2.5752,2.5518,2.5421,2.5421,2.5616,2.5691,2.56,2.526,2.5993,2.5937,2.5147,2.5922,2.6765,2.7575,2.8207,2.8979,2.9929,3.0943,3.1321,3.116,3.0996,3.0696,3.0376,3.054,3.0868,3.1351,3.1664,3.1574,3.1261,0.0,0.0,0.0,0.0,0.0,0.0,0.0,0.0,0.0,0.0,0.0,0.0,0.0,0.0,0.0,0.0,0.0,0.0,0.0,1.0531,1.0599,1.0059,1.0567,1.0861,1.0861,1.0991,1.1108,1.125,1.0991,1.0789,1.0645,1.0809,1.108,1.1429,1.1162,1.1455,1.2101,1.1939,1.2169,1.2671,1.2909,1.2833,0.0,0.0,0.0,0.0,0.0,0.0,0.0,0.0,1.4096,1.4015,0.0,0.0,1.3883,1.4052,1.404,1.4154,1.5096,1.5226,1.5272,1.5929,0.0,0.0,1.7774,1.7945,1.8277,1.9778,2.0129,2.0108,2.0118,0.0,0.0,0.0,2.3934,2.4516,2.5182,2.5607,2.5797,2.5559,2.622,2.6699,2.6757,2.6602,2.6352,2.5994,2.5624,2.5218,2.4922,2.4857,2.4994,2.5284,2.547,2.5495,2.5324,2.6057,2.5834,2.464,2.4995,2.5712,2.6747,2.7836,2.8742,2.9591,3.0937,3.139,3.1211,3.1015,3.0729,3.0433,3.0599,3.0947,3.1406,3.2122,3.1943,3.1386,0.0,0.0,0.0,0.0,0.0,0.0,0.0,0.0,0.0,0.0,0.0,0.0,0.0,0.0,0.0,0.0,0.0,0.0,0.964,1.0414,1.0599,0.9941,1.0475,1.0801,1.0789,1.0609,1.0681,1.1097,1.1027,1.0839,1.0512,1.1187,1.1429,1.1335,1.1649,1.1697,1.1535,1.1875,1.1978,1.1968,1.2567,1.2886,1.3052,0.0,0.0,0.0,0.0,0.0,0.0,0.0,1.3403,1.3403,0.0,0.0,0.0,1.3736,1.399,1.4217,1.4828,1.4516,1.4327,1.5602,0.0,0.0,1.8892,1.8754,1.8535,2.0422,2.1387,2.1593,2.0504,2.0842,0.0,2.3624,2.3894,2.4618,2.6605,2.6428,2.6197,2.6448,2.6245,2.6197,2.6448,2.5994,2.5693,2.5684,2.5054,2.4766,2.4903,2.4765,2.4881,2.5274,2.5284,2.5469,2.5785,2.554,2.5251,2.489,2.4614,2.4844,2.5559,2.6747,2.7963,2.9165,3.008,3.075,3.1204,3.1204,3.0877,3.0391,3.0408,3.0724,3.1345,3.2327,3.187,3.0947,0.0,0.0,0.0,0.0,0.0,0.0,0.0,0.0,0.0,0.0,0.0,0.0,0.0,0.0,0.0,0.0,0.0,0.0,1.0222,1.0393,1.0406,1.0258,1.0418,1.0474,1.0374,1.0362,1.0498,1.0741,1.0729,1.086,1.1136,1.1296,1.1731,1.2393,1.1833,1.2089,1.2883,1.2405,1.2634,1.332,1.3659,1.3605,1.3422,0.0,0.0,0.0,0.0,0.0,0.0,0.0,0.0,0.0,0.0,0.0,0.0,1.3706,1.382,1.3939,1.4502,1.5255,0.0,1.6078,0.0,0.0,0.0,1.9091,0.0,0.0,2.1969,2.1888,2.1209,2.1683,0.0,2.3725,2.4287,2.5196,2.695,2.6605,2.6334,2.6733,2.6534,2.64,2.6496,2.6197,2.5721,2.5025,2.4612,2.4268,2.3906,2.3892,2.4303,2.5274,2.5284,2.5469,2.5785,2.5849,2.5513,2.4841,2.475,2.4905,2.5354,2.6726,2.792,2.8987,3.0434,3.1124,3.1265,3.1011,3.081,3.069,3.0695,3.087,3.1302,3.1949,3.1962,3.1656,0.0,0.0,0.0,0.0,0.0,0.0,0.0,0.0,0.0,0.0,0.0,0.0,0.0,0.0,0.0,0.0,0.0,0.0,0.0,0.0,1.0236,1.0274,1.0312,1.0249,1.0085,1.0072,1.0135,1.0274,1.0424,1.0621,1.09,1.111,1.1671,1.2426,1.1731,1.2021,1.2998,1.2415,1.2616,1.3353,1.3835,1.3891,1.3689,0.0,0.0,0.0,0.0,0.0,0.0,0.0,0.0,0.0,0.0,0.0,0.0,1.4077,1.4331,1.4583,1.5073,1.5998,0.0,1.6634,1.6849,1.7349,1.8412,0.0,0.0,0.0,2.2601,2.2702,2.176,2.205,0.0,2.4095,2.4249,2.4948,2.6988,2.6661,2.638,2.6856,2.6678,2.6448,2.6342,2.5942,2.5516,2.4996,2.4146,2.3635,2.3529,2.3343,2.3819,2.5006,2.5246,2.5596,2.6246,2.6164,2.5791,2.5199,2.5106,2.5097,2.5259,2.6544,2.7744,2.8903,3.0503,3.1273,3.1392,3.0823,3.0687,3.0803,3.0592,3.0616,3.0779,3.1431,3.1522,3.1381,0.0,0.0,0.0,0.0,0.0,0.0,0.0,0.0,0.0,0.0,0.0,0.0,0.0,0.0,0.0,0.0,0.0,0.0,0.0,0.0,1.0084,1.0084,1.0161,1.0097,0.9905,0.9776,0.9736,0.9776,1.0097,1.0237,1.0225,1.0843,1.1407,1.1878,1.1545,1.1751,1.2312,1.2119,1.2201,1.2529,1.34,1.3791,1.3874,1.3964,0.0,0.0,0.0,0.0,0.0,0.0,0.0,0.0,1.2346,1.3142,1.4322,1.4707,1.5191,1.5697,1.6125,1.666,0.0,1.72,1.7261,0.0,1.8206,2.0654,2.2605,2.198,0.0,2.3695,2.2264,2.2158,2.2888,2.4557,2.3986,2.4209,2.6893,2.6676,2.6366,2.6843,2.6617,2.632,2.603,2.5425,2.5061,2.5131,2.3663,2.2945,2.3455,2.3068,2.3438,2.4765,2.5092,2.5761,2.6839,2.638,2.6026,2.5785,2.5511,2.5358,2.5285,2.6267,2.7477,2.8947,3.0335,3.116,3.1509,3.0572,3.0391,3.0716,3.0284,3.0068,3.0062,3.0802,3.0761,3.0518,0.0,0.0,0.0,0.0,0.0,0.0,0.0,0.0,0.0,0.0,0.0,0.0,0.0,0.0,0.0,0.0,0.0,0.0,0.0,0.0,0.9893,0.9931,1.0008,0.9995,0.9905,0.988,0.9789,0.9644,0.9827,1.0318,1.1126,1.1265,1.179,1.2582,1.2279,1.2333,1.2593,1.2289,1.2464,1.2967,1.3276,1.3501,1.3682,1.3858,1.3908,0.0,0.0,0.0,0.0,0.0,0.0,0.0,1.2784,1.3582,1.4644,1.4885,1.5253,1.5614,1.5721,1.6737,0.0,0.0,1.8811,2.0294,2.0366,2.164,2.2718,2.2332,2.2993,2.3487,2.2944,2.3044,2.3467,2.4226,2.4149,2.4684,2.6785,2.6588,2.6378,2.6915,2.6349,2.5738,2.5156,2.4758,2.4361,2.3852,2.3309,2.311,2.3344,2.2778,2.3355,2.5421,2.5284,2.5538,2.6329,2.6411,2.6132,2.555,2.4913,2.5023,2.5671,2.6347,2.7634,2.9392,3.0088,3.0446,3.0501,3.0045,2.9796,2.9768,3.0064,3.0008,2.9881,3.0628,3.0616,3.0296,0.0,0.0,0.0,0.0,0.0,0.0,0.0,0.0,0.0,0.0,0.0,0.0,0.0,0.0,0.0,0.0,0.0,0.0,0.0,0.0,0.0,0.9802,0.9867,0.9841,0.971,0.9685,0.9593,0.9446,0.9658,1.0035,0.0,0.0,0.0,1.2012,1.1786,1.2031,1.2567,1.213,1.2352,1.299,1.3242,1.3378,1.3442,1.3741,1.3838,1.3804,1.3888,0.0,0.0,0.0,0.0,0.0,0.0,0.0,1.4709,1.4677,1.4934,1.5392,1.6185,0.0,0.0,1.8202,0.0,2.145,2.0695,2.171,2.2781,2.2611,2.2955,2.3276,2.3144,2.3232,2.3442,2.3933,2.4002,2.4556,2.6117,2.6078,2.5988,2.6231,2.6008,2.5502,2.4674,2.4421,2.4111,2.3589,2.3262,2.2969,2.2834,2.2686,2.3383,2.5078,2.521,2.5772,2.6701,2.6591,2.6253,2.5644,2.5056,2.5031,2.5553,2.6647,2.7774,2.8992,2.9738,3.0258,3.0493,3.006,2.9943,3.0094,2.9899,2.9769,2.9748,3.011,3.0108,2.998,0.0,0.0,0.0,0.0,0.0,0.0,0.0,0.0,0.0,0.0,0.0,0.0,0.0,0.0,0.0,0.0,0.0,0.0,0.0,0.0,0.0,0.0,0.975,0.9723,0.9523,0.9473,0.9408,0.9299,0.0,0.0,0.0,0.0,0.0,1.1281,0.0,1.1611,1.2312,1.1966,1.2187,1.2803,1.3168,1.3271,1.3232,1.3607,1.3806,1.3902,1.3847,1.3873,1.3935,1.3847,0.0,0.0,0.0,0.0,1.4702,1.447,1.4618,1.5213,1.6773,0.0,1.7838,1.9203,2.0707,0.0,2.0514,2.1538,2.2712,2.2755,2.2928,2.3091,2.3091,2.3144,2.3319,2.3667,2.3841,2.4296,2.5457,2.5607,2.5568,2.5519,2.5616,2.5279,2.4346,2.4112,2.3918,2.362,2.3188,2.2791,2.2455,2.2834,2.3514,2.4587,2.5295,2.6125,2.708,2.6661,2.6155,2.5618,2.5269,2.5051,2.5065,2.6753,2.7737,2.8221,2.9353,3.009,3.0456,2.9988,3.0101,3.0493,2.9663,2.9468,2.965,2.9599,2.954,2.9597,0.0,0.0,0.0,0.0,0.0,0.0,0.0,0.0,0.0,0.0,0.0,0.0,0.0,0.0,0.0,0.0,0.0,0.0,0.0,0.0,0.0,0.9448,0.9737,0.9789,0.9591,0.9632,0.9539,0.9299,0.0,0.0,0.0,0.0,0.0,1.1645,0.0,0.0,1.1748,1.2144,1.2454,1.2727,1.2908,1.3064,1.3215,1.3442,1.3887,1.4327,1.3689,1.3904,1.4398,1.3711,1.3514,0.0,0.0,0.0,1.4942,1.4845,1.4974,1.5381,0.0,0.0,1.873,0.0,2.075,2.1081,0.0,0.0,2.2349,0.0,2.2842,2.3091,2.3091,2.3276,2.346,2.3547,2.4024,2.4695,2.5501,2.5607,2.5585,2.5593,2.503,2.44,2.3712,2.3393,2.3252,2.3178,2.2953,2.2856,2.2892,2.3403,2.4098,2.5008,2.5792,2.6217,2.6361,2.604,2.5585,2.4927,2.4716,2.4506,2.4405,2.6085,2.6941,2.7268,2.8869,2.9364,2.8985,2.9157,2.925,2.9328,2.917,2.9235,2.9429,2.9437,2.9219,2.9117,0.0,0.0,0.0,0.0,0.0,0.0,0.0,0.0,0.0,0.0,0.0,0.0,0.0,0.0,0.0,0.0,0.0,0.0,0.0,0.0,0.0,0.9409,0.9646,0.9685,0.9487,0.9514,0.942,0.0,0.0,0.0,0.0,1.2236,1.2545,0.0,0.0,0.0,0.0,1.2647,1.2952,1.3331,1.3464,1.3608,1.3753,1.3653,1.4036,1.4506,1.3734,1.3919,1.4456,1.383,1.3636,1.3627,1.3446,0.0,0.0,0.0,1.3816,1.4248,1.5799,1.7765,1.9486,0.0,2.0434,2.0894,2.1076,0.0,2.1879,2.2075,2.2296,2.2578,2.3013,2.3319,2.3503,2.3503,2.398,2.444,2.4766,2.5046,2.5132,2.484,2.4623,2.4236,2.3567,2.3406,2.3232,2.2969,2.3059,2.2942,2.2537,2.3275,2.3945,2.4346,2.5214,2.578,2.6038,2.5791,2.5349,2.4616,2.4371,2.4315,2.4419,2.5695,2.6437,2.6875,2.8377,2.9105,2.9116,2.8924,2.8981,2.9148,2.9105,2.9004,2.8893,2.9419,2.9332,2.9085,0.0,0.0,0.0,0.0,0.0,0.0,0.0,0.0,0.0,0.0,0.0,0.0,0.0,0.0,0.0,0.0,0.0,0.0,0.0,0.0,0.0,0.9408,0.954,0.9552,0.9381,0.9381,0.0,0.0,0.0,0.0,1.147,1.2888,1.3385,0.0,1.2791,0.0,0.0,0.0,0.0,0.0,1.4153,1.4289,1.4219,1.4312,1.4799,1.5356,1.4592,1.4803,1.5295,1.4534,1.4089,1.3784,1.349,1.3281,0.0,0.0,0.0,0.0,0.0,0.0,1.8825,1.8689,1.9216,1.9885,0.0,0.0,2.1183,0.0,2.1816,2.208,2.2662,2.3083,2.3345,2.3345,2.3733,2.3992,2.3954,2.4272,2.4398,2.4236,2.4246,2.4116,2.3711,2.359,2.3373,2.3013,2.3171,2.3032,2.2381,2.3402,2.3949,2.3879,2.4917,2.5578,2.5704,2.5396,2.4992,2.4515,2.4282,2.4386,2.4785,2.5719,2.6233,2.6411,2.7833,2.8756,2.9177,2.8936,2.897,2.9263,2.9133,2.8878,2.8642,2.9141,2.9164,2.9028,0.0,0.0,0.0,0.0,0.0,0.0,0.0,0.0,0.0,0.0,0.0,0.0,0.0,0.0,0.9696,0.9891,0.0,0.0,0.0,0.0,0.0,0.9408,0.9409,0.0,0.9301,0.9301,0.0,0.0,0.0,0.0,1.1338,1.2741,1.3474,1.3539,1.3234,1.2758,1.2317,0.0,0.0,0.0,1.4741,1.4868,1.4431,0.0,1.6676,1.7459,1.6778,1.714,1.7672,1.6123,1.496,1.4081,1.3571,1.3174,1.2896,0.0,0.0,0.0,0.0,1.4803,0.0,1.6216,1.6655,0.0,0.0,0.0,2.0118,2.1293,2.1745,2.1894,2.1943,2.2495,2.2941,2.2941,2.3269,2.3483,2.3277,2.3276,2.3504,2.4147,2.3815,2.3727,2.4112,2.3764,2.3503,2.346,2.3251,2.312,2.3047,2.4199,2.4628,2.4202,2.5502,2.592,2.5224,2.4601,2.4336,2.4515,2.447,2.4826,2.5477,2.6478,2.6459,2.5651,2.7108,2.8008,2.8512,2.8922,2.9252,2.9452,2.9209,2.9095,2.8986,2.8343,2.8345,2.8746,0.0,0.0,0.0,0.0,0.0,0.0,0.0,0.0,0.0,0.0,0.0,0.0,0.0,0.9648,0.9759,0.9912,0.9948,0.0,0.0,0.0,0.0,0.9328,0.9341,0.9341,0.9368,0.9286,0.0,0.0,0.0,1.1464,1.1079,1.2534,1.3296,1.3459,1.3173,1.3228,1.3589,1.409,0.0,0.0,1.5207,1.5545,1.5941,0.0,0.0,0.0,0.0,0.0,1.7876,1.653,1.562,1.4877,1.404,1.3919,1.3946,1.3465,1.3595,0.0,0.0,0.0,0.0,1.5928,1.62,1.657,1.7185,1.7713,1.8228,1.8768,1.9138,1.9648,2.0469,2.1638,2.2401,2.2286,2.2609,2.2879,2.2788,2.29,2.3134,2.3493,2.3391,2.3443,2.3716,2.3598,2.3471,2.33,2.3464,2.3365,2.2916,2.4003,2.4431,2.3951,2.4725,2.4895,2.4323,2.4355,2.4476,2.471,2.5127,2.544,2.5694,2.6089,2.6135,2.5994,2.6509,2.7304,2.8226,2.8187,2.8545,2.9026,2.896,2.871,2.8391,2.8444,2.8488,2.8499,0.0,0.0,0.0,0.0,0.0,0.0,0.0,0.0,0.0,0.0,0.0,0.0,0.0,0.0,1.0443,1.0647,1.0459,1.034,1.046,0.9852,0.9435,0.9299,0.9286,0.9299,0.9328,0.0,0.0,0.0,0.0,0.0,0.0,1.2067,1.2875,1.3142,1.3064,1.3518,0.0,0.0,0.0,1.5814,1.6024,1.6405,1.689,0.0,0.0,0.0,0.0,0.0,0.0,1.7884,1.6741,1.5606,1.4741,1.4383,1.4208,1.3793,1.3557,0.0,1.3671,0.0,0.0,0.0,0.0,1.4842,1.5362,1.5889,1.6426,1.6919,1.766,1.8477,1.9445,2.075,2.1646,2.1641,2.1987,2.218,2.199,2.217,2.2471,2.2815,2.2876,2.3011,2.334,2.3483,2.3407,2.3239,2.3642,2.372,2.3162,2.399,2.4325,2.3937,2.4013,2.3927,2.3711,2.4161,2.4486,2.472,2.54,2.5704,2.5704,2.5787,2.589,2.5965,2.6145,2.6913,2.8055,2.7977,2.831,2.8913,2.8914,2.8653,2.8289,2.822,2.8199,2.8132,0.0,0.0,0.0,0.0,0.0,0.0,0.0,0.0,0.0,0.0,0.0,0.0,0.0,0.0,0.0,1.2174,1.1883,1.1505,1.1049,1.0469,0.9893,0.9358,0.0,0.0,0.0,0.0,0.0,0.0,0.0,0.0,0.0,0.0,1.2198,1.2595,1.2931,1.3621,1.4524,0.0,1.544,1.594,0.0,1.7422,1.7216,0.0,0.0,0.0,2.1422,2.1434,0.0,2.0257,0.0,0.0,1.5609,1.452,1.3536,1.3741,1.3186,0.0,0.0,0.0,0.0,0.0,0.0,0.0,1.3593,0.0,1.474,1.598,1.7468,1.8648,1.8924,1.9826,2.0674,2.1083,2.1321,2.1342,2.0966,2.1061,2.1444,2.2114,2.2165,2.2418,2.3122,2.3351,2.3398,2.3199,2.3783,2.4069,2.38,2.4219,2.4411,2.4206,2.3493,2.3232,2.3503,2.3984,2.4292,2.4515,2.5249,2.5553,2.5488,2.576,2.577,2.5564,2.6007,2.6902,2.8012,2.8262,2.864,2.9082,2.9082,2.8989,2.8683,2.7676,2.747,2.7645,0.0,0.0,0.0,0.0,0.0,0.0,0.0,0.0,0.0,0.0,0.0,0.0,1.2208,1.2389,1.2423,1.2227,1.1861,1.1626,1.1643,1.0951,1.0494,1.0399,1.0263,0.0,0.0,0.0,0.0,0.0,0.0,0.0,0.0,0.0,0.0,0.0,1.2489,1.3218,1.4315,1.4834,0.0,1.6315,1.6417,1.7161,0.0,0.0,0.0,0.0,0.0,2.2044,2.1466,0.0,1.9719,1.7956,0.0,0.0,0.0,1.3595,0.0,0.0,1.296,0.0,0.0,0.0,0.0,0.0,0.0,0.0,1.391,1.4506,1.5949,1.7332,1.8129,1.8624,1.9165,1.9908,2.0508,2.0869,2.0887,2.0945,2.1178,2.1647,2.1696,2.1947,2.2646,2.2761,2.2793,2.2913,2.3257,2.3526,2.3598,2.4188,2.4411,2.4206,2.398,2.3851,2.3711,2.4381,2.4658,2.4515,2.5409,2.5715,2.5508,2.5916,2.6162,2.6311,2.636,2.6904,2.7702,2.7858,2.8274,2.8896,2.8896,2.871,2.8416,2.7821,2.7645,2.764,0.0,0.0,0.0,0.0,0.0,0.0,0.0,0.0,0.0,0.0,0.0,0.0,1.2927,1.2893,1.273,1.2365,1.2165,1.1968,1.1742,1.1376,1.104,1.077,1.0723,1.0691,0.0,0.0,0.0,0.0,0.0,0.0,0.0,0.0,0.0,0.0,0.0,0.0,0.0,0.0,0.0,0.0,1.6575,0.0,0.0,1.8915,1.9869,0.0,0.0,0.0,2.2147,2.2229,2.0871,0.0,0.0,0.0,0.0,0.0,0.0,0.0,0.0,0.0,0.0,0.0,0.0,0.0,1.1134,1.195,1.2882,1.3202,1.4534,1.597,1.7192,1.7587,1.8018,1.8985,1.9572,2.0052,2.0411,2.0586,2.078,2.1079,2.1272,2.1537,2.1919,2.2338,2.2608,2.2519,2.3075,2.355,2.379,2.4157,2.4335,2.4206,2.411,2.4024,2.398,2.4611,2.4788,2.4506,2.5255,2.5424,2.5081,2.5587,2.5976,2.631,2.6494,2.6783,2.7186,2.7342,2.7963,2.8803,2.8664,2.8664,2.8623,2.8051,2.7852,2.7746,0.0,0.0,0.0,0.0,0.0,0.0,0.0,0.0,0.0,0.0,0.0,0.0,0.0,0.0,1.2962,1.2603,1.2627,1.2389,1.1727,1.1782,1.1557,1.0925,1.0938,1.0938,1.0886,0.0,0.0,0.0,0.0,0.0,0.0,0.0,0.0,0.0,0.0,0.0,0.0,0.0,0.0,1.6347,1.7219,1.7783,0.0,0.0,2.0062,2.0981,2.2444,2.3024,2.3094,2.341,2.169,0.0,0.0,0.0,0.0,0.0,1.4724,0.0,0.0,0.0,0.0,0.0,1.2227,0.0,1.0964,1.1433,1.2025,1.2194,1.3361,1.4811,1.6167,1.6567,1.6986,1.7975,1.8483,1.9029,1.9713,1.9993,2.0256,2.0488,2.0806,2.1074,2.1211,2.2069,2.2512,2.2162,2.311,2.3763,2.399,2.4114,2.4178,2.4178,2.3993,2.398,2.4249,2.4692,2.4769,2.454,2.4954,2.4933,2.455,2.5068,2.5513,2.5906,2.6372,2.6568,2.6568,2.6758,2.7533,2.8558,2.8437,2.8588,2.8857,2.8291,2.8023,2.7967,0.0,0.0,0.0,0.0,0.0,0.0,0.0,0.0,0.0,0.0,0.0,0.0,0.0,0.0,0.0,0.0,1.2703,1.2615,1.278,1.2375,1.2107,1.2066,1.2072,1.2072,1.2072,0.0,0.0,0.0,0.0,0.0,0.0,0.0,0.0,0.0,0.0,0.0,0.0,0.0,0.0,1.6154,1.7408,1.8718,2.005,2.0748,2.1414,2.2179,2.3183,2.3688,2.3793,2.3208,2.1616,1.9553,0.0,0.0,0.0,1.5234,0.0,0.0,0.0,0.0,0.0,0.0,1.2789,0.0,1.0754,1.1807,1.2956,1.2459,1.335,1.4444,1.5186,1.5245,1.5391,1.5931,1.6741,1.7756,1.906,1.924,1.9445,1.9962,1.996,2.027,2.1127,2.149,2.1865,2.2319,2.2755,2.2943,2.2839,2.3557,2.397,2.397,2.4226,2.4368,2.4454,2.4751,2.4869,2.4818,2.4912,2.4912,2.4849,2.5467,2.5802,2.5906,2.6151,2.63,2.6249,2.5946,2.6264,2.7104,2.7844,2.8087,2.7985,2.825,2.8322,2.8283,0.0,0.0,0.0,0.0,0.0,0.0,0.0,0.0,0.0,0.0,0.0,0.0,0.0,0.0,0.0,0.0,0.0,0.0,0.0,1.2864,1.267,1.2703,1.2543,1.2401,1.2312,1.2228,0.0,0.0,0.0,0.0,0.0,0.0,0.0,0.0,0.0,0.0,0.0,0.0,1.4725,1.6025,1.7332,0.0,1.9976,2.069,2.1295,2.193,2.3146,2.428,2.4997,2.3957,2.2727,0.0,1.8847,1.7752,1.7138,0.0,1.6112,1.6384,0.0,0.0,0.0,1.4271,1.3683,0.0,0.0,1.2611,1.3387,1.299,1.3197,1.3728,1.4605,1.4078,1.3734,1.4396,1.5228,1.6071,1.6858,1.7965,1.8777,1.8966,1.9368,1.9919,2.0777,2.1261,2.1781,2.2371,2.2657,2.2726,2.249,2.3153,2.3639,2.3867,2.4095,2.4354,2.47,2.47,2.4786,2.4903,2.4903,2.4903,2.4935,2.5683,2.6055,2.6076,2.629,2.6259,2.6013,2.5797,2.5706,2.5867,2.7194,2.7945,2.8306,2.8629,2.8734,2.8735,0.0,0.0,0.0,0.0,0.0,0.0,0.0,0.0,0.0,0.0,0.0,0.0,0.0,0.0,0.0,0.0,0.0,0.0,0.0,0.0,1.3473,1.3414,1.2897,1.2637,1.2707,1.2416,1.221,0.0,0.0,0.0,0.0,0.0,0.0,0.0,0.0,0.0,0.0,0.0,0.0,1.5938,0.0,1.8285,1.9204,2.0223,2.0891,2.1465,2.3268,2.4756,2.5686,2.4628,2.3742,2.2631,1.996,1.9158,0.0,0.0,0.0,0.0,0.0,0.0,0.0,0.0,0.0,1.3939,0.0,0.0,0.0,1.3331,1.2964,1.2987,1.4048,0.0,0.0,1.3041,0.0,0.0,0.0,1.5913,0.0,1.7833,1.8497,1.9261,2.0068,2.0663,2.1248,2.1929,2.2012,2.2022,2.1963,2.2656,2.3267,2.3774,2.3836,2.421,2.4818,2.47,2.4743,2.4946,2.4999,2.5031,2.5062,2.5809,2.6099,2.6086,2.6326,2.6148,2.5695,2.5658,2.5324,2.4997,2.6547,2.7713,2.8556,2.8753,2.8962,2.9163,1.302,1.3042,0.0,0.0,0.0,0.0,0.0,0.0,0.0,0.0,0.0,0.0,0.0,0.0,0.0,0.0,0.0,0.0,1.5648,0.0,0.0,0.0,1.37,1.3494,1.4482,1.3165,1.2372,0.0,0.0,0.0,0.0,0.0,0.0,0.0,1.309,0.0,0.0,0.0,1.534,0.0,1.7473,1.8144,0.0,2.034,2.1329,2.2062,2.4536,2.5085,2.4555,2.4229,2.3484,2.24,0.0,1.9941,1.9415,1.88,0.0,0.0,0.0,0.0,0.0,0.0,1.5418,1.5297,1.4018,0.0,1.3895,1.3034,0.0,1.2759,1.3276,0.0,0.0,0.0,1.2065,1.1988,1.0796,1.2343,1.4478,1.6864,1.6825,1.7174,1.867,1.8575,1.8965,2.036,1.9768,1.9521,1.9897,2.1625,2.278,2.3246,2.366,2.4095,2.4529,2.4946,2.5158,2.5158,2.5422,2.5517,2.5539,2.5797,2.5856,2.5681,2.57,2.5435,2.502,2.4784,2.4633,2.4676,2.6098,2.7036,2.7557,2.7767,2.8544,2.9372,1.2943,1.2978,0.0,0.0,0.0,0.0,0.0,0.0,0.0,0.0,0.0,0.0,0.0,0.0,0.0,0.0,0.0,1.6473,1.691,0.0,0.0,0.0,1.4215,1.3778,1.4208,1.3322,1.2946,0.0,1.3054,0.0,0.0,0.0,0.0,0.0,1.3376,0.0,1.5487,0.0,1.6151,0.0,0.0,1.8065,0.0,1.9695,2.13,2.2861,2.5139,2.5454,2.4887,2.5364,2.4719,2.3627,2.3094,0.0,0.0,2.041,0.0,0.0,0.0,0.0,0.0,0.0,1.6396,1.5894,1.4897,1.4557,1.4295,1.3823,0.0,0.0,0.0,0.0,0.0,0.0,1.1038,1.0642,1.0061,0.0,1.217,1.405,1.4318,1.4911,1.6377,1.6668,1.7124,1.7988,1.8158,1.8514,1.9266,2.0746,2.1968,2.277,2.3236,2.3701,2.4146,2.4575,2.4871,2.5031,2.538,2.5549,2.5623,2.6098,2.6087,2.5782,2.5651,2.5399,2.5091,2.4939,2.4745,2.4633,2.5745,2.6512,2.6976,2.7513,2.8088,2.8634,1.2774,0.0,0.0,0.0,0.0,0.0,0.0,0.0,0.0,0.0,0.0,0.0,1.6829,1.7141,0.0,0.0,1.7677,1.7675,1.8195,0.0,1.6467,0.0,0.0,0.0,0.0,1.3765,1.3452,1.3811,1.3644,0.0,0.0,0.0,0.0,0.0,0.0,1.4503,1.5925,0.0,1.6551,1.755,1.824,1.8271,1.8128,1.9618,2.1424,2.3364,2.5292,2.555,2.5073,2.6082,2.5723,2.487,2.4841,2.3798,2.2449,0.0,0.0,0.0,1.9725,1.9293,1.8744,1.8353,1.7519,1.6604,1.5805,1.5257,1.484,1.4556,1.4186,0.0,0.0,0.0,0.0,0.0,0.0,0.9822,0.0,0.9617,1.0463,1.1835,1.2475,1.3231,1.4311,1.4527,1.4904,1.5663,1.6387,1.7126,1.778,1.9661,2.1084,2.1873,2.2586,2.3247,2.3867,2.424,2.4628,2.4988,2.5411,2.5675,2.578,2.6352,2.6334,2.5894,2.5765,2.5462,2.5124,2.5124,2.4883,2.4559,2.5264,2.579,2.6238,2.7107,2.7677,2.8139,1.2507,1.2573,0.0,0.0,0.0,0.0,0.0,0.0,0.0,0.0,0.0,0.0,0.0,0.0,0.0,0.0,0.0,2.034,1.9599,1.9669,1.9561,0.0,0.0,1.6133,0.0,0.0,1.3729,1.3806,1.423,1.4425,0.0,0.0,0.0,0.0,0.0,1.4473,1.4724,1.569,1.6346,1.6848,1.8006,1.8965,1.9742,2.0615,2.1841,2.3319,2.5091,2.5211,2.4668,2.5606,2.5869,2.5797,2.5335,2.4814,2.4301,2.3787,2.2619,2.1499,2.1375,2.0927,2.0392,1.9787,1.883,1.775,1.6703,1.605,1.5491,1.49,1.4477,1.4199,1.4199,0.0,0.0,0.0,0.0,0.0,0.0,0.8171,0.9376,1.1033,1.1869,1.2499,1.2922,1.1935,1.1938,1.3563,1.4266,1.4614,1.4647,1.8231,2.034,2.038,2.1589,2.2756,2.3867,2.4096,2.4524,2.52,2.5675,2.599,2.6199,2.6448,2.6335,2.5886,2.5875,2.5539,2.4924,2.4924,2.4754,2.4497,2.4528,2.4689,2.5105,2.6206,2.7378,2.8364,0.0,0.0,0.0,0.0,0.0,0.0,0.0,1.6399,1.7048,1.7217,1.8546,1.9306,1.8808,1.9197,1.967,2.0045,1.9889,1.9922,2.0365,1.9668,0.0,1.9468,1.7434,1.6484,0.0,0.0,1.4183,1.4718,1.4485,1.4662,0.0,0.0,0.0,0.0,0.0,1.4957,0.0,0.0,0.0,0.0,0.0,1.9704,2.0431,2.1301,2.2232,2.3319,2.5091,2.5332,2.5073,2.6187,2.6285,2.6009,2.6804,2.6433,2.5628,2.5259,2.4332,2.3412,2.3245,2.2766,2.2162,2.152,2.0349,1.9043,1.7882,1.7241,1.6799,1.6523,1.6653,1.6432,1.5109,0.0,0.0,0.0,0.0,0.0,0.0,0.7984,0.8142,0.839,0.919,0.97,0.967,0.9564,0.9912,1.0888,1.1878,1.3089,1.4559,1.685,1.8838,2.0443,2.1301,2.2373,2.3616,2.4011,2.4639,2.5464,2.5915,2.6052,2.6032,2.6561,2.6396,2.5696,2.5853,2.5506,2.4903,2.4903,2.4743,2.4528,2.4838,2.4939,2.5009,2.5827,2.6488,2.7012,1.3176,0.0,0.0,0.0,0.0,0.0,1.5597,1.633,1.6961,1.7438,1.8478,1.9212,1.9357,1.9327,1.9491,1.9991,1.985,2.0063,2.0829,2.017,0.0,2.0351,1.8718,1.7747,0.0,0.0,1.5186,1.5591,1.4952,1.4924,0.0,0.0,0.0,0.0,0.0,1.496,1.5933,1.6227,1.7455,0.0,0.0,2.0374,0.0,2.1502,2.222,2.2983,2.4861,2.5349,2.5315,2.6588,2.6765,2.6591,2.7768,2.7515,2.6778,2.666,2.6082,2.5443,2.5472,2.4953,2.4265,2.3731,2.2683,2.1338,1.9852,1.9371,1.9067,1.8596,1.8276,1.7693,1.6526,0.0,0.0,0.0,0.0,0.0,0.0,0.7806,0.7439,0.7171,0.7717,0.8054,0.7863,0.8197,0.8654,0.9262,1.0486,1.1777,1.3135,1.5313,1.7197,1.8667,1.99,2.1203,2.2634,2.3184,2.4057,2.5217,2.587,2.6166,2.6188,2.6727,2.6603,2.5979,2.6104,2.5759,2.5168,2.5168,2.4956,2.4689,2.4991,2.4971,2.4849,2.57,2.6304,2.6811,0.0,0.0,0.0,0.0,1.5073,1.5086,1.4818,1.6342,1.7359,1.6857,1.8957,2.0285,1.9771,2.0078,2.0201,1.9936,2.0411,2.0808,2.1042,2.1314,0.0,0.0,2.0691,1.9829,1.9354,0.0,0.0,0.0,1.5648,1.5328,0.0,0.0,0.0,0.0,1.4612,0.0,1.4573,1.5332,1.6713,1.8553,2.0426,2.0852,2.0409,2.1313,2.1817,2.2339,2.4498,2.5218,2.5346,2.6775,2.7262,2.7404,2.816,2.8082,2.775,2.7956,2.7708,2.7436,2.7909,2.7323,2.6491,2.6324,2.5634,2.4454,2.2505,2.2238,2.2139,2.107,1.9342,1.8112,1.8315,1.5521,0.0,0.0,0.0,0.0,0.0,0.0,0.7297,0.7408,0.752,0.7602,0.7602,0.778,0.8145,0.8728,0.9964,1.0634,1.0519,1.3683,1.5439,1.5308,1.7489,1.9438,2.1031,2.1753,2.2879,2.4497,2.5653,2.6332,2.6603,2.7026,2.6974,2.6603,2.6592,2.6229,2.5601,2.5612,2.5295,2.4903,2.4903,2.4754,2.4708,2.5829,2.6809,2.7685,1.3994,1.4699,1.5487,1.6054,1.6177,1.6195,1.613,1.7817,1.8906,1.833,2.0105,2.1033,1.9988,2.0449,2.0555,1.9928,2.0731,2.1295,0.0,0.0,0.0,2.2785,2.1449,2.0527,2.0054,1.8577,1.776,1.7638,0.0,0.0,1.6347,0.0,0.0,0.0,0.0,0.0,1.4816,1.5114,1.6346,1.8122,1.923,1.9527,1.9406,2.0512,2.1246,2.1886,2.3763,2.4895,2.5643,2.6456,2.6976,2.7357,2.7689,2.7981,2.8136,2.7872,2.7949,2.821,2.8489,2.7948,2.7329,2.7497,2.6697,2.5529,2.428,2.4166,2.4105,2.3322,2.223,2.0978,1.9481,1.7489,1.5154,0.0,0.0,0.0,0.0,0.0,0.0,0.7641,0.7527,0.7513,0.7648,0.7801,0.8087,0.8533,0.8981,0.9683,1.0678,1.2138,1.3666,1.5263,1.6336,1.7995,2.0334,2.1379,2.267,2.4309,2.5809,2.6426,2.6313,2.6944,2.6862,2.6313,2.652,2.6229,2.5559,2.538,2.5158,2.4903,2.4903,2.5167,2.5613,2.6239,2.6969,2.7685,1.5214,0.0,0.0,1.6421,1.7043,1.7296,1.6686,1.7733,1.8602,1.8714,2.0139,2.0887,2.0178,2.0464,2.051,2.011,2.0481,2.1051,2.1771,0.0,0.0,2.3323,2.2288,2.1457,2.1104,2.0059,0.0,1.8908,0.0,0.0,1.6894,0.0,0.0,0.0,0.0,1.4622,1.5035,1.5653,1.6746,1.8126,1.8955,1.9392,0.0,2.0435,2.1285,2.2097,2.3188,2.4322,2.546,2.61,2.6582,2.7023,2.7357,2.7736,2.806,2.8025,2.8169,2.849,2.8821,2.869,2.8484,2.8758,2.8411,2.7672,2.6587,2.6399,2.6234,2.5426,2.4093,2.2762,2.1643,1.9206,1.6117,0.0,0.0,0.0,0.0,0.0,0.0,0.0,0.7939,0.797,0.7836,0.7792,0.7936,0.8337,0.8521,0.901,0.9954,1.1145,1.2547,1.421,1.5762,1.7357,1.9081,2.0533,2.1822,2.2945,2.477,2.5659,2.5772,2.6739,2.6944,2.652,2.6561,2.6313,2.5853,2.5591,2.538,2.5168,2.4988,2.5316,2.5978,2.6563,2.7293,2.7994,0.0,0.0,0.0,0.0,1.745,1.7896,1.7015,1.7265,1.7834,1.8554,1.9738,2.0457,2.0272,2.0406,2.0432,2.0346,2.0258,2.0706,2.1931,2.1373,2.1847,2.3653,2.3032,2.2563,2.2335,2.1781,2.1105,0.0,0.0,0.0,0.0,0.0,0.0,0.0,0.0,0.0,0.0,1.6417,1.7405,1.825,1.919,1.9851,2.0248,2.0705,2.1573,2.2526,2.2778,2.3777,2.503,2.58,2.6245,2.6544,2.7071,2.7357,2.7631,2.8207,2.8348,2.8441,2.8943,2.9301,2.9542,2.984,3.0057,2.9907,2.8703,2.8475,2.8191,2.722,2.5254,2.3776,2.397,2.062,1.6592,0.0,0.0,0.0,0.0,0.0,0.0,0.0,0.0,0.0,0.8269,0.786,0.7802,0.8172,0.8365,0.8602,0.8915,1.0361,1.1709,1.2894,1.5339,1.6992,1.7807,1.9644,2.0775,2.1261,2.342,2.4678,2.5195,2.6559,2.7097,2.6891,2.6727,2.6479,2.6199,2.5979,2.577,2.5559,2.5168,2.5401,2.6051,2.6766,2.7532,2.8353,0.0,0.0,0.0,0.0,1.6588,1.6609,1.8038,1.9311,1.9808,1.9016,2.0114,2.0766,2.0205,2.0893,2.1162,2.0685,2.1214,2.1691,2.197,2.243,2.3053,2.3847,2.3693,2.3531,2.3399,2.3136,2.2784,0.0,0.0,0.0,0.0,0.0,0.0,0.0,0.0,0.0,1.5254,1.6117,0.0,1.8128,1.9057,1.9766,2.0305,2.0756,2.1573,2.2526,2.2778,2.3777,2.4981,2.5557,2.5945,2.6245,2.6794,2.6986,2.7177,2.7857,2.8092,2.8233,2.8896,2.9301,2.9542,2.984,3.0057,2.9952,2.8898,2.8798,2.8692,2.7889,2.5919,2.4381,2.4442,2.1226,1.7795,1.5583,1.3387,1.1809,1.136,0.0,0.0,0.0,0.0,1.022,0.9413,0.8483,0.8008,0.8188,0.8237,0.8353,0.8582,0.9184,1.0635,1.3071,1.4094,1.5654,1.7864,1.948,2.0511,2.1013,2.3399,2.483,2.5389,2.664,2.7097,2.6891,2.685,2.6603,2.6199,2.5979,2.577,2.5601,2.5517,2.5872,2.6509,2.6872,2.7228,2.7705,0.0,0.0,0.0,0.0,1.7578,1.767,1.9143,2.0002,2.036,2.0048,2.0807,2.1129,2.0589,2.1122,2.1328,2.0989,2.1091,2.155,2.2512,2.2336,2.2704,2.3982,2.3835,2.3681,2.3616,2.3826,2.359,2.2916,2.1465,0.0,0.0,0.0,0.0,0.0,0.0,1.6344,0.0,0.0,1.8117,1.9424,1.97,2.0205,2.0856,2.1196,2.166,2.2244,2.2492,2.343,2.4696,2.5295,2.5761,2.6149,2.6554,2.6805,2.7034,2.7762,2.7998,2.8139,2.8746,2.922,2.9531,2.9634,2.9772,2.9642,2.8873,2.8591,2.8326,2.7819,2.6337,2.4851,2.4019,2.1475,1.8908,1.6981,1.4666,1.2773,1.1833,1.0538,0.9864,0.0,0.0,0.0,0.9432,0.8975,0.8723,0.8708,0.8453,0.8394,0.8602,0.9072,1.024,1.2154,1.3466,1.5012,1.6788,1.8564,1.9791,2.0475,2.2808,2.4267,2.4937,2.6386,2.6974,2.6891,2.6891,2.6727,2.6396,2.6021,2.577,2.5601,2.5601,2.5862,2.6253,2.6396,2.6807,2.7529,0.0,1.8627,0.0,1.9005,1.8905,1.9057,1.9953,2.028,2.0523,2.0785,2.1191,2.1346,2.1097,2.1314,2.1461,2.1311,2.0994,2.1393,2.2726,2.1981,2.2233,2.3978,2.3774,2.3673,2.3731,2.422,2.4091,2.3357,2.2403,2.1257,1.9963,0.0,0.0,0.0,0.0,1.76,1.8312,1.8488,1.9442,2.0725,2.0518,2.0802,2.142,2.1471,2.1745,2.2139,2.2246,2.3179,2.4506,2.5023,2.5577,2.6052,2.64,2.6651,2.6986,2.7762,2.7998,2.8139,2.8653,2.9117,2.9485,2.9485,2.9489,2.9355,2.8827,2.8376,2.7953,2.7638,2.6734,2.5482,2.3724,2.2274,2.0707,1.8758,1.6391,1.4411,1.3276,1.2195,1.1483,0.0,0.0,0.0,1.0084,0.9986,0.9896,0.961,0.8867,0.8561,0.8852,0.9262,1.0266,1.1971,1.3336,1.4778,1.6338,1.7988,1.9197,2.003,2.2241,2.3693,2.4454,2.6143,2.6891,2.6891,2.6933,2.6809,2.6561,2.6104,2.5812,2.5644,2.5644,2.5765,2.5923,2.6019,2.6397,2.7041,0.0,0.0,1.934,1.9819,1.9515,1.9421,1.9929,2.0483,2.0785,2.056,2.0772,2.1092,2.1482,2.178,2.1829,2.1599,2.1737,2.182,2.1749,2.1979,2.2518,2.3459,2.3712,2.4078,2.4507,2.4622,2.4612,2.4535,2.2994,2.1865,2.113,0.0,0.0,1.8995,1.8749,1.8573,1.8618,1.9528,2.0295,2.0887,2.106,2.1337,2.1623,2.1173,2.1759,2.2726,2.2274,2.3276,2.4835,2.4922,2.5284,2.583,2.6352,2.6496,2.6736,2.7715,2.7998,2.8139,2.8653,2.9117,2.9485,2.9485,2.9489,2.9355,2.8827,2.846,2.8173,2.7906,2.7371,2.6375,2.4469,2.4434,2.4164,2.2458,2.0215,1.8632,1.849,1.5772,1.4039,1.4771,0.0,0.0,1.295,1.2342,1.17,1.0882,0.9378,0.877,0.9384,0.9242,1.0754,1.4282,1.3844,1.5041,1.814,1.8585,1.9186,1.9941,2.2194,2.3704,2.4447,2.6154,2.6891,2.6891,2.7097,2.6933,2.6561,2.6104,2.5906,2.5853,2.5853,2.5893,2.5955,2.6392,2.6051,2.5534,2.0534,2.0382,2.0478,2.0746,2.0195,2.0122,2.1272,2.1275,2.1325,2.1855,2.1731,2.1622,2.1822,2.2143,2.224,2.1912,2.1956,2.2195,2.2586,2.2447,2.265,2.3432,2.3678,2.3904,2.41,2.4588,2.4717,2.4469,2.4117,2.3153,2.1547,2.1992,2.1645,2.0595,2.0352,2.0372,2.058,2.0922,2.1513,2.2146,2.2043,2.1996,2.1928,2.1522,2.1837,2.249,2.2283,2.322,2.4562,2.4746,2.5063,2.5586,2.6255,2.6496,2.6688,2.7536,2.7773,2.7867,2.843,2.8803,2.9163,2.9439,2.9387,2.9167,2.8772,2.8418,2.8048,2.772,2.703,2.605,2.4734,2.463,2.4231,2.2617,2.1431,2.0343,1.9275,1.7478,0.0,1.5603,0.0,1.3774,1.2257,1.1789,1.1087,0.9883,0.9148,0.8868,0.9176,0.944,1.0592,1.2758,1.2871,1.4429,1.759,1.8204,1.9372,2.1114,2.2696,2.3862,2.474,2.5657,2.6385,2.6891,2.685,2.6768,2.6561,2.6104,2.5895,2.5895,2.5895,2.5847,2.569,2.5614,2.5345,2.5089,2.163,2.168,2.1829,2.1943,2.1323,2.1156,2.2255,2.1853,2.1753,2.2432,2.2355,2.2227,2.2298,2.249,2.2484,2.2125,2.2144,2.2408,2.2922,2.2799,2.2965,2.3441,2.3785,2.3934,2.3932,2.4555,2.4781,2.4507,2.4879,2.4126,2.234,2.2852,2.2747,2.2138,2.1888,2.1959,2.2236,2.2219,2.2556,2.3097,2.2846,2.2493,2.2072,2.1623,2.1913,2.2577,2.2304,2.3255,2.4602,2.4823,2.5121,2.5518,2.6255,2.6544,2.6747,2.7404,2.7678,2.782,2.8301,2.8617,2.8989,2.9393,2.9184,2.8841,2.8738,2.8249,2.7734,2.7366,2.6772,2.6023,2.5012,2.4881,2.4483,2.3185,2.2556,2.1785,2.0497,1.9303,1.7979,1.6348,1.5246,1.3984,1.2278,1.1795,1.1214,1.0242,0.9932,0.9638,0.9278,0.9907,1.0849,1.2081,1.2618,1.4187,1.6898,1.7785,1.9266,2.1419,2.2832,2.3907,2.4743,2.5411,2.6166,2.6985,2.6768,2.6644,2.6561,2.6146,2.5937,2.5895,2.5895,2.5728,2.5486,2.5317,2.5072,2.4796,2.2735,2.3166,2.3474,2.3474,2.3081,2.2696,2.2441,2.2107,2.1822,2.1655,2.2235,2.2765,2.2953,2.2745,2.2484,2.2125,2.2474,2.2536,2.2129,2.2973,2.3441,2.3423,2.3923,2.4253,2.4285,2.4689,2.4918,2.5001,2.5059,2.4634,2.3757,2.2857,2.2843,2.3635,2.3277,2.3075,2.3111,2.3318,2.3397,2.3347,2.3097,2.2636,2.2021,2.1224,2.192,2.317,2.2391,2.3502,2.5284,2.5284,2.546,2.58,2.6352,2.6699,2.6996,2.7452,2.7773,2.8045,2.8348,2.8721,2.9174,2.9439,2.8947,2.8475,2.8669,2.8087,2.7383,2.6895,2.6948,2.6698,2.5419,2.553,2.5622,2.5135,2.4183,2.3392,2.3189,2.1711,1.9806,1.747,1.6882,1.5908,1.3959,1.317,1.2831,1.2939,1.2275,1.1293,0.9961,1.0695,1.1868,1.3336,1.364,1.4671,1.6497,1.7506,1.8757,2.0244,2.2453,2.3743,2.4239,2.5569,2.6539,2.719,2.6974,2.6768,2.6561,2.6313,2.6074,2.5895,2.5895,2.5633,2.5296,2.5937,2.5475,2.4602,2.2973,2.3134,2.3232,2.3232,2.2838,2.2662,2.3101,2.2838,2.2731,2.3168,2.3359,2.3403,2.3288,2.3046,2.2845,2.2804,2.2684,2.264,2.2648,2.2992,2.3184,2.3208,2.3686,2.4015,2.4177,2.4643,2.5012,2.5218,2.5421,2.4953,2.3913,2.3632,2.3455,2.3438,2.368,2.3803,2.3812,2.3543,2.3506,2.3655,2.3397,2.3147,2.2887,2.1827,2.2426,2.3728,2.292,2.3777,2.5333,2.5713,2.6004,2.6304,2.6651,2.6853,2.6948,2.7309,2.7536,2.7773,2.8045,2.8513,2.8943,2.9163,2.9049,2.8786,2.8544,2.7859,2.7255,2.7105,2.6688,2.6174,2.5635,2.5409,2.5218,2.4956,2.4802,2.4583,2.4156,2.263,2.0995,1.9422,1.8103,1.6781,1.5441,1.5885,1.5748,1.4462,1.4735,1.3831,1.126,1.2066,1.2978,1.3781,1.4563,1.5709,1.7308,1.8122,1.9293,2.0841,2.219,2.3526,2.4903,2.5821,2.6498,2.6974,2.6933,2.685,2.6768,2.6365,2.6157,2.6074,2.5812,2.5601,2.5454,2.5167,2.4911,2.4764,2.312,2.3188,2.3232,2.3232,2.3013,2.2974,2.3545,2.3286,2.3261,2.3663,2.3799,2.3726,2.348,2.3358,2.3246,2.3089,2.2885,2.2761,2.2742,2.2879,2.2975,2.2974,2.3541,2.3963,2.4305,2.4807,2.5149,2.5334,2.5499,2.5102,2.4326,2.4231,2.4051,2.3754,2.4021,2.4143,2.4202,2.3854,2.3755,2.3805,2.3596,2.3397,2.3138,2.2325,2.2878,2.4035,2.3429,2.4183,2.5528,2.5955,2.6294,2.6554,2.6805,2.6948,2.7081,2.7262,2.7594,2.7914,2.8102,2.8477,2.8852,2.9033,2.8892,2.8573,2.8066,2.7554,2.719,2.719,2.6685,2.6167,2.5866,2.5562,2.5242,2.4956,2.5111,2.5119,2.459,2.2965,2.1358,2.0103,1.8787,1.7609,1.6591,1.7712,1.799,1.672,1.7175,1.6613,1.4576,1.4515,1.48,1.5413,1.6506,1.7458,1.8268,1.9093,2.015,2.1387,2.2554,2.3939,2.5464,2.5915,2.6426,2.7015,2.7015,2.6974,2.6891,2.6561,2.6365,2.6157,2.5853,2.5654,2.5517,2.5094,2.4914,2.4861,2.3135,2.3319,2.346,2.346,2.346,2.3554,2.3775,2.3583,2.3429,2.343,2.3709,2.3825,2.3584,2.3726,2.3651,2.3183,2.3138,2.2976,2.2598,2.2835,2.2921,2.2903,2.3593,2.4162,2.4641,2.5082,2.5324,2.5439,2.5324,2.5186,2.4932,2.4627,2.448,2.4489,2.4301,2.4202,2.4202,2.4202,2.4053,2.3854,2.3854,2.3497,2.2979,2.2677,2.3229,2.4134,2.3877,2.4637,2.5781,2.6052,2.6304,2.6544,2.6842,2.7129,2.7309,2.7309,2.7809,2.8294,2.8294,2.8552,2.8769,2.8948,2.8475,2.7835,2.7325,2.7231,2.7231,2.7231,2.6944,2.653,2.6105,2.5871,2.5623,2.5159,2.5218,2.5119,2.459,2.2891,2.1212,1.9911,1.928,1.8612,1.7741,1.8977,1.9742,1.9543,1.9531,1.9482,1.9384,1.7875,1.7267,1.7894,1.9094,1.9572,1.9229,2.0216,2.1115,2.1896,2.3421,2.4754,2.5853,2.5895,2.6396,2.719,2.719,2.7097,2.6933,2.6903,2.6644,2.6229,2.5979,2.577,2.5601,2.5559,2.5253,2.4903,2.311,2.3135,2.3188,2.3188,2.3188,2.3335,2.3721,2.3825,2.4044,2.4618,2.4467,2.434,2.4291,2.4187,2.3967,2.3669,2.3462,2.3269,2.3171,2.3417,2.3659,2.3799,2.4144,2.4585,2.514,2.5236,2.5382,2.5624,2.5382,2.5284,2.5186,2.4735,2.448,2.4489,2.4301,2.4202,2.4202,2.4202,2.4152,2.4102,2.4102,2.4003,2.3845,2.3538,2.4084,2.4932,2.448,2.5167,2.6304,2.64,2.6602,2.6842,2.7129,2.7357,2.7499,2.7357,2.7437,2.7533,2.7533,2.7847,2.8155,2.8066,2.785,2.762,2.7298,2.7342,2.7441,2.7441,2.6881,2.637,2.6253,2.5701,2.523,2.5099,2.5218,2.5167,2.4774,2.3586,2.2611,2.2226,2.1824,2.1447,2.107,2.227,2.2697,2.1754,2.1829,2.1989,2.223,2.1464,2.0399,1.9006,1.9694,1.9933,1.9561,2.0398,2.1385,2.2651,2.3488,2.4487,2.558,2.5812,2.6396,2.719,2.719,2.719,2.7108,2.6974,2.6809,2.6644,2.5884,2.5675,2.5728,2.5009,2.4828,2.4861,2.313,2.3091,2.3091,2.3091,2.3091,2.3305,2.3984,2.4222,2.4592,2.5273,2.5266,2.5069,2.4735,2.4587,2.439,2.4143,2.3795,2.3475,2.3296,2.3435,2.3573,2.3868,2.421,2.4694,2.5284,2.544,2.5489,2.5538,2.5382,2.5186,2.4932,2.4637,2.443,2.4341,2.4251,2.4202,2.4202,2.4202,2.4053,2.3854,2.3954,2.3954,2.3845,2.3985,2.4578,2.5284,2.5118,2.5654,2.6496,2.6496,2.6699,2.6948,2.7214,2.7357,2.7452,2.7309,2.7557,2.7786,2.7786,2.7878,2.7889,2.7457,2.7377,2.7357,2.7124,2.7219,2.7412,2.7482,2.7081,2.6678,2.6562,2.5974,2.5474,2.5299,2.4957,2.4681,2.4578,2.3445,2.269,2.2847,2.2677,2.2577,2.2647,2.3583,2.3923,2.3267,2.3338,2.3453,2.3657,2.3381,2.2613,2.1294,2.148,2.1549,2.1378,2.2014,2.2684,2.3375,2.4014,2.4775,2.5675,2.5926,2.6467,2.719,2.719,2.719,2.719,2.7067,2.6974,2.685,2.6082,2.5832,2.5812,2.5084,2.4861,2.4861,2.3125,2.3091,2.3091,2.3091,2.3091,2.3364,2.4199,2.4615,2.5033,2.5642,2.5954,2.58,2.5079,2.4981,2.4833,2.4538,2.4192,2.3808,2.3481,2.3396,2.3484,2.3793,2.4228,2.4726,2.5284,2.5538,2.5586,2.5284,2.5284,2.5039,2.4578,2.4529,2.439,2.4251,2.4202,2.4202,2.4202,2.4202,2.3895,2.3497,2.3646,2.3646,2.3596,2.4233,2.4835,2.5324,2.5605,2.604,2.6481,2.6373,2.6635,2.6986,2.7132,2.7195,2.7216,2.7289,2.7731,2.8204,2.824,2.8015,2.771,2.7105,2.7046,2.7108,2.6933,2.7097,2.7301,2.7441,2.7313,2.7071,2.6832,2.6372,2.5922,2.5618,2.4648,2.4058,2.4397,2.3215,2.2479,2.2962,2.3019,2.31,2.3403,2.3932,2.4236,2.4164,2.4152,2.4152,2.4116,2.4152,2.397,2.3593,2.3446,2.3349,2.3406,2.3881,2.4065,2.3897,2.4513,2.5211,2.5853,2.6071,2.658,2.719,2.719,2.719,2.719,2.7231,2.7138,2.6891,2.6415,2.6124,2.5884,2.5369,2.5031,2.4903,2.311,2.3091,2.3091,2.3091,2.3091,2.3266,2.3809,2.4427,2.5027,2.5722,2.5968,2.5945,2.5596,2.5372,2.5039,2.4529,2.4637,2.4707,2.4651,2.4641,2.4641,2.469,2.4993,2.5168,2.5284,2.5538,2.5586,2.5284,2.5284,2.5137,2.4833,2.4587,2.448,2.444,2.4301,2.4202,2.4202,2.4202,2.4003,2.3705,2.3488,2.3637,2.4035,2.4353,2.488,2.5403,2.5687,2.6111,2.6481,2.588,2.6341,2.72,2.6806,2.6718,2.6801,2.7195,2.7275,2.7249,2.7434,2.7278,2.7082,2.7207,2.7099,2.6933,2.6903,2.7208,2.7441,2.7482,2.7157,2.6843,2.6802,2.6372,2.5962,2.5919,2.4661,2.4012,2.499,2.4011,2.3506,2.4371,2.4709,2.4777,2.4578,2.4469,2.4309,2.397,2.3934,2.3861,2.3703,2.3861,2.3824,2.3604,2.3556,2.3503,2.34,2.3711,2.3843,2.3826,2.4327,2.4914,2.558,2.5988,2.658,2.719,2.719,2.719,2.7231,2.7371,2.733,2.7108,2.6622,2.6321,2.6071,2.5242,2.4946,2.4861,2.3325,2.3188,2.3091,2.3091,2.3091,2.3247,2.3721,2.4479,2.5191,2.5725,2.6357,2.6582,2.6197,2.5907,2.5567,2.5167,2.5128,2.5137,2.5137,2.4981,2.4883,2.4883,2.5137,2.5391,2.5489,2.5489,2.5489,2.5538,2.5382,2.5137,2.4883,2.4784,2.4587,2.4341,2.4251,2.4202,2.4202,2.4202,2.3954,2.3596,2.3687,2.3777,2.3976,2.4648,2.5121,2.5436,2.5681,2.5997,2.6165,2.565,2.6018,2.6629,2.6341,2.628,2.6434,2.6827,2.7098,2.7321,2.7299,2.721,2.7052,2.68,2.671,2.6685,2.6561,2.6768,2.7085,2.7307,2.7065,2.6915,2.7145,2.6779,2.6481,2.6558,2.5434,2.4779,2.5517,2.4787,2.4354,2.4915,2.5109,2.5087,2.4825,2.461,2.4381,2.408,2.397,2.3974,2.4134,2.3897,2.3753,2.3798,2.3847,2.3931,2.3986,2.4117,2.4163,2.4186,2.4658,2.5115,2.5538,2.5999,2.6509,2.7026,2.7026,2.7108,2.7231,2.7301,2.726,2.7149,2.6715,2.6332,2.5957,2.5285,2.4914,2.4658,2.3826,2.3536,2.3335,2.3291,2.3203,2.3296,2.3584,2.4455,2.5253,2.5631,2.658,2.7023,2.6544,2.6342,2.6149,2.5742,2.5567,2.5479,2.5391,2.5088,2.4833,2.4735,2.4981,2.5284,2.5586,2.5489,2.544,2.5586,2.544,2.5235,2.4883,2.4981,2.4735,2.4251,2.4251,2.4251,2.4202,2.4202,2.3954,2.3596,2.3886,2.3985,2.4066,2.4838,2.5226,2.5361,2.5561,2.5711,2.5709,2.5347,2.5666,2.6135,2.5894,2.5931,2.619,2.6563,2.7076,2.751,2.7397,2.7364,2.7148,2.654,2.6505,2.654,2.6263,2.6437,2.6757,2.7033,2.7003,2.7056,2.7319,2.7128,2.7004,2.7095,2.606,2.5421,2.5985,2.5288,2.4838,2.5159,2.523,2.5123,2.4765,2.4679,2.4509,2.4091,2.415,2.425,2.437,2.4011,2.3911,2.4177,2.4086,2.4172,2.4489,2.4482,2.4497,2.4497,2.4946,2.5242,2.5454,2.5843,2.6271,2.6685,2.6768,2.6891,2.7056,2.7219,2.7219,2.7149,2.6809,2.6396,2.5895,2.5411,2.4946,2.4583,2.4657,2.4331,2.3954,2.3785,2.3595,2.3416,2.3184,2.4122,2.495,2.5229,2.6219,2.6794,2.6544,2.6699,2.6544,2.5752,2.5897,2.5965,2.5684,2.5186,2.4686,2.4183,2.443,2.4784,2.5333,2.5538,2.5538,2.5342,2.5538,2.5391,2.4883,2.5137,2.499,2.448,2.448,2.439,2.4202,2.4202,2.4143,2.4035,2.3827,2.4183,2.4786,2.4718,2.4871,2.5148,2.5204,2.5261,2.5168,2.4745,2.529,2.6145,2.5686,2.5655,2.596,2.6679,2.7098,2.7347,2.7552,2.744,2.7259,2.7024,2.6758,2.6538,2.6256,2.6561,2.685,2.6685,2.6933,2.7149,2.6974,2.7214,2.7383,2.7214,2.5914,2.533,2.6481,2.5345,2.4671,2.539,2.5619,2.5453,2.4609,2.4908,2.4719,2.3711,2.4493,2.4664,2.3831,2.4126,2.4454,2.474,2.4151,2.4051,2.4489,2.4482,2.4497,2.4497,2.4786,2.5031,2.5242,2.5454,2.5717,2.5979,2.6373,2.6528,2.661,2.7226,2.7371,2.719,2.6974,2.6592,2.6113,2.5443,2.5073,2.4828,2.4999,2.4516,2.4078,2.418,2.3952,2.379,2.3654,2.4582,2.5255,2.5348,2.6266,2.6805,2.6554,2.6747,2.6699,2.6245,2.6304,2.6149,2.5713,2.5177,2.4784,2.4587,2.4529,2.4833,2.5538,2.5489,2.5489,2.5538,2.5664,2.5518,2.5137,2.5421,2.5265,2.4735,2.4578,2.444,2.439,2.4538,2.444,2.4134,2.4716,2.4771,2.4582,2.4927,2.4944,2.4781,2.5074,2.5311,2.5455,2.5408,2.567,2.598,2.5661,2.5466,2.55,2.6245,2.695,2.7437,2.7238,2.6911,2.6539,2.6218,2.6055,2.5955,2.5855,2.6063,2.6354,2.6561,2.6727,2.6891,2.7067,2.7464,2.7708,2.7638,2.7144,2.6944,2.7561,2.66,2.5972,2.6432,2.625,2.5941,2.5466,2.5579,2.5489,2.4952,2.5025,2.5049,2.5014,2.4672,2.4491,2.4612,2.4114,2.4157,2.4735,2.4575,2.4497,2.4497,2.4786,2.4946,2.5031,2.52,2.5454,2.5675,2.6113,2.631,2.6362,2.7044,2.7249,2.7196,2.7115,2.6816,2.6362,2.5946,2.5443,2.4903,2.5331,2.4753,2.4273,2.4284,2.4072,2.3888,2.3842,2.4567,2.5173,2.5362,2.6034,2.6557,2.6687,2.695,2.6998,2.6697,2.6794,2.6589,2.6004,2.5362,2.4922,2.4686,2.448,2.4735,2.5538,2.5489,2.5586,2.583,2.581,2.5703,2.5577,2.5752,2.5557,2.503,2.4735,2.4677,2.4784,2.4883,2.47,2.4489,2.545,2.5305,2.4641,2.5204,2.5101,2.472,2.5021,2.5317,2.5651,2.5826,2.5902,2.5899,2.5912,2.5811,2.5734,2.6292,2.6873,2.7269,2.6798,2.6462,2.6119,2.5856,2.5808,2.5785,2.5813,2.5895,2.6104,2.6396,2.6603,2.6768,2.6974,2.7423,2.7748,2.7679,2.7708,2.7788,2.7857,2.734,2.6941,2.6932,2.6621,2.6302,2.5931,2.6059,2.6004,2.565,2.556,2.5608,2.5709,2.5176,2.4804,2.4743,2.4451,2.4514,2.4903,2.4615,2.4454,2.4411,2.4658,2.4775,2.4786,2.4914,2.5115,2.5327,2.5779,2.603,2.6166,2.6757,2.7085,2.7185,2.7074,2.6857,2.658,2.6249,2.5611,2.4988,2.5782,2.5249,2.4673,2.4182,2.3879,2.3644,2.3438,2.3926,2.4517,2.5031,2.5487,2.6054,2.6991,2.7386,2.7484,2.714,2.7386,2.7301,2.6575,2.5742,2.4952,2.4183,2.4125,2.448,2.5284,2.5538,2.582,2.61,2.61,2.61,2.61,2.61,2.581,2.5284,2.5039,2.5088,2.5284,2.503,2.4986,2.5155,2.5826,2.5689,2.5114,2.5385,2.5351,2.5083,2.4927,2.5208,2.5662,2.5826,2.5912,2.6003,2.647,2.6748,2.69,2.69,2.6894,2.6787,2.6316,2.6209,2.6206,2.6206,2.6206,2.6217,2.6214,2.6199,2.6199,2.6199,2.6561,2.685,2.6644,2.7074,2.7441,2.7231,2.7371,2.7441,2.7219,2.7371,2.7256,2.6559,2.6672,2.6514,2.5773,2.6175,2.6188,2.544,2.6163,2.6313,2.5644,2.5601,2.5475,2.52,2.52,2.5115,2.4903,2.4625,2.4411,2.4206,2.4411,2.4497,2.4497,2.4497,2.4658,2.4903,2.5327,2.5633,2.5937,2.6396,2.6828,2.7144,2.6757,2.6727,2.6809,2.6146,2.5591,2.5158,2.5682,2.5554,2.5369,2.5241,2.4994,2.4803,2.4765,2.5217,2.5527,2.5537,2.5935,2.6415,2.6853,2.7298,2.7533,2.7435,2.7837,2.7786,2.7034,2.6466,2.6119,2.6081,2.5167,2.4941,2.5586,2.5635,2.5732,2.583,2.6207,2.6207,2.583,2.6207,2.6197,2.5858,2.5557,2.5606,2.5858,2.5955,2.5757,2.5382,2.6315,2.6054,2.5175,2.5412,2.5304,2.4948,2.5081,2.5646,2.6423,2.6756,2.6798,2.6626,2.6393,2.6597,2.6983,2.6926,2.7182,2.7273,2.6416,2.6324,2.6314,2.5669,2.5764,2.5944,2.5802,2.5906,2.6021,2.6157,2.6437,2.6727,2.6809,2.7208,2.7482,2.74,2.7192,2.6971,2.6943,2.6851,2.6702,2.6524,2.6823,2.6852,2.6316,2.6696,2.6759,2.6224,2.6423,2.6313,2.5644,2.5601,2.5559,2.5411,2.5776,2.5616,2.4903,2.4818,2.4583,2.4206,2.4411,2.4411,2.4292,2.4454,2.454,2.4658,2.5242,2.5454,2.5454,2.626,2.6828,2.7185,2.7062,2.7074,2.7074,2.6727,2.601,2.52,2.5382,2.5353,2.5304,2.532,2.5208,2.5044,2.5044,2.547,2.5761,2.5723,2.6004,2.6366,2.6853,2.7249,2.7566,2.7937,2.8282,2.8124,2.7262,2.704,2.6897,2.6907,2.6187,2.5849,2.6024,2.611,2.6062,2.5868,2.6496,2.6592,2.6207,2.6688,2.6774,2.6524,2.6274,2.6332,2.6582,2.663,2.6182,2.5575,2.6635,2.6201,2.4982,2.5552,2.5482,2.5039,2.5296,2.599,2.6817,2.6976,2.6997,2.6895,2.6292,2.6433,2.6823,2.6813,2.6947,2.6982,2.6367,2.626,2.6182,2.554,2.5644,2.5906,2.5864,2.5853,2.5948,2.6157,2.6313,2.6479,2.6603,2.6962,2.7249,2.7249,2.7077,2.6972,2.6972,2.6852,2.672,2.6507,2.6739,2.6757,2.629,2.6674,2.6839,2.6663,2.6633,2.6426,2.6021,2.5812,2.5728,2.5801,2.6073,2.5871,2.5031,2.5031,2.469,2.4024,2.4282,2.4335,2.4206,2.4335,2.454,2.4786,2.5115,2.5327,2.5506,2.6021,2.6509,2.694,2.7033,2.7156,2.7185,2.6962,2.6343,2.5569,2.4995,2.4889,2.4792,2.4851,2.4789,2.4775,2.4823,2.5141,2.5479,2.5752,2.579,2.6113,2.7041,2.716,2.7569,2.8475,2.8621,2.8312,2.7404,2.7584,2.7536,2.7098,2.7241,2.7098,2.664,2.6812,2.6668,2.6197,2.6965,2.7204,2.6955,2.7394,2.7489,2.7231,2.7051,2.7109,2.7309,2.7051,2.6474,2.5788,2.6873,2.6233,2.4784,2.5809,2.5829,2.5303,2.5519,2.6185,2.6876,2.6682,2.678,2.6873,2.6193,2.6276,2.6615,2.6617,2.6429,2.6206,2.6163,2.6011,2.5812,2.5601,2.5686,2.5895,2.6115,2.5979,2.5937,2.6115,2.6199,2.6199,2.6199,2.6573,2.6891,2.6891,2.7021,2.7121,2.7121,2.7121,2.6987,2.6554,2.6505,2.6362,2.5979,2.6249,2.658,2.6891,2.6727,2.6603,2.6603,2.6188,2.6063,2.6282,2.6315,2.597,2.5285,2.5274,2.4807,2.3841,2.4067,2.4206,2.4163,2.4206,2.4583,2.5115,2.4988,2.5295,2.5864,2.5686,2.5968,2.6528,2.6768,2.7003,2.7144,2.6962,2.6592,2.6071,2.4906,2.5227,2.5489,2.5517,2.5334,2.5295,2.5721,2.5848,2.6004,2.6304,2.6352,2.6609,2.7394,2.7308,2.7496,2.8286,2.8445,2.8455,2.8477,2.8524,2.8466,2.8373,2.842,2.8233,2.7668,2.7326,2.7088,2.6945,2.7347,2.7394,2.7136,2.7441,2.7584,2.7536,2.7489,2.7489,2.7547,2.7489,2.7025,2.6429,2.7034,2.6687,2.5875,2.6114,2.5996,2.5719,2.5647,2.5979,2.6455,2.6574,2.678,2.6918,2.6563,2.6649,2.6873,2.6671,2.6574,2.6411,2.5861,2.5688,2.5601,2.5338,2.5327,2.5422,2.5686,2.5696,2.5728,2.5937,2.6104,2.6199,2.6199,2.6437,2.6727,2.685,2.658,2.6399,2.6622,2.6634,2.6622,2.6502,2.6508,2.6404,2.6155,2.6196,2.6456,2.685,2.685,2.6768,2.6603,2.652,2.652,2.6727,2.7087,2.6805,2.577,2.6117,2.5562,2.411,2.4153,2.4067,2.3884,2.4282,2.4497,2.4668,2.4988,2.5338,2.5686,2.577,2.6093,2.6528,2.6633,2.6809,2.6974,2.6933,2.652,2.5884,2.4686,2.502,2.5372,2.5489,2.5382,2.5479,2.6004,2.5994,2.6042,2.6448,2.6496,2.6683,2.7207,2.715,2.7334,2.8094,2.8645,2.8867,2.8814,2.8803,2.8803,2.8803,2.8803,2.8653,2.8373,2.8186,2.7893,2.741,2.7998,2.8149,2.7762,2.8149,2.8243,2.8149,2.8149,2.8055,2.7773,2.7773,2.7415,2.6785,2.6931,2.6748,2.6436,2.638,2.6273,2.6109,2.6087,2.6097,2.6151,2.6508,2.6552,2.6444,2.6322,2.6367,2.6487,2.6411,2.6281,2.6022,2.568,2.5424,2.5264,2.5209,2.5028,2.4956,2.5338,2.5422,2.5422,2.5549,2.577,2.5895,2.5895,2.6188,2.6437,2.6561,2.6542,2.6524,2.6656,2.6789,2.6737,2.6524,2.6494,2.6445,2.6238,2.6185,2.6404,2.685,2.6891,2.6933,2.7033,2.685,2.685,2.7044,2.7284,2.6963,2.6052,2.6198,2.5775,2.4828,2.4615,2.4444,2.4348,2.4572,2.4743,2.4828,2.4871,2.5126,2.5601,2.5591,2.5759,2.6082,2.6426,2.6674,2.6926,2.7152,2.6814,2.6181,2.4489,2.4735,2.4981,2.5333,2.5284,2.5421,2.5955,2.58,2.58,2.6294,2.64,2.6544,2.6805,2.7058,2.7423,2.8068,2.8964,2.9314,2.8957,2.8847,2.8803,2.8803,2.8803,2.8803,2.8803,2.9035,2.8746,2.7882,2.8746,2.8989,2.8581,2.8943,2.8989,2.885,2.8803,2.8513,2.7998,2.7998,2.7645,2.7028,2.6832,2.6746,2.6708,2.6698,2.6589,2.6444,2.6574,2.6279,2.5919,2.6322,2.6149,2.5812,2.5853,2.5919,2.5912,2.6002,2.5883,2.5648,2.5459,2.5236,2.511,2.5213,2.4941,2.4697,2.5115,2.5168,2.5158,2.52,2.538,2.5559,2.5601,2.5853,2.6104,2.6199,2.6531,2.6809,2.6891,2.7056,2.7015,2.661,2.6498,2.6362,2.6238,2.6196,2.6373,2.685,2.6891,2.7085,2.7482,2.7167,2.7085,2.7319,2.7267,2.694,2.6321,2.606,2.5863,2.5611,2.5158,2.4903,2.4818,2.4861,2.4988,2.5073,2.4743,2.4967,2.5517,2.538,2.5422,2.5644,2.6249,2.6622,2.6907,2.7425,2.7169,2.656,2.4686,2.4883,2.5088,2.5538,2.5235,2.5128,2.5645,2.5518,2.547,2.5752,2.5994,2.6245,2.6496,2.77,2.8519,2.8604,2.9159,2.9456,2.939,2.9033,2.8803,2.8803,2.8803,2.8803,2.8803,2.9209,2.9255,2.8885,2.9255,2.9393,2.9347,2.9174,2.9082,2.9035,2.8896,2.8513,2.7998,2.7998,2.7731,2.7263,2.7216,2.7077,2.689,2.714,2.708,2.6897,2.665,2.6193,2.5654,2.5888,2.5687,2.538,2.577,2.5882,2.5829,2.5434,2.5697,2.5928,2.5118,2.5327,2.5706,2.5521,2.5293,2.514,2.5184,2.5079,2.4988,2.5158,2.5242,2.5338,2.5559,2.5644,2.5822,2.6157,2.6229,2.6437,2.685,2.6933,2.6933,2.685,2.6479,2.6218,2.6185,2.6218,2.6396,2.685,2.6891,2.7085,2.7482,2.7441,2.7534,2.78,2.7574,2.7237,2.6809,2.6362,2.6144,2.6102,2.5443,2.4956,2.4583,2.4786,2.4786,2.4625,2.4946,2.5158,2.5285,2.5633,2.5728,2.5644,2.6063,2.6396,2.67,2.7341,2.7178,2.6593,2.4482,2.4824,2.4998,2.5028,2.5022,2.5187,2.5635,2.5216,2.5177,2.6042,2.5994,2.6042,2.6448,2.7342,2.8136,2.863,2.881,2.9052,2.9467,2.9077,2.8803,2.8803,2.8803,2.8803,2.8803,2.9117,2.9312,2.9301,2.9715,2.976,2.9485,2.9393,2.9163,2.8943,2.885,2.8513,2.7998,2.7998,2.7809,2.7421,2.7066,2.7134,2.7482,2.7239,2.7086,2.6907,2.6281,2.5827,2.5601,2.5506,2.5551,2.5637,2.5819,2.6065,2.6273,2.6182,2.6165,2.6111,2.5665,2.5745,2.5912,2.5875,2.5745,2.5658,2.5916,2.5706,2.5432,2.5225,2.5502,2.5728,2.5604,2.5776,2.5861,2.5676,2.5979,2.6229,2.6313,2.6561,2.6685,2.6539,2.6313,2.6146,2.6052,2.6146,2.6382,2.6847,2.6885,2.717,2.7858,2.7766,2.7829,2.807,2.7829,2.7464,2.6903,2.6592,2.629,2.6052,2.5633,2.5295,2.5031,2.4946,2.4965,2.5119,2.4901,2.5104,2.5572,2.5529,2.5549,2.5644,2.5906,2.6437,2.7074,2.7929,2.7677,2.7001]}]]